<?xml version="1.0" encoding="UTF-8" standalone="no" ?>
<gpx xmlns="http://www.topografix.com/GPX/1/1" xmlns:xsi="http://www.w3.org/2001/XMLSchema-instance" xsi:schemaLocation="http://www.topografix.com/GPX/1/1 http://www.topografix.com/GPX/1/1/gpx.xsd" version="1.1" creator="VisuGPX - https://www.visugpx.com">
  <metadata>
    <name>Circuit du 29 avril 2018 D:1813m</name>
    <desc><![CDATA[Circuit du 29 avril 2018 du Cyclo oSport Pierrefeucain]]></desc>
  </metadata>
  <trk>
    <name><![CDATA[15-07-12 on GPSies.com]]></name>
    <trkseg>
      <trkpt lat="43.22435" lon="6.14067">
        <ele>76</ele>
        <time>2010-01-01T00:00:00Z</time>
      </trkpt>
      <trkpt lat="43.2244" lon="6.14104">
        <ele>78</ele>
        <time>2010-01-01T00:00:10Z</time>
      </trkpt>
      <trkpt lat="43.22454" lon="6.1414">
        <ele>81</ele>
        <time>2010-01-01T00:00:22Z</time>
      </trkpt>
      <trkpt lat="43.22491" lon="6.14191">
        <ele>89</ele>
        <time>2010-01-01T00:00:43Z</time>
      </trkpt>
      <trkpt lat="43.22549" lon="6.14254">
        <ele>108</ele>
        <time>2010-01-01T00:01:13Z</time>
      </trkpt>
      <trkpt lat="43.22632" lon="6.14304">
        <ele>118</ele>
        <time>2010-01-01T00:01:49Z</time>
      </trkpt>
      <trkpt lat="43.22665" lon="6.14289">
        <ele>126</ele>
        <time>2010-01-01T00:02:03Z</time>
      </trkpt>
      <trkpt lat="43.22719" lon="6.14304">
        <ele>113</ele>
        <time>2010-01-01T00:02:25Z</time>
      </trkpt>
      <trkpt lat="43.22815" lon="6.14344">
        <ele>77</ele>
        <time>2010-01-01T00:03:05Z</time>
      </trkpt>
      <trkpt lat="43.22845" lon="6.14378">
        <ele>69</ele>
        <time>2010-01-01T00:03:21Z</time>
      </trkpt>
      <trkpt lat="43.22862" lon="6.14416">
        <ele>69</ele>
        <time>2010-01-01T00:03:34Z</time>
      </trkpt>
      <trkpt lat="43.22875" lon="6.14467">
        <ele>71</ele>
        <time>2010-01-01T00:03:50Z</time>
      </trkpt>
      <trkpt lat="43.22903" lon="6.14526">
        <ele>68</ele>
        <time>2010-01-01T00:04:10Z</time>
      </trkpt>
      <trkpt lat="43.2298" lon="6.14644">
        <ele>66</ele>
        <time>2010-01-01T00:04:56Z</time>
      </trkpt>
      <trkpt lat="43.23102" lon="6.14952">
        <ele>69</ele>
        <time>2010-01-01T00:06:39Z</time>
      </trkpt>
      <trkpt lat="43.2313" lon="6.14941">
        <ele>66</ele>
        <time>2010-01-01T00:06:50Z</time>
      </trkpt>
      <trkpt lat="43.23184" lon="6.14949">
        <ele>63</ele>
        <time>2010-01-01T00:07:12Z</time>
      </trkpt>
      <trkpt lat="43.23397" lon="6.14985">
        <ele>61</ele>
        <time>2010-01-01T00:08:38Z</time>
      </trkpt>
      <trkpt lat="43.23396" lon="6.14994">
        <ele>61</ele>
        <time>2010-01-01T00:08:41Z</time>
      </trkpt>
      <trkpt lat="43.23401" lon="6.15">
        <ele>61</ele>
        <time>2010-01-01T00:08:43Z</time>
      </trkpt>
      <trkpt lat="43.23407" lon="6.14999">
        <ele>61</ele>
        <time>2010-01-01T00:08:46Z</time>
      </trkpt>
      <trkpt lat="43.23411" lon="6.14989">
        <ele>61</ele>
        <time>2010-01-01T00:08:49Z</time>
      </trkpt>
      <trkpt lat="43.23644" lon="6.15034">
        <ele>60</ele>
        <time>2010-01-01T00:10:23Z</time>
      </trkpt>
      <trkpt lat="43.23669" lon="6.15027">
        <ele>60</ele>
        <time>2010-01-01T00:10:33Z</time>
      </trkpt>
      <trkpt lat="43.2371" lon="6.14972">
        <ele>60</ele>
        <time>2010-01-01T00:10:56Z</time>
      </trkpt>
      <trkpt lat="43.23732" lon="6.14965">
        <ele>60</ele>
        <time>2010-01-01T00:11:05Z</time>
      </trkpt>
      <trkpt lat="43.23824" lon="6.15018">
        <ele>61</ele>
        <time>2010-01-01T00:11:45Z</time>
      </trkpt>
      <trkpt lat="43.23878" lon="6.15036">
        <ele>61</ele>
        <time>2010-01-01T00:12:08Z</time>
      </trkpt>
      <trkpt lat="43.23873" lon="6.15053">
        <ele>61</ele>
        <time>2010-01-01T00:12:13Z</time>
      </trkpt>
      <trkpt lat="43.23873" lon="6.15088">
        <ele>61</ele>
        <time>2010-01-01T00:12:23Z</time>
      </trkpt>
      <trkpt lat="43.23885" lon="6.15159">
        <ele>61</ele>
        <time>2010-01-01T00:12:44Z</time>
      </trkpt>
      <trkpt lat="43.23909" lon="6.15241">
        <ele>61</ele>
        <time>2010-01-01T00:13:10Z</time>
      </trkpt>
      <trkpt lat="43.24004" lon="6.1542">
        <ele>62</ele>
        <time>2010-01-01T00:14:15Z</time>
      </trkpt>
      <trkpt lat="43.24062" lon="6.15497">
        <ele>63</ele>
        <time>2010-01-01T00:14:47Z</time>
      </trkpt>
      <trkpt lat="43.24089" lon="6.15568">
        <ele>63</ele>
        <time>2010-01-01T00:15:10Z</time>
      </trkpt>
      <trkpt lat="43.24104" lon="6.15582">
        <ele>64</ele>
        <time>2010-01-01T00:15:18Z</time>
      </trkpt>
      <trkpt lat="43.2421" lon="6.15605">
        <ele>66</ele>
        <time>2010-01-01T00:16:01Z</time>
      </trkpt>
      <trkpt lat="43.24229" lon="6.15623">
        <ele>67</ele>
        <time>2010-01-01T00:16:10Z</time>
      </trkpt>
      <trkpt lat="43.24344" lon="6.15799">
        <ele>74</ele>
        <time>2010-01-01T00:17:19Z</time>
      </trkpt>
      <trkpt lat="43.24402" lon="6.15907">
        <ele>79</ele>
        <time>2010-01-01T00:17:58Z</time>
      </trkpt>
      <trkpt lat="43.245" lon="6.16071">
        <ele>80</ele>
        <time>2010-01-01T00:19:00Z</time>
      </trkpt>
      <trkpt lat="43.24514" lon="6.1613">
        <ele>80</ele>
        <time>2010-01-01T00:19:18Z</time>
      </trkpt>
      <trkpt lat="43.2454" lon="6.16209">
        <ele>80</ele>
        <time>2010-01-01T00:19:43Z</time>
      </trkpt>
      <trkpt lat="43.24559" lon="6.16302">
        <ele>80</ele>
        <time>2010-01-01T00:20:11Z</time>
      </trkpt>
      <trkpt lat="43.24602" lon="6.1647">
        <ele>84</ele>
        <time>2010-01-01T00:21:03Z</time>
      </trkpt>
      <trkpt lat="43.24642" lon="6.16549">
        <ele>85</ele>
        <time>2010-01-01T00:21:31Z</time>
      </trkpt>
      <trkpt lat="43.24683" lon="6.16596">
        <ele>85</ele>
        <time>2010-01-01T00:21:53Z</time>
      </trkpt>
      <trkpt lat="43.24714" lon="6.16655">
        <ele>84</ele>
        <time>2010-01-01T00:22:14Z</time>
      </trkpt>
      <trkpt lat="43.24742" lon="6.16697">
        <ele>82</ele>
        <time>2010-01-01T00:22:31Z</time>
      </trkpt>
      <trkpt lat="43.24737" lon="6.16627">
        <ele>85</ele>
        <time>2010-01-01T00:22:51Z</time>
      </trkpt>
      <trkpt lat="43.24742" lon="6.16697">
        <ele>82</ele>
        <time>2010-01-01T00:23:12Z</time>
      </trkpt>
      <trkpt lat="43.24765" lon="6.16735">
        <ele>82</ele>
        <time>2010-01-01T00:23:26Z</time>
      </trkpt>
      <trkpt lat="43.24819" lon="6.16806">
        <ele>86</ele>
        <time>2010-01-01T00:23:56Z</time>
      </trkpt>
      <trkpt lat="43.24845" lon="6.16849">
        <ele>88</ele>
        <time>2010-01-01T00:24:12Z</time>
      </trkpt>
      <trkpt lat="43.24878" lon="6.16916">
        <ele>89</ele>
        <time>2010-01-01T00:24:36Z</time>
      </trkpt>
      <trkpt lat="43.24929" lon="6.16963">
        <ele>91</ele>
        <time>2010-01-01T00:25:00Z</time>
      </trkpt>
      <trkpt lat="43.25081" lon="6.17011">
        <ele>94</ele>
        <time>2010-01-01T00:26:03Z</time>
      </trkpt>
      <trkpt lat="43.25151" lon="6.17018">
        <ele>91</ele>
        <time>2010-01-01T00:26:31Z</time>
      </trkpt>
      <trkpt lat="43.25178" lon="6.17015">
        <ele>90</ele>
        <time>2010-01-01T00:26:42Z</time>
      </trkpt>
      <trkpt lat="43.2527" lon="6.16982">
        <ele>92</ele>
        <time>2010-01-01T00:27:20Z</time>
      </trkpt>
      <trkpt lat="43.25336" lon="6.1698">
        <ele>92</ele>
        <time>2010-01-01T00:27:46Z</time>
      </trkpt>
      <trkpt lat="43.25417" lon="6.17035">
        <ele>90</ele>
        <time>2010-01-01T00:28:22Z</time>
      </trkpt>
      <trkpt lat="43.25474" lon="6.17058">
        <ele>92</ele>
        <time>2010-01-01T00:28:46Z</time>
      </trkpt>
      <trkpt lat="43.25522" lon="6.171">
        <ele>93</ele>
        <time>2010-01-01T00:29:09Z</time>
      </trkpt>
      <trkpt lat="43.25598" lon="6.17142">
        <ele>96</ele>
        <time>2010-01-01T00:29:42Z</time>
      </trkpt>
      <trkpt lat="43.25661" lon="6.17201">
        <ele>99</ele>
        <time>2010-01-01T00:30:12Z</time>
      </trkpt>
      <trkpt lat="43.25726" lon="6.17251">
        <ele>101</ele>
        <time>2010-01-01T00:30:42Z</time>
      </trkpt>
      <trkpt lat="43.25816" lon="6.17308">
        <ele>102</ele>
        <time>2010-01-01T00:31:22Z</time>
      </trkpt>
      <trkpt lat="43.25848" lon="6.17337">
        <ele>101</ele>
        <time>2010-01-01T00:31:37Z</time>
      </trkpt>
      <trkpt lat="43.25905" lon="6.17368">
        <ele>104</ele>
        <time>2010-01-01T00:32:02Z</time>
      </trkpt>
      <trkpt lat="43.2594" lon="6.17408">
        <ele>102</ele>
        <time>2010-01-01T00:32:20Z</time>
      </trkpt>
      <trkpt lat="43.26022" lon="6.17551">
        <ele>101</ele>
        <time>2010-01-01T00:33:13Z</time>
      </trkpt>
      <trkpt lat="43.26106" lon="6.17749">
        <ele>102</ele>
        <time>2010-01-01T00:34:20Z</time>
      </trkpt>
      <trkpt lat="43.26193" lon="6.17913">
        <ele>100</ele>
        <time>2010-01-01T00:35:19Z</time>
      </trkpt>
      <trkpt lat="43.26216" lon="6.17931">
        <ele>100</ele>
        <time>2010-01-01T00:35:30Z</time>
      </trkpt>
      <trkpt lat="43.2625" lon="6.17944">
        <ele>100</ele>
        <time>2010-01-01T00:35:44Z</time>
      </trkpt>
      <trkpt lat="43.26294" lon="6.17942">
        <ele>101</ele>
        <time>2010-01-01T00:36:01Z</time>
      </trkpt>
      <trkpt lat="43.2631" lon="6.17962">
        <ele>101</ele>
        <time>2010-01-01T00:36:10Z</time>
      </trkpt>
      <trkpt lat="43.26358" lon="6.18055">
        <ele>103</ele>
        <time>2010-01-01T00:36:43Z</time>
      </trkpt>
      <trkpt lat="43.26372" lon="6.1807">
        <ele>104</ele>
        <time>2010-01-01T00:36:50Z</time>
      </trkpt>
      <trkpt lat="43.26424" lon="6.18108">
        <ele>108</ele>
        <time>2010-01-01T00:37:14Z</time>
      </trkpt>
      <trkpt lat="43.26439" lon="6.18128">
        <ele>108</ele>
        <time>2010-01-01T00:37:22Z</time>
      </trkpt>
      <trkpt lat="43.26448" lon="6.18155">
        <ele>108</ele>
        <time>2010-01-01T00:37:31Z</time>
      </trkpt>
      <trkpt lat="43.26479" lon="6.18318">
        <ele>103</ele>
        <time>2010-01-01T00:38:20Z</time>
      </trkpt>
      <trkpt lat="43.26489" lon="6.18339">
        <ele>102</ele>
        <time>2010-01-01T00:38:27Z</time>
      </trkpt>
      <trkpt lat="43.26497" lon="6.18343">
        <ele>103</ele>
        <time>2010-01-01T00:38:31Z</time>
      </trkpt>
      <trkpt lat="43.26523" lon="6.18342">
        <ele>103</ele>
        <time>2010-01-01T00:38:41Z</time>
      </trkpt>
      <trkpt lat="43.26552" lon="6.18334">
        <ele>104</ele>
        <time>2010-01-01T00:38:53Z</time>
      </trkpt>
      <trkpt lat="43.26624" lon="6.18283">
        <ele>110</ele>
        <time>2010-01-01T00:39:25Z</time>
      </trkpt>
      <trkpt lat="43.26648" lon="6.18273">
        <ele>113</ele>
        <time>2010-01-01T00:39:35Z</time>
      </trkpt>
      <trkpt lat="43.26682" lon="6.18272">
        <ele>114</ele>
        <time>2010-01-01T00:39:49Z</time>
      </trkpt>
      <trkpt lat="43.26739" lon="6.18292">
        <ele>113</ele>
        <time>2010-01-01T00:40:13Z</time>
      </trkpt>
      <trkpt lat="43.26799" lon="6.1833">
        <ele>109</ele>
        <time>2010-01-01T00:40:39Z</time>
      </trkpt>
      <trkpt lat="43.26844" lon="6.18392">
        <ele>104</ele>
        <time>2010-01-01T00:41:05Z</time>
      </trkpt>
      <trkpt lat="43.26864" lon="6.18411">
        <ele>103</ele>
        <time>2010-01-01T00:41:14Z</time>
      </trkpt>
      <trkpt lat="43.26905" lon="6.18431">
        <ele>104</ele>
        <time>2010-01-01T00:41:32Z</time>
      </trkpt>
      <trkpt lat="43.26919" lon="6.18444">
        <ele>104</ele>
        <time>2010-01-01T00:41:38Z</time>
      </trkpt>
      <trkpt lat="43.27012" lon="6.18558">
        <ele>108</ele>
        <time>2010-01-01T00:42:28Z</time>
      </trkpt>
      <trkpt lat="43.27142" lon="6.18695">
        <ele>109</ele>
        <time>2010-01-01T00:43:34Z</time>
      </trkpt>
      <trkpt lat="43.27183" lon="6.18753">
        <ele>110</ele>
        <time>2010-01-01T00:43:58Z</time>
      </trkpt>
      <trkpt lat="43.272" lon="6.1877">
        <ele>112</ele>
        <time>2010-01-01T00:44:06Z</time>
      </trkpt>
      <trkpt lat="43.27228" lon="6.18778">
        <ele>113</ele>
        <time>2010-01-01T00:44:17Z</time>
      </trkpt>
      <trkpt lat="43.27249" lon="6.18778">
        <ele>114</ele>
        <time>2010-01-01T00:44:26Z</time>
      </trkpt>
      <trkpt lat="43.27312" lon="6.18744">
        <ele>117</ele>
        <time>2010-01-01T00:44:53Z</time>
      </trkpt>
      <trkpt lat="43.27352" lon="6.18744">
        <ele>118</ele>
        <time>2010-01-01T00:45:09Z</time>
      </trkpt>
      <trkpt lat="43.27467" lon="6.18744">
        <ele>120</ele>
        <time>2010-01-01T00:45:55Z</time>
      </trkpt>
      <trkpt lat="43.2749" lon="6.18753">
        <ele>120</ele>
        <time>2010-01-01T00:46:05Z</time>
      </trkpt>
      <trkpt lat="43.27502" lon="6.18766">
        <ele>120</ele>
        <time>2010-01-01T00:46:11Z</time>
      </trkpt>
      <trkpt lat="43.27514" lon="6.1879">
        <ele>120</ele>
        <time>2010-01-01T00:46:19Z</time>
      </trkpt>
      <trkpt lat="43.27528" lon="6.18834">
        <ele>120</ele>
        <time>2010-01-01T00:46:33Z</time>
      </trkpt>
      <trkpt lat="43.27537" lon="6.18913">
        <ele>120</ele>
        <time>2010-01-01T00:46:56Z</time>
      </trkpt>
      <trkpt lat="43.27543" lon="6.1893">
        <ele>121</ele>
        <time>2010-01-01T00:47:02Z</time>
      </trkpt>
      <trkpt lat="43.27629" lon="6.19071">
        <ele>130</ele>
        <time>2010-01-01T00:47:56Z</time>
      </trkpt>
      <trkpt lat="43.27674" lon="6.19133">
        <ele>130</ele>
        <time>2010-01-01T00:48:21Z</time>
      </trkpt>
      <trkpt lat="43.27707" lon="6.1922">
        <ele>124</ele>
        <time>2010-01-01T00:48:50Z</time>
      </trkpt>
      <trkpt lat="43.27731" lon="6.1925">
        <ele>123</ele>
        <time>2010-01-01T00:49:03Z</time>
      </trkpt>
      <trkpt lat="43.2777" lon="6.19285">
        <ele>123</ele>
        <time>2010-01-01T00:49:21Z</time>
      </trkpt>
      <trkpt lat="43.27886" lon="6.19334">
        <ele>121</ele>
        <time>2010-01-01T00:50:10Z</time>
      </trkpt>
      <trkpt lat="43.27903" lon="6.19349">
        <ele>121</ele>
        <time>2010-01-01T00:50:18Z</time>
      </trkpt>
      <trkpt lat="43.27936" lon="6.19452">
        <ele>123</ele>
        <time>2010-01-01T00:50:51Z</time>
      </trkpt>
      <trkpt lat="43.2799" lon="6.19559">
        <ele>132</ele>
        <time>2010-01-01T00:51:29Z</time>
      </trkpt>
      <trkpt lat="43.28015" lon="6.1962">
        <ele>136</ele>
        <time>2010-01-01T00:51:49Z</time>
      </trkpt>
      <trkpt lat="43.28028" lon="6.19772">
        <ele>137</ele>
        <time>2010-01-01T00:52:34Z</time>
      </trkpt>
      <trkpt lat="43.28023" lon="6.19863">
        <ele>137</ele>
        <time>2010-01-01T00:53:00Z</time>
      </trkpt>
      <trkpt lat="43.28032" lon="6.19919">
        <ele>137</ele>
        <time>2010-01-01T00:53:17Z</time>
      </trkpt>
      <trkpt lat="43.28045" lon="6.19949">
        <ele>138</ele>
        <time>2010-01-01T00:53:27Z</time>
      </trkpt>
      <trkpt lat="43.28074" lon="6.19993">
        <ele>140</ele>
        <time>2010-01-01T00:53:44Z</time>
      </trkpt>
      <trkpt lat="43.28114" lon="6.20032">
        <ele>140</ele>
        <time>2010-01-01T00:54:04Z</time>
      </trkpt>
      <trkpt lat="43.28125" lon="6.20048">
        <ele>140</ele>
        <time>2010-01-01T00:54:11Z</time>
      </trkpt>
      <trkpt lat="43.2818" lon="6.20285">
        <ele>143</ele>
        <time>2010-01-01T00:55:23Z</time>
      </trkpt>
      <trkpt lat="43.28185" lon="6.20336">
        <ele>143</ele>
        <time>2010-01-01T00:55:38Z</time>
      </trkpt>
      <trkpt lat="43.28185" lon="6.20442">
        <ele>141</ele>
        <time>2010-01-01T00:56:09Z</time>
      </trkpt>
      <trkpt lat="43.28189" lon="6.20499">
        <ele>141</ele>
        <time>2010-01-01T00:56:26Z</time>
      </trkpt>
      <trkpt lat="43.28211" lon="6.20548">
        <ele>140</ele>
        <time>2010-01-01T00:56:42Z</time>
      </trkpt>
      <trkpt lat="43.28222" lon="6.20605">
        <ele>140</ele>
        <time>2010-01-01T00:57:00Z</time>
      </trkpt>
      <trkpt lat="43.2823" lon="6.20702">
        <ele>140</ele>
        <time>2010-01-01T00:57:28Z</time>
      </trkpt>
      <trkpt lat="43.28227" lon="6.20757">
        <ele>140</ele>
        <time>2010-01-01T00:57:44Z</time>
      </trkpt>
      <trkpt lat="43.2821" lon="6.20875">
        <ele>142</ele>
        <time>2010-01-01T00:58:19Z</time>
      </trkpt>
      <trkpt lat="43.28193" lon="6.20951">
        <ele>142</ele>
        <time>2010-01-01T00:58:42Z</time>
      </trkpt>
      <trkpt lat="43.28189" lon="6.20997">
        <ele>143</ele>
        <time>2010-01-01T00:58:56Z</time>
      </trkpt>
      <trkpt lat="43.28191" lon="6.21039">
        <ele>143</ele>
        <time>2010-01-01T00:59:08Z</time>
      </trkpt>
      <trkpt lat="43.28138" lon="6.211">
        <ele>140</ele>
        <time>2010-01-01T00:59:36Z</time>
      </trkpt>
      <trkpt lat="43.28126" lon="6.21136">
        <ele>140</ele>
        <time>2010-01-01T00:59:47Z</time>
      </trkpt>
      <trkpt lat="43.28126" lon="6.21156">
        <ele>140</ele>
        <time>2010-01-01T00:59:53Z</time>
      </trkpt>
      <trkpt lat="43.2815" lon="6.21251">
        <ele>143</ele>
        <time>2010-01-01T01:00:22Z</time>
      </trkpt>
      <trkpt lat="43.28215" lon="6.21368">
        <ele>145</ele>
        <time>2010-01-01T01:01:05Z</time>
      </trkpt>
      <trkpt lat="43.28231" lon="6.21374">
        <ele>146</ele>
        <time>2010-01-01T01:01:12Z</time>
      </trkpt>
      <trkpt lat="43.28268" lon="6.2137">
        <ele>152</ele>
        <time>2010-01-01T01:01:27Z</time>
      </trkpt>
      <trkpt lat="43.2829" lon="6.21373">
        <ele>157</ele>
        <time>2010-01-01T01:01:36Z</time>
      </trkpt>
      <trkpt lat="43.28415" lon="6.21443">
        <ele>178</ele>
        <time>2010-01-01T01:02:30Z</time>
      </trkpt>
      <trkpt lat="43.28432" lon="6.21459">
        <ele>177</ele>
        <time>2010-01-01T01:02:38Z</time>
      </trkpt>
      <trkpt lat="43.28473" lon="6.21521">
        <ele>171</ele>
        <time>2010-01-01T01:03:02Z</time>
      </trkpt>
      <trkpt lat="43.28544" lon="6.21576">
        <ele>169</ele>
        <time>2010-01-01T01:03:35Z</time>
      </trkpt>
      <trkpt lat="43.28583" lon="6.21593">
        <ele>171</ele>
        <time>2010-01-01T01:03:51Z</time>
      </trkpt>
      <trkpt lat="43.28601" lon="6.21607">
        <ele>170</ele>
        <time>2010-01-01T01:04:00Z</time>
      </trkpt>
      <trkpt lat="43.28645" lon="6.21676">
        <ele>162</ele>
        <time>2010-01-01T01:04:26Z</time>
      </trkpt>
      <trkpt lat="43.28663" lon="6.21694">
        <ele>161</ele>
        <time>2010-01-01T01:04:35Z</time>
      </trkpt>
      <trkpt lat="43.28678" lon="6.217">
        <ele>161</ele>
        <time>2010-01-01T01:04:42Z</time>
      </trkpt>
      <trkpt lat="43.28696" lon="6.21699">
        <ele>161</ele>
        <time>2010-01-01T01:04:49Z</time>
      </trkpt>
      <trkpt lat="43.28737" lon="6.21678">
        <ele>160</ele>
        <time>2010-01-01T01:05:06Z</time>
      </trkpt>
      <trkpt lat="43.28756" lon="6.21698">
        <ele>160</ele>
        <time>2010-01-01T01:05:16Z</time>
      </trkpt>
      <trkpt lat="43.28785" lon="6.21688">
        <ele>160</ele>
        <time>2010-01-01T01:05:28Z</time>
      </trkpt>
      <trkpt lat="43.28811" lon="6.21693">
        <ele>160</ele>
        <time>2010-01-01T01:05:38Z</time>
      </trkpt>
      <trkpt lat="43.28867" lon="6.21709">
        <ele>160</ele>
        <time>2010-01-01T01:06:01Z</time>
      </trkpt>
      <trkpt lat="43.29044" lon="6.21777">
        <ele>160</ele>
        <time>2010-01-01T01:07:15Z</time>
      </trkpt>
      <trkpt lat="43.29082" lon="6.21796">
        <ele>160</ele>
        <time>2010-01-01T01:07:31Z</time>
      </trkpt>
      <trkpt lat="43.29148" lon="6.21856">
        <ele>163</ele>
        <time>2010-01-01T01:08:03Z</time>
      </trkpt>
      <trkpt lat="43.29199" lon="6.21886">
        <ele>165</ele>
        <time>2010-01-01T01:08:25Z</time>
      </trkpt>
      <trkpt lat="43.29214" lon="6.21914">
        <ele>166</ele>
        <time>2010-01-01T01:08:35Z</time>
      </trkpt>
      <trkpt lat="43.29305" lon="6.22134">
        <ele>169</ele>
        <time>2010-01-01T01:09:49Z</time>
      </trkpt>
      <trkpt lat="43.29352" lon="6.22263">
        <ele>165</ele>
        <time>2010-01-01T01:10:31Z</time>
      </trkpt>
      <trkpt lat="43.29365" lon="6.22324">
        <ele>164</ele>
        <time>2010-01-01T01:10:49Z</time>
      </trkpt>
      <trkpt lat="43.29367" lon="6.22466">
        <ele>164</ele>
        <time>2010-01-01T01:11:31Z</time>
      </trkpt>
      <trkpt lat="43.29375" lon="6.2256">
        <ele>163</ele>
        <time>2010-01-01T01:11:58Z</time>
      </trkpt>
      <trkpt lat="43.2938" lon="6.22578">
        <ele>163</ele>
        <time>2010-01-01T01:12:04Z</time>
      </trkpt>
      <trkpt lat="43.29409" lon="6.22613">
        <ele>163</ele>
        <time>2010-01-01T01:12:19Z</time>
      </trkpt>
      <trkpt lat="43.29438" lon="6.22637">
        <ele>164</ele>
        <time>2010-01-01T01:12:33Z</time>
      </trkpt>
      <trkpt lat="43.29465" lon="6.22652">
        <ele>164</ele>
        <time>2010-01-01T01:12:45Z</time>
      </trkpt>
      <trkpt lat="43.29481" lon="6.22648">
        <ele>165</ele>
        <time>2010-01-01T01:12:51Z</time>
      </trkpt>
      <trkpt lat="43.2951" lon="6.22606">
        <ele>166</ele>
        <time>2010-01-01T01:13:08Z</time>
      </trkpt>
      <trkpt lat="43.29565" lon="6.22589">
        <ele>167</ele>
        <time>2010-01-01T01:13:30Z</time>
      </trkpt>
      <trkpt lat="43.29594" lon="6.22588">
        <ele>167</ele>
        <time>2010-01-01T01:13:42Z</time>
      </trkpt>
      <trkpt lat="43.29623" lon="6.226">
        <ele>168</ele>
        <time>2010-01-01T01:13:54Z</time>
      </trkpt>
      <trkpt lat="43.29638" lon="6.226">
        <ele>168</ele>
        <time>2010-01-01T01:14:00Z</time>
      </trkpt>
      <trkpt lat="43.29676" lon="6.22581">
        <ele>169</ele>
        <time>2010-01-01T01:14:16Z</time>
      </trkpt>
      <trkpt lat="43.29765" lon="6.22609">
        <ele>171</ele>
        <time>2010-01-01T01:14:53Z</time>
      </trkpt>
      <trkpt lat="43.29802" lon="6.22609">
        <ele>172</ele>
        <time>2010-01-01T01:15:08Z</time>
      </trkpt>
      <trkpt lat="43.29854" lon="6.22659">
        <ele>173</ele>
        <time>2010-01-01T01:15:33Z</time>
      </trkpt>
      <trkpt lat="43.29866" lon="6.22682">
        <ele>173</ele>
        <time>2010-01-01T01:15:41Z</time>
      </trkpt>
      <trkpt lat="43.29874" lon="6.22712">
        <ele>173</ele>
        <time>2010-01-01T01:15:51Z</time>
      </trkpt>
      <trkpt lat="43.29888" lon="6.22853">
        <ele>172</ele>
        <time>2010-01-01T01:16:32Z</time>
      </trkpt>
      <trkpt lat="43.29874" lon="6.22861">
        <ele>172</ele>
        <time>2010-01-01T01:16:38Z</time>
      </trkpt>
      <trkpt lat="43.29825" lon="6.22869">
        <ele>170</ele>
        <time>2010-01-01T01:16:58Z</time>
      </trkpt>
      <trkpt lat="43.29756" lon="6.22898">
        <ele>168</ele>
        <time>2010-01-01T01:17:27Z</time>
      </trkpt>
      <trkpt lat="43.2962" lon="6.23011">
        <ele>165</ele>
        <time>2010-01-01T01:18:30Z</time>
      </trkpt>
      <trkpt lat="43.29557" lon="6.23054">
        <ele>164</ele>
        <time>2010-01-01T01:18:59Z</time>
      </trkpt>
      <trkpt lat="43.29511" lon="6.23168">
        <ele>161</ele>
        <time>2010-01-01T01:19:37Z</time>
      </trkpt>
      <trkpt lat="43.29455" lon="6.2329">
        <ele>160</ele>
        <time>2010-01-01T01:20:19Z</time>
      </trkpt>
      <trkpt lat="43.29444" lon="6.23348">
        <ele>160</ele>
        <time>2010-01-01T01:20:36Z</time>
      </trkpt>
      <trkpt lat="43.29456" lon="6.23409">
        <ele>160</ele>
        <time>2010-01-01T01:20:55Z</time>
      </trkpt>
      <trkpt lat="43.29476" lon="6.23465">
        <ele>161</ele>
        <time>2010-01-01T01:21:13Z</time>
      </trkpt>
      <trkpt lat="43.29501" lon="6.23586">
        <ele>162</ele>
        <time>2010-01-01T01:21:49Z</time>
      </trkpt>
      <trkpt lat="43.29509" lon="6.23649">
        <ele>164</ele>
        <time>2010-01-01T01:22:08Z</time>
      </trkpt>
      <trkpt lat="43.29506" lon="6.237">
        <ele>165</ele>
        <time>2010-01-01T01:22:23Z</time>
      </trkpt>
      <trkpt lat="43.29489" lon="6.23829">
        <ele>166</ele>
        <time>2010-01-01T01:23:01Z</time>
      </trkpt>
      <trkpt lat="43.29479" lon="6.23963">
        <ele>168</ele>
        <time>2010-01-01T01:23:40Z</time>
      </trkpt>
      <trkpt lat="43.29519" lon="6.2409">
        <ele>172</ele>
        <time>2010-01-01T01:24:21Z</time>
      </trkpt>
      <trkpt lat="43.29543" lon="6.24305">
        <ele>176</ele>
        <time>2010-01-01T01:25:24Z</time>
      </trkpt>
      <trkpt lat="43.29544" lon="6.24327">
        <ele>175</ele>
        <time>2010-01-01T01:25:30Z</time>
      </trkpt>
      <trkpt lat="43.29536" lon="6.24396">
        <ele>175</ele>
        <time>2010-01-01T01:25:51Z</time>
      </trkpt>
      <trkpt lat="43.29542" lon="6.24518">
        <ele>176</ele>
        <time>2010-01-01T01:26:26Z</time>
      </trkpt>
      <trkpt lat="43.29516" lon="6.2464">
        <ele>178</ele>
        <time>2010-01-01T01:27:03Z</time>
      </trkpt>
      <trkpt lat="43.29508" lon="6.24707">
        <ele>179</ele>
        <time>2010-01-01T01:27:23Z</time>
      </trkpt>
      <trkpt lat="43.29439" lon="6.24771">
        <ele>180</ele>
        <time>2010-01-01T01:27:57Z</time>
      </trkpt>
      <trkpt lat="43.29365" lon="6.24876">
        <ele>186</ele>
        <time>2010-01-01T01:28:39Z</time>
      </trkpt>
      <trkpt lat="43.29321" lon="6.2496">
        <ele>188</ele>
        <time>2010-01-01T01:29:09Z</time>
      </trkpt>
      <trkpt lat="43.29289" lon="6.24998">
        <ele>190</ele>
        <time>2010-01-01T01:29:26Z</time>
      </trkpt>
      <trkpt lat="43.29212" lon="6.25064">
        <ele>195</ele>
        <time>2010-01-01T01:30:03Z</time>
      </trkpt>
      <trkpt lat="43.29149" lon="6.2513">
        <ele>198</ele>
        <time>2010-01-01T01:30:34Z</time>
      </trkpt>
      <trkpt lat="43.29131" lon="6.25176">
        <ele>198</ele>
        <time>2010-01-01T01:30:49Z</time>
      </trkpt>
      <trkpt lat="43.29111" lon="6.25268">
        <ele>199</ele>
        <time>2010-01-01T01:31:17Z</time>
      </trkpt>
      <trkpt lat="43.29097" lon="6.25297">
        <ele>199</ele>
        <time>2010-01-01T01:31:28Z</time>
      </trkpt>
      <trkpt lat="43.29058" lon="6.25366">
        <ele>199</ele>
        <time>2010-01-01T01:31:53Z</time>
      </trkpt>
      <trkpt lat="43.29005" lon="6.25419">
        <ele>199</ele>
        <time>2010-01-01T01:32:19Z</time>
      </trkpt>
      <trkpt lat="43.28962" lon="6.25503">
        <ele>203</ele>
        <time>2010-01-01T01:32:49Z</time>
      </trkpt>
      <trkpt lat="43.28932" lon="6.25542">
        <ele>207</ele>
        <time>2010-01-01T01:33:06Z</time>
      </trkpt>
      <trkpt lat="43.28897" lon="6.25586">
        <ele>208</ele>
        <time>2010-01-01T01:33:25Z</time>
      </trkpt>
      <trkpt lat="43.28872" lon="6.25629">
        <ele>214</ele>
        <time>2010-01-01T01:33:41Z</time>
      </trkpt>
      <trkpt lat="43.28837" lon="6.25671">
        <ele>216</ele>
        <time>2010-01-01T01:33:59Z</time>
      </trkpt>
      <trkpt lat="43.28821" lon="6.25725">
        <ele>225</ele>
        <time>2010-01-01T01:34:16Z</time>
      </trkpt>
      <trkpt lat="43.28781" lon="6.25746">
        <ele>224</ele>
        <time>2010-01-01T01:34:34Z</time>
      </trkpt>
      <trkpt lat="43.28736" lon="6.25797">
        <ele>227</ele>
        <time>2010-01-01T01:34:57Z</time>
      </trkpt>
      <trkpt lat="43.28706" lon="6.25866">
        <ele>233</ele>
        <time>2010-01-01T01:35:20Z</time>
      </trkpt>
      <trkpt lat="43.28697" lon="6.25868">
        <ele>232</ele>
        <time>2010-01-01T01:35:24Z</time>
      </trkpt>
      <trkpt lat="43.28676" lon="6.25857">
        <ele>226</ele>
        <time>2010-01-01T01:35:33Z</time>
      </trkpt>
      <trkpt lat="43.28664" lon="6.25858">
        <ele>224</ele>
        <time>2010-01-01T01:35:38Z</time>
      </trkpt>
      <trkpt lat="43.28637" lon="6.25884">
        <ele>226</ele>
        <time>2010-01-01T01:35:51Z</time>
      </trkpt>
      <trkpt lat="43.28612" lon="6.25894">
        <ele>225</ele>
        <time>2010-01-01T01:36:01Z</time>
      </trkpt>
      <trkpt lat="43.28586" lon="6.25928">
        <ele>225</ele>
        <time>2010-01-01T01:36:16Z</time>
      </trkpt>
      <trkpt lat="43.2857" lon="6.25968">
        <ele>229</ele>
        <time>2010-01-01T01:36:29Z</time>
      </trkpt>
      <trkpt lat="43.2855" lon="6.25986">
        <ele>229</ele>
        <time>2010-01-01T01:36:39Z</time>
      </trkpt>
      <trkpt lat="43.2854" lon="6.2602">
        <ele>232</ele>
        <time>2010-01-01T01:36:49Z</time>
      </trkpt>
      <trkpt lat="43.28542" lon="6.26085">
        <ele>241</ele>
        <time>2010-01-01T01:37:08Z</time>
      </trkpt>
      <trkpt lat="43.28568" lon="6.26214">
        <ele>260</ele>
        <time>2010-01-01T01:37:47Z</time>
      </trkpt>
      <trkpt lat="43.28569" lon="6.26238">
        <ele>263</ele>
        <time>2010-01-01T01:37:54Z</time>
      </trkpt>
      <trkpt lat="43.28558" lon="6.26351">
        <ele>271</ele>
        <time>2010-01-01T01:38:27Z</time>
      </trkpt>
      <trkpt lat="43.28529" lon="6.26379">
        <ele>269</ele>
        <time>2010-01-01T01:38:42Z</time>
      </trkpt>
      <trkpt lat="43.28441" lon="6.26497">
        <ele>284</ele>
        <time>2010-01-01T01:39:31Z</time>
      </trkpt>
      <trkpt lat="43.2841" lon="6.26531">
        <ele>286</ele>
        <time>2010-01-01T01:39:47Z</time>
      </trkpt>
      <trkpt lat="43.2836" lon="6.2661">
        <ele>290</ele>
        <time>2010-01-01T01:40:17Z</time>
      </trkpt>
      <trkpt lat="43.28344" lon="6.26652">
        <ele>293</ele>
        <time>2010-01-01T01:40:31Z</time>
      </trkpt>
      <trkpt lat="43.28321" lon="6.26657">
        <ele>292</ele>
        <time>2010-01-01T01:40:40Z</time>
      </trkpt>
      <trkpt lat="43.283" lon="6.26673">
        <ele>295</ele>
        <time>2010-01-01T01:40:50Z</time>
      </trkpt>
      <trkpt lat="43.2822" lon="6.26749">
        <ele>303</ele>
        <time>2010-01-01T01:41:29Z</time>
      </trkpt>
      <trkpt lat="43.28195" lon="6.26784">
        <ele>309</ele>
        <time>2010-01-01T01:41:43Z</time>
      </trkpt>
      <trkpt lat="43.28168" lon="6.26836">
        <ele>313</ele>
        <time>2010-01-01T01:42:02Z</time>
      </trkpt>
      <trkpt lat="43.28144" lon="6.26862">
        <ele>321</ele>
        <time>2010-01-01T01:42:14Z</time>
      </trkpt>
      <trkpt lat="43.28108" lon="6.26919">
        <ele>329</ele>
        <time>2010-01-01T01:42:36Z</time>
      </trkpt>
      <trkpt lat="43.28098" lon="6.26928">
        <ele>330</ele>
        <time>2010-01-01T01:42:41Z</time>
      </trkpt>
      <trkpt lat="43.28092" lon="6.26926">
        <ele>330</ele>
        <time>2010-01-01T01:42:43Z</time>
      </trkpt>
      <trkpt lat="43.28088" lon="6.26913">
        <ele>329</ele>
        <time>2010-01-01T01:42:47Z</time>
      </trkpt>
      <trkpt lat="43.28091" lon="6.26874">
        <ele>329</ele>
        <time>2010-01-01T01:42:59Z</time>
      </trkpt>
      <trkpt lat="43.28124" lon="6.26696">
        <ele>324</ele>
        <time>2010-01-01T01:43:52Z</time>
      </trkpt>
      <trkpt lat="43.2815" lon="6.26616">
        <ele>320</ele>
        <time>2010-01-01T01:44:18Z</time>
      </trkpt>
      <trkpt lat="43.28149" lon="6.26602">
        <ele>320</ele>
        <time>2010-01-01T01:44:22Z</time>
      </trkpt>
      <trkpt lat="43.28138" lon="6.26603">
        <ele>321</ele>
        <time>2010-01-01T01:44:26Z</time>
      </trkpt>
      <trkpt lat="43.28066" lon="6.26638">
        <ele>331</ele>
        <time>2010-01-01T01:44:57Z</time>
      </trkpt>
      <trkpt lat="43.28026" lon="6.26675">
        <ele>337</ele>
        <time>2010-01-01T01:45:16Z</time>
      </trkpt>
      <trkpt lat="43.27983" lon="6.26699">
        <ele>339</ele>
        <time>2010-01-01T01:45:35Z</time>
      </trkpt>
      <trkpt lat="43.27947" lon="6.26743">
        <ele>348</ele>
        <time>2010-01-01T01:45:54Z</time>
      </trkpt>
      <trkpt lat="43.27933" lon="6.26753">
        <ele>350</ele>
        <time>2010-01-01T01:46:01Z</time>
      </trkpt>
      <trkpt lat="43.27931" lon="6.26762">
        <ele>352</ele>
        <time>2010-01-01T01:46:03Z</time>
      </trkpt>
      <trkpt lat="43.27937" lon="6.26766">
        <ele>353</ele>
        <time>2010-01-01T01:46:06Z</time>
      </trkpt>
      <trkpt lat="43.27965" lon="6.26734">
        <ele>345</ele>
        <time>2010-01-01T01:46:21Z</time>
      </trkpt>
      <trkpt lat="43.27986" lon="6.26721">
        <ele>343</ele>
        <time>2010-01-01T01:46:30Z</time>
      </trkpt>
      <trkpt lat="43.28032" lon="6.26721">
        <ele>341</ele>
        <time>2010-01-01T01:46:48Z</time>
      </trkpt>
      <trkpt lat="43.28041" lon="6.2673">
        <ele>340</ele>
        <time>2010-01-01T01:46:53Z</time>
      </trkpt>
      <trkpt lat="43.28038" lon="6.26754">
        <ele>342</ele>
        <time>2010-01-01T01:47:00Z</time>
      </trkpt>
      <trkpt lat="43.28028" lon="6.26784">
        <ele>345</ele>
        <time>2010-01-01T01:47:09Z</time>
      </trkpt>
      <trkpt lat="43.28002" lon="6.26837">
        <ele>356</ele>
        <time>2010-01-01T01:47:28Z</time>
      </trkpt>
      <trkpt lat="43.27944" lon="6.269">
        <ele>374</ele>
        <time>2010-01-01T01:47:58Z</time>
      </trkpt>
      <trkpt lat="43.27941" lon="6.26924">
        <ele>377</ele>
        <time>2010-01-01T01:48:05Z</time>
      </trkpt>
      <trkpt lat="43.27947" lon="6.26955">
        <ele>377</ele>
        <time>2010-01-01T01:48:14Z</time>
      </trkpt>
      <trkpt lat="43.27946" lon="6.26974">
        <ele>378</ele>
        <time>2010-01-01T01:48:20Z</time>
      </trkpt>
      <trkpt lat="43.27934" lon="6.27007">
        <ele>383</ele>
        <time>2010-01-01T01:48:30Z</time>
      </trkpt>
      <trkpt lat="43.2791" lon="6.27031">
        <ele>391</ele>
        <time>2010-01-01T01:48:42Z</time>
      </trkpt>
      <trkpt lat="43.27903" lon="6.27051">
        <ele>393</ele>
        <time>2010-01-01T01:48:49Z</time>
      </trkpt>
      <trkpt lat="43.27909" lon="6.27078">
        <ele>390</ele>
        <time>2010-01-01T01:48:57Z</time>
      </trkpt>
      <trkpt lat="43.27909" lon="6.27098">
        <ele>390</ele>
        <time>2010-01-01T01:49:03Z</time>
      </trkpt>
      <trkpt lat="43.27894" lon="6.27168">
        <ele>392</ele>
        <time>2010-01-01T01:49:24Z</time>
      </trkpt>
      <trkpt lat="43.27861" lon="6.2727">
        <ele>400</ele>
        <time>2010-01-01T01:49:56Z</time>
      </trkpt>
      <trkpt lat="43.27857" lon="6.27305">
        <ele>402</ele>
        <time>2010-01-01T01:50:07Z</time>
      </trkpt>
      <trkpt lat="43.27858" lon="6.27363">
        <ele>409</ele>
        <time>2010-01-01T01:50:24Z</time>
      </trkpt>
      <trkpt lat="43.27867" lon="6.27378">
        <ele>411</ele>
        <time>2010-01-01T01:50:29Z</time>
      </trkpt>
      <trkpt lat="43.2788" lon="6.2738">
        <ele>411</ele>
        <time>2010-01-01T01:50:35Z</time>
      </trkpt>
      <trkpt lat="43.27916" lon="6.27351">
        <ele>400</ele>
        <time>2010-01-01T01:50:51Z</time>
      </trkpt>
      <trkpt lat="43.27981" lon="6.2732">
        <ele>399</ele>
        <time>2010-01-01T01:51:19Z</time>
      </trkpt>
      <trkpt lat="43.28021" lon="6.27301">
        <ele>396</ele>
        <time>2010-01-01T01:51:36Z</time>
      </trkpt>
      <trkpt lat="43.28058" lon="6.27303">
        <ele>398</ele>
        <time>2010-01-01T01:51:51Z</time>
      </trkpt>
      <trkpt lat="43.2809" lon="6.27325">
        <ele>408</ele>
        <time>2010-01-01T01:52:05Z</time>
      </trkpt>
      <trkpt lat="43.28116" lon="6.27333">
        <ele>416</ele>
        <time>2010-01-01T01:52:16Z</time>
      </trkpt>
      <trkpt lat="43.28145" lon="6.27369">
        <ele>437</ele>
        <time>2010-01-01T01:52:31Z</time>
      </trkpt>
      <trkpt lat="43.28157" lon="6.27373">
        <ele>440</ele>
        <time>2010-01-01T01:52:36Z</time>
      </trkpt>
      <trkpt lat="43.28189" lon="6.27358">
        <ele>438</ele>
        <time>2010-01-01T01:52:50Z</time>
      </trkpt>
      <trkpt lat="43.2823" lon="6.27319">
        <ele>435</ele>
        <time>2010-01-01T01:53:10Z</time>
      </trkpt>
      <trkpt lat="43.28235" lon="6.27322">
        <ele>436</ele>
        <time>2010-01-01T01:53:12Z</time>
      </trkpt>
      <trkpt lat="43.28237" lon="6.2734">
        <ele>438</ele>
        <time>2010-01-01T01:53:17Z</time>
      </trkpt>
      <trkpt lat="43.28229" lon="6.27374">
        <ele>442</ele>
        <time>2010-01-01T01:53:28Z</time>
      </trkpt>
      <trkpt lat="43.28228" lon="6.27405">
        <ele>447</ele>
        <time>2010-01-01T01:53:37Z</time>
      </trkpt>
      <trkpt lat="43.28235" lon="6.27428">
        <ele>450</ele>
        <time>2010-01-01T01:53:44Z</time>
      </trkpt>
      <trkpt lat="43.28245" lon="6.27437">
        <ele>451</ele>
        <time>2010-01-01T01:53:49Z</time>
      </trkpt>
      <trkpt lat="43.28279" lon="6.2745">
        <ele>444</ele>
        <time>2010-01-01T01:54:03Z</time>
      </trkpt>
      <trkpt lat="43.28307" lon="6.2747">
        <ele>441</ele>
        <time>2010-01-01T01:54:15Z</time>
      </trkpt>
      <trkpt lat="43.28344" lon="6.275">
        <ele>439</ele>
        <time>2010-01-01T01:54:33Z</time>
      </trkpt>
      <trkpt lat="43.28353" lon="6.27514">
        <ele>437</ele>
        <time>2010-01-01T01:54:38Z</time>
      </trkpt>
      <trkpt lat="43.28348" lon="6.27545">
        <ele>439</ele>
        <time>2010-01-01T01:54:47Z</time>
      </trkpt>
      <trkpt lat="43.28306" lon="6.27634">
        <ele>454</ele>
        <time>2010-01-01T01:55:18Z</time>
      </trkpt>
      <trkpt lat="43.28303" lon="6.27656">
        <ele>454</ele>
        <time>2010-01-01T01:55:25Z</time>
      </trkpt>
      <trkpt lat="43.28309" lon="6.27717">
        <ele>447</ele>
        <time>2010-01-01T01:55:43Z</time>
      </trkpt>
      <trkpt lat="43.28305" lon="6.2772">
        <ele>448</ele>
        <time>2010-01-01T01:55:45Z</time>
      </trkpt>
      <trkpt lat="43.28299" lon="6.27715">
        <ele>452</ele>
        <time>2010-01-01T01:55:47Z</time>
      </trkpt>
      <trkpt lat="43.28293" lon="6.27647">
        <ele>459</ele>
        <time>2010-01-01T01:56:07Z</time>
      </trkpt>
      <trkpt lat="43.28302" lon="6.27567">
        <ele>456</ele>
        <time>2010-01-01T01:56:31Z</time>
      </trkpt>
      <trkpt lat="43.28293" lon="6.27545">
        <ele>457</ele>
        <time>2010-01-01T01:56:38Z</time>
      </trkpt>
      <trkpt lat="43.2828" lon="6.27535">
        <ele>460</ele>
        <time>2010-01-01T01:56:44Z</time>
      </trkpt>
      <trkpt lat="43.28267" lon="6.27532">
        <ele>464</ele>
        <time>2010-01-01T01:56:50Z</time>
      </trkpt>
      <trkpt lat="43.28209" lon="6.27538">
        <ele>480</ele>
        <time>2010-01-01T01:57:13Z</time>
      </trkpt>
      <trkpt lat="43.28196" lon="6.27534">
        <ele>482</ele>
        <time>2010-01-01T01:57:18Z</time>
      </trkpt>
      <trkpt lat="43.28161" lon="6.27509">
        <ele>484</ele>
        <time>2010-01-01T01:57:34Z</time>
      </trkpt>
      <trkpt lat="43.28104" lon="6.27497">
        <ele>484</ele>
        <time>2010-01-01T01:57:57Z</time>
      </trkpt>
      <trkpt lat="43.2804" lon="6.27492">
        <ele>479</ele>
        <time>2010-01-01T01:58:23Z</time>
      </trkpt>
      <trkpt lat="43.28021" lon="6.27497">
        <ele>479</ele>
        <time>2010-01-01T01:58:30Z</time>
      </trkpt>
      <trkpt lat="43.27995" lon="6.2752">
        <ele>484</ele>
        <time>2010-01-01T01:58:43Z</time>
      </trkpt>
      <trkpt lat="43.27985" lon="6.27544">
        <ele>491</ele>
        <time>2010-01-01T01:58:51Z</time>
      </trkpt>
      <trkpt lat="43.2797" lon="6.27614">
        <ele>511</ele>
        <time>2010-01-01T01:59:12Z</time>
      </trkpt>
      <trkpt lat="43.27958" lon="6.27637">
        <ele>514</ele>
        <time>2010-01-01T01:59:20Z</time>
      </trkpt>
      <trkpt lat="43.27929" lon="6.27668">
        <ele>515</ele>
        <time>2010-01-01T01:59:35Z</time>
      </trkpt>
      <trkpt lat="43.27893" lon="6.27724">
        <ele>516</ele>
        <time>2010-01-01T01:59:57Z</time>
      </trkpt>
      <trkpt lat="43.27838" lon="6.27794">
        <ele>513</ele>
        <time>2010-01-01T02:00:27Z</time>
      </trkpt>
      <trkpt lat="43.27823" lon="6.27795">
        <ele>513</ele>
        <time>2010-01-01T02:00:33Z</time>
      </trkpt>
      <trkpt lat="43.27808" lon="6.2778">
        <ele>512</ele>
        <time>2010-01-01T02:00:40Z</time>
      </trkpt>
      <trkpt lat="43.2779" lon="6.27715">
        <ele>503</ele>
        <time>2010-01-01T02:01:01Z</time>
      </trkpt>
      <trkpt lat="43.27779" lon="6.27695">
        <ele>502</ele>
        <time>2010-01-01T02:01:08Z</time>
      </trkpt>
      <trkpt lat="43.27698" lon="6.27616">
        <ele>512</ele>
        <time>2010-01-01T02:01:48Z</time>
      </trkpt>
      <trkpt lat="43.27647" lon="6.27529">
        <ele>512</ele>
        <time>2010-01-01T02:02:20Z</time>
      </trkpt>
      <trkpt lat="43.27606" lon="6.27435">
        <ele>517</ele>
        <time>2010-01-01T02:02:52Z</time>
      </trkpt>
      <trkpt lat="43.27595" lon="6.27427">
        <ele>520</ele>
        <time>2010-01-01T02:02:57Z</time>
      </trkpt>
      <trkpt lat="43.27589" lon="6.27438">
        <ele>523</ele>
        <time>2010-01-01T02:03:01Z</time>
      </trkpt>
      <trkpt lat="43.2759" lon="6.27448">
        <ele>524</ele>
        <time>2010-01-01T02:03:04Z</time>
      </trkpt>
      <trkpt lat="43.2761" lon="6.2748">
        <ele>519</ele>
        <time>2010-01-01T02:03:16Z</time>
      </trkpt>
      <trkpt lat="43.27661" lon="6.27622">
        <ele>526</ele>
        <time>2010-01-01T02:04:03Z</time>
      </trkpt>
      <trkpt lat="43.27718" lon="6.27747">
        <ele>528</ele>
        <time>2010-01-01T02:04:45Z</time>
      </trkpt>
      <trkpt lat="43.27759" lon="6.27865">
        <ele>537</ele>
        <time>2010-01-01T02:05:24Z</time>
      </trkpt>
      <trkpt lat="43.27794" lon="6.27881">
        <ele>539</ele>
        <time>2010-01-01T02:05:38Z</time>
      </trkpt>
      <trkpt lat="43.27818" lon="6.27909">
        <ele>545</ele>
        <time>2010-01-01T02:05:51Z</time>
      </trkpt>
      <trkpt lat="43.27847" lon="6.27906">
        <ele>547</ele>
        <time>2010-01-01T02:06:03Z</time>
      </trkpt>
      <trkpt lat="43.27895" lon="6.27878">
        <ele>551</ele>
        <time>2010-01-01T02:06:23Z</time>
      </trkpt>
      <trkpt lat="43.27997" lon="6.2779">
        <ele>549</ele>
        <time>2010-01-01T02:07:12Z</time>
      </trkpt>
      <trkpt lat="43.28017" lon="6.27782">
        <ele>547</ele>
        <time>2010-01-01T02:07:20Z</time>
      </trkpt>
      <trkpt lat="43.2803" lon="6.27788">
        <ele>545</ele>
        <time>2010-01-01T02:07:26Z</time>
      </trkpt>
      <trkpt lat="43.28032" lon="6.27802">
        <ele>546</ele>
        <time>2010-01-01T02:07:30Z</time>
      </trkpt>
      <trkpt lat="43.28023" lon="6.27846">
        <ele>549</ele>
        <time>2010-01-01T02:07:43Z</time>
      </trkpt>
      <trkpt lat="43.27987" lon="6.27966">
        <ele>562</ele>
        <time>2010-01-01T02:08:21Z</time>
      </trkpt>
      <trkpt lat="43.27967" lon="6.28068">
        <ele>569</ele>
        <time>2010-01-01T02:08:52Z</time>
      </trkpt>
      <trkpt lat="43.2792" lon="6.28199">
        <ele>593</ele>
        <time>2010-01-01T02:09:34Z</time>
      </trkpt>
      <trkpt lat="43.2791" lon="6.28322">
        <ele>590</ele>
        <time>2010-01-01T02:10:10Z</time>
      </trkpt>
      <trkpt lat="43.27908" lon="6.28388">
        <ele>595</ele>
        <time>2010-01-01T02:10:29Z</time>
      </trkpt>
      <trkpt lat="43.27912" lon="6.28411">
        <ele>595</ele>
        <time>2010-01-01T02:10:36Z</time>
      </trkpt>
      <trkpt lat="43.27921" lon="6.28424">
        <ele>596</ele>
        <time>2010-01-01T02:10:42Z</time>
      </trkpt>
      <trkpt lat="43.27934" lon="6.28431">
        <ele>596</ele>
        <time>2010-01-01T02:10:47Z</time>
      </trkpt>
      <trkpt lat="43.27952" lon="6.28432">
        <ele>594</ele>
        <time>2010-01-01T02:10:54Z</time>
      </trkpt>
      <trkpt lat="43.28009" lon="6.28452">
        <ele>593</ele>
        <time>2010-01-01T02:11:18Z</time>
      </trkpt>
      <trkpt lat="43.28066" lon="6.28454">
        <ele>586</ele>
        <time>2010-01-01T02:11:41Z</time>
      </trkpt>
      <trkpt lat="43.28116" lon="6.28467">
        <ele>576</ele>
        <time>2010-01-01T02:12:01Z</time>
      </trkpt>
      <trkpt lat="43.28136" lon="6.2849">
        <ele>576</ele>
        <time>2010-01-01T02:12:12Z</time>
      </trkpt>
      <trkpt lat="43.28143" lon="6.28509">
        <ele>578</ele>
        <time>2010-01-01T02:12:18Z</time>
      </trkpt>
      <trkpt lat="43.28145" lon="6.28536">
        <ele>583</ele>
        <time>2010-01-01T02:12:26Z</time>
      </trkpt>
      <trkpt lat="43.28138" lon="6.28631">
        <ele>603</ele>
        <time>2010-01-01T02:12:54Z</time>
      </trkpt>
      <trkpt lat="43.28145" lon="6.28662">
        <ele>605</ele>
        <time>2010-01-01T02:13:03Z</time>
      </trkpt>
      <trkpt lat="43.28168" lon="6.28733">
        <ele>613</ele>
        <time>2010-01-01T02:13:26Z</time>
      </trkpt>
      <trkpt lat="43.28189" lon="6.28775">
        <ele>624</ele>
        <time>2010-01-01T02:13:40Z</time>
      </trkpt>
      <trkpt lat="43.28198" lon="6.28789">
        <ele>629</ele>
        <time>2010-01-01T02:13:46Z</time>
      </trkpt>
      <trkpt lat="43.28209" lon="6.28796">
        <ele>630</ele>
        <time>2010-01-01T02:13:51Z</time>
      </trkpt>
      <trkpt lat="43.28296" lon="6.28803">
        <ele>620</ele>
        <time>2010-01-01T02:14:26Z</time>
      </trkpt>
      <trkpt lat="43.2833" lon="6.28819">
        <ele>618</ele>
        <time>2010-01-01T02:14:40Z</time>
      </trkpt>
      <trkpt lat="43.28353" lon="6.28843">
        <ele>615</ele>
        <time>2010-01-01T02:14:52Z</time>
      </trkpt>
      <trkpt lat="43.28367" lon="6.28886">
        <ele>612</ele>
        <time>2010-01-01T02:15:05Z</time>
      </trkpt>
      <trkpt lat="43.28363" lon="6.2895">
        <ele>617</ele>
        <time>2010-01-01T02:15:24Z</time>
      </trkpt>
      <trkpt lat="43.28332" lon="6.29066">
        <ele>642</ele>
        <time>2010-01-01T02:16:00Z</time>
      </trkpt>
      <trkpt lat="43.28325" lon="6.29109">
        <ele>651</ele>
        <time>2010-01-01T02:16:13Z</time>
      </trkpt>
      <trkpt lat="43.28326" lon="6.29138">
        <ele>653</ele>
        <time>2010-01-01T02:16:21Z</time>
      </trkpt>
      <trkpt lat="43.28343" lon="6.29192">
        <ele>660</ele>
        <time>2010-01-01T02:16:39Z</time>
      </trkpt>
      <trkpt lat="43.28337" lon="6.29199">
        <ele>663</ele>
        <time>2010-01-01T02:16:42Z</time>
      </trkpt>
      <trkpt lat="43.28329" lon="6.29195">
        <ele>664</ele>
        <time>2010-01-01T02:16:45Z</time>
      </trkpt>
      <trkpt lat="43.28316" lon="6.29156">
        <ele>661</ele>
        <time>2010-01-01T02:16:58Z</time>
      </trkpt>
      <trkpt lat="43.28311" lon="6.29119">
        <ele>659</ele>
        <time>2010-01-01T02:17:09Z</time>
      </trkpt>
      <trkpt lat="43.28316" lon="6.29016">
        <ele>647</ele>
        <time>2010-01-01T02:17:39Z</time>
      </trkpt>
      <trkpt lat="43.28323" lon="6.28963">
        <ele>639</ele>
        <time>2010-01-01T02:17:54Z</time>
      </trkpt>
      <trkpt lat="43.28322" lon="6.2892">
        <ele>635</ele>
        <time>2010-01-01T02:18:07Z</time>
      </trkpt>
      <trkpt lat="43.28316" lon="6.28898">
        <ele>634</ele>
        <time>2010-01-01T02:18:14Z</time>
      </trkpt>
      <trkpt lat="43.28301" lon="6.2889">
        <ele>639</ele>
        <time>2010-01-01T02:18:20Z</time>
      </trkpt>
      <trkpt lat="43.28283" lon="6.28891">
        <ele>645</ele>
        <time>2010-01-01T02:18:27Z</time>
      </trkpt>
      <trkpt lat="43.28236" lon="6.28898">
        <ele>662</ele>
        <time>2010-01-01T02:18:46Z</time>
      </trkpt>
      <trkpt lat="43.28163" lon="6.28922">
        <ele>684</ele>
        <time>2010-01-01T02:19:16Z</time>
      </trkpt>
      <trkpt lat="43.28154" lon="6.2892">
        <ele>686</ele>
        <time>2010-01-01T02:19:20Z</time>
      </trkpt>
      <trkpt lat="43.28109" lon="6.28862">
        <ele>681</ele>
        <time>2010-01-01T02:19:45Z</time>
      </trkpt>
      <trkpt lat="43.28048" lon="6.28766">
        <ele>674</ele>
        <time>2010-01-01T02:20:22Z</time>
      </trkpt>
      <trkpt lat="43.28026" lon="6.28739">
        <ele>676</ele>
        <time>2010-01-01T02:20:34Z</time>
      </trkpt>
      <trkpt lat="43.27996" lon="6.28722">
        <ele>680</ele>
        <time>2010-01-01T02:20:47Z</time>
      </trkpt>
      <trkpt lat="43.27974" lon="6.28716">
        <ele>679</ele>
        <time>2010-01-01T02:20:56Z</time>
      </trkpt>
      <trkpt lat="43.27956" lon="6.28715">
        <ele>680</ele>
        <time>2010-01-01T02:21:03Z</time>
      </trkpt>
      <trkpt lat="43.27945" lon="6.2872">
        <ele>682</ele>
        <time>2010-01-01T02:21:07Z</time>
      </trkpt>
      <trkpt lat="43.2794" lon="6.28726">
        <ele>684</ele>
        <time>2010-01-01T02:21:10Z</time>
      </trkpt>
      <trkpt lat="43.27937" lon="6.28745">
        <ele>689</ele>
        <time>2010-01-01T02:21:16Z</time>
      </trkpt>
      <trkpt lat="43.27942" lon="6.28777">
        <ele>690</ele>
        <time>2010-01-01T02:21:25Z</time>
      </trkpt>
      <trkpt lat="43.27974" lon="6.28834">
        <ele>697</ele>
        <time>2010-01-01T02:21:46Z</time>
      </trkpt>
      <trkpt lat="43.28015" lon="6.2888">
        <ele>705</ele>
        <time>2010-01-01T02:22:07Z</time>
      </trkpt>
      <trkpt lat="43.28039" lon="6.28945">
        <ele>711</ele>
        <time>2010-01-01T02:22:29Z</time>
      </trkpt>
      <trkpt lat="43.28051" lon="6.28966">
        <ele>714</ele>
        <time>2010-01-01T02:22:37Z</time>
      </trkpt>
      <trkpt lat="43.28083" lon="6.28999">
        <ele>723</ele>
        <time>2010-01-01T02:22:53Z</time>
      </trkpt>
      <trkpt lat="43.28172" lon="6.29068">
        <ele>713</ele>
        <time>2010-01-01T02:23:33Z</time>
      </trkpt>
      <trkpt lat="43.28192" lon="6.29099">
        <ele>711</ele>
        <time>2010-01-01T02:23:46Z</time>
      </trkpt>
      <trkpt lat="43.28191" lon="6.29112">
        <ele>713</ele>
        <time>2010-01-01T02:23:49Z</time>
      </trkpt>
      <trkpt lat="43.28186" lon="6.29118">
        <ele>716</ele>
        <time>2010-01-01T02:23:52Z</time>
      </trkpt>
      <trkpt lat="43.28132" lon="6.29082">
        <ele>726</ele>
        <time>2010-01-01T02:24:16Z</time>
      </trkpt>
      <trkpt lat="43.28126" lon="6.29084">
        <ele>728</ele>
        <time>2010-01-01T02:24:18Z</time>
      </trkpt>
      <trkpt lat="43.28124" lon="6.29094">
        <ele>730</ele>
        <time>2010-01-01T02:24:21Z</time>
      </trkpt>
      <trkpt lat="43.28059" lon="6.2904">
        <ele>726</ele>
        <time>2010-01-01T02:24:52Z</time>
      </trkpt>
      <trkpt lat="43.28036" lon="6.29032">
        <ele>721</ele>
        <time>2010-01-01T02:25:01Z</time>
      </trkpt>
      <trkpt lat="43.28029" lon="6.29034">
        <ele>720</ele>
        <time>2010-01-01T02:25:04Z</time>
      </trkpt>
      <trkpt lat="43.28023" lon="6.29051">
        <ele>720</ele>
        <time>2010-01-01T02:25:10Z</time>
      </trkpt>
      <trkpt lat="43.28021" lon="6.29096">
        <ele>722</ele>
        <time>2010-01-01T02:25:23Z</time>
      </trkpt>
      <trkpt lat="43.28013" lon="6.29134">
        <ele>720</ele>
        <time>2010-01-01T02:25:34Z</time>
      </trkpt>
      <trkpt lat="43.28005" lon="6.29163">
        <ele>718</ele>
        <time>2010-01-01T02:25:43Z</time>
      </trkpt>
      <trkpt lat="43.2799" lon="6.29181">
        <ele>711</ele>
        <time>2010-01-01T02:25:51Z</time>
      </trkpt>
      <trkpt lat="43.27985" lon="6.29189">
        <ele>709</ele>
        <time>2010-01-01T02:25:55Z</time>
      </trkpt>
      <trkpt lat="43.27981" lon="6.29213">
        <ele>707</ele>
        <time>2010-01-01T02:26:02Z</time>
      </trkpt>
      <trkpt lat="43.28011" lon="6.29379">
        <ele>723</ele>
        <time>2010-01-01T02:26:52Z</time>
      </trkpt>
      <trkpt lat="43.28013" lon="6.29444">
        <ele>725</ele>
        <time>2010-01-01T02:27:10Z</time>
      </trkpt>
      <trkpt lat="43.2801" lon="6.29465">
        <ele>724</ele>
        <time>2010-01-01T02:27:17Z</time>
      </trkpt>
      <trkpt lat="43.28004" lon="6.29493">
        <ele>722</ele>
        <time>2010-01-01T02:27:25Z</time>
      </trkpt>
      <trkpt lat="43.27958" lon="6.29604">
        <ele>702</ele>
        <time>2010-01-01T02:28:02Z</time>
      </trkpt>
      <trkpt lat="43.2794" lon="6.29625">
        <ele>695</ele>
        <time>2010-01-01T02:28:12Z</time>
      </trkpt>
      <trkpt lat="43.27906" lon="6.29653">
        <ele>685</ele>
        <time>2010-01-01T02:28:28Z</time>
      </trkpt>
      <trkpt lat="43.27901" lon="6.29678">
        <ele>683</ele>
        <time>2010-01-01T02:28:35Z</time>
      </trkpt>
      <trkpt lat="43.27904" lon="6.29701">
        <ele>681</ele>
        <time>2010-01-01T02:28:42Z</time>
      </trkpt>
      <trkpt lat="43.27901" lon="6.29708">
        <ele>680</ele>
        <time>2010-01-01T02:28:45Z</time>
      </trkpt>
      <trkpt lat="43.27935" lon="6.29713">
        <ele>683</ele>
        <time>2010-01-01T02:28:58Z</time>
      </trkpt>
      <trkpt lat="43.28006" lon="6.29707">
        <ele>695</ele>
        <time>2010-01-01T02:29:27Z</time>
      </trkpt>
      <trkpt lat="43.28057" lon="6.29719">
        <ele>701</ele>
        <time>2010-01-01T02:29:47Z</time>
      </trkpt>
      <trkpt lat="43.28086" lon="6.29738">
        <ele>700</ele>
        <time>2010-01-01T02:30:00Z</time>
      </trkpt>
      <trkpt lat="43.2812" lon="6.29792">
        <ele>687</ele>
        <time>2010-01-01T02:30:21Z</time>
      </trkpt>
      <trkpt lat="43.28171" lon="6.29925">
        <ele>662</ele>
        <time>2010-01-01T02:31:05Z</time>
      </trkpt>
      <trkpt lat="43.28174" lon="6.29943">
        <ele>660</ele>
        <time>2010-01-01T02:31:10Z</time>
      </trkpt>
      <trkpt lat="43.28173" lon="6.29985">
        <ele>658</ele>
        <time>2010-01-01T02:31:22Z</time>
      </trkpt>
      <trkpt lat="43.28179" lon="6.30033">
        <ele>655</ele>
        <time>2010-01-01T02:31:37Z</time>
      </trkpt>
      <trkpt lat="43.2822" lon="6.30211">
        <ele>652</ele>
        <time>2010-01-01T02:32:31Z</time>
      </trkpt>
      <trkpt lat="43.28225" lon="6.30304">
        <ele>654</ele>
        <time>2010-01-01T02:32:58Z</time>
      </trkpt>
      <trkpt lat="43.28219" lon="6.30359">
        <ele>656</ele>
        <time>2010-01-01T02:33:14Z</time>
      </trkpt>
      <trkpt lat="43.28233" lon="6.30435">
        <ele>657</ele>
        <time>2010-01-01T02:33:37Z</time>
      </trkpt>
      <trkpt lat="43.28246" lon="6.30467">
        <ele>659</ele>
        <time>2010-01-01T02:33:48Z</time>
      </trkpt>
      <trkpt lat="43.28249" lon="6.30566">
        <ele>663</ele>
        <time>2010-01-01T02:34:17Z</time>
      </trkpt>
      <trkpt lat="43.28269" lon="6.30618">
        <ele>661</ele>
        <time>2010-01-01T02:34:34Z</time>
      </trkpt>
      <trkpt lat="43.28328" lon="6.30692">
        <ele>653</ele>
        <time>2010-01-01T02:35:06Z</time>
      </trkpt>
      <trkpt lat="43.28433" lon="6.30838">
        <ele>659</ele>
        <time>2010-01-01T02:36:06Z</time>
      </trkpt>
      <trkpt lat="43.28467" lon="6.30917">
        <ele>660</ele>
        <time>2010-01-01T02:36:33Z</time>
      </trkpt>
      <trkpt lat="43.28534" lon="6.30982">
        <ele>659</ele>
        <time>2010-01-01T02:37:05Z</time>
      </trkpt>
      <trkpt lat="43.28552" lon="6.30995">
        <ele>660</ele>
        <time>2010-01-01T02:37:14Z</time>
      </trkpt>
      <trkpt lat="43.28573" lon="6.31001">
        <ele>660</ele>
        <time>2010-01-01T02:37:22Z</time>
      </trkpt>
      <trkpt lat="43.28597" lon="6.3102">
        <ele>660</ele>
        <time>2010-01-01T02:37:33Z</time>
      </trkpt>
      <trkpt lat="43.28616" lon="6.31048">
        <ele>661</ele>
        <time>2010-01-01T02:37:44Z</time>
      </trkpt>
      <trkpt lat="43.28631" lon="6.31105">
        <ele>667</ele>
        <time>2010-01-01T02:38:02Z</time>
      </trkpt>
      <trkpt lat="43.28637" lon="6.31179">
        <ele>670</ele>
        <time>2010-01-01T02:38:24Z</time>
      </trkpt>
      <trkpt lat="43.28628" lon="6.3128">
        <ele>657</ele>
        <time>2010-01-01T02:38:53Z</time>
      </trkpt>
      <trkpt lat="43.28631" lon="6.31366">
        <ele>643</ele>
        <time>2010-01-01T02:39:18Z</time>
      </trkpt>
      <trkpt lat="43.28638" lon="6.3141">
        <ele>635</ele>
        <time>2010-01-01T02:39:32Z</time>
      </trkpt>
      <trkpt lat="43.28636" lon="6.31416">
        <ele>633</ele>
        <time>2010-01-01T02:39:33Z</time>
      </trkpt>
      <trkpt lat="43.28629" lon="6.31419">
        <ele>632</ele>
        <time>2010-01-01T02:39:36Z</time>
      </trkpt>
      <trkpt lat="43.28624" lon="6.31414">
        <ele>633</ele>
        <time>2010-01-01T02:39:39Z</time>
      </trkpt>
      <trkpt lat="43.28618" lon="6.31372">
        <ele>640</ele>
        <time>2010-01-01T02:39:51Z</time>
      </trkpt>
      <trkpt lat="43.28579" lon="6.31201">
        <ele>647</ele>
        <time>2010-01-01T02:40:44Z</time>
      </trkpt>
      <trkpt lat="43.28564" lon="6.31163">
        <ele>647</ele>
        <time>2010-01-01T02:40:56Z</time>
      </trkpt>
      <trkpt lat="43.28558" lon="6.31156">
        <ele>647</ele>
        <time>2010-01-01T02:40:59Z</time>
      </trkpt>
      <trkpt lat="43.28548" lon="6.31155">
        <ele>645</ele>
        <time>2010-01-01T02:41:03Z</time>
      </trkpt>
      <trkpt lat="43.2848" lon="6.31161">
        <ele>629</ele>
        <time>2010-01-01T02:41:31Z</time>
      </trkpt>
      <trkpt lat="43.28451" lon="6.31151">
        <ele>627</ele>
        <time>2010-01-01T02:41:43Z</time>
      </trkpt>
      <trkpt lat="43.28423" lon="6.31125">
        <ele>628</ele>
        <time>2010-01-01T02:41:56Z</time>
      </trkpt>
      <trkpt lat="43.28414" lon="6.311">
        <ele>632</ele>
        <time>2010-01-01T02:42:04Z</time>
      </trkpt>
      <trkpt lat="43.28405" lon="6.31095">
        <ele>631</ele>
        <time>2010-01-01T02:42:08Z</time>
      </trkpt>
      <trkpt lat="43.28399" lon="6.31103">
        <ele>628</ele>
        <time>2010-01-01T02:42:11Z</time>
      </trkpt>
      <trkpt lat="43.284" lon="6.31111">
        <ele>626</ele>
        <time>2010-01-01T02:42:14Z</time>
      </trkpt>
      <trkpt lat="43.2845" lon="6.31182">
        <ele>620</ele>
        <time>2010-01-01T02:42:43Z</time>
      </trkpt>
      <trkpt lat="43.28479" lon="6.31199">
        <ele>622</ele>
        <time>2010-01-01T02:42:55Z</time>
      </trkpt>
      <trkpt lat="43.28522" lon="6.31205">
        <ele>631</ele>
        <time>2010-01-01T02:43:13Z</time>
      </trkpt>
      <trkpt lat="43.2853" lon="6.31224">
        <ele>630</ele>
        <time>2010-01-01T02:43:19Z</time>
      </trkpt>
      <trkpt lat="43.28506" lon="6.3138">
        <ele>610</ele>
        <time>2010-01-01T02:44:05Z</time>
      </trkpt>
      <trkpt lat="43.28483" lon="6.31409">
        <ele>601</ele>
        <time>2010-01-01T02:44:18Z</time>
      </trkpt>
      <trkpt lat="43.28458" lon="6.31418">
        <ele>591</ele>
        <time>2010-01-01T02:44:28Z</time>
      </trkpt>
      <trkpt lat="43.28441" lon="6.31432">
        <ele>585</ele>
        <time>2010-01-01T02:44:36Z</time>
      </trkpt>
      <trkpt lat="43.28431" lon="6.31456">
        <ele>581</ele>
        <time>2010-01-01T02:44:44Z</time>
      </trkpt>
      <trkpt lat="43.28427" lon="6.31491">
        <ele>581</ele>
        <time>2010-01-01T02:44:55Z</time>
      </trkpt>
      <trkpt lat="43.28428" lon="6.31551">
        <ele>581</ele>
        <time>2010-01-01T02:45:12Z</time>
      </trkpt>
      <trkpt lat="43.28422" lon="6.31652">
        <ele>575</ele>
        <time>2010-01-01T02:45:42Z</time>
      </trkpt>
      <trkpt lat="43.2841" lon="6.31699">
        <ele>568</ele>
        <time>2010-01-01T02:45:56Z</time>
      </trkpt>
      <trkpt lat="43.28391" lon="6.3174">
        <ele>559</ele>
        <time>2010-01-01T02:46:10Z</time>
      </trkpt>
      <trkpt lat="43.28374" lon="6.318">
        <ele>549</ele>
        <time>2010-01-01T02:46:29Z</time>
      </trkpt>
      <trkpt lat="43.28346" lon="6.31877">
        <ele>541</ele>
        <time>2010-01-01T02:46:54Z</time>
      </trkpt>
      <trkpt lat="43.28334" lon="6.319">
        <ele>541</ele>
        <time>2010-01-01T02:47:02Z</time>
      </trkpt>
      <trkpt lat="43.28313" lon="6.31925">
        <ele>537</ele>
        <time>2010-01-01T02:47:13Z</time>
      </trkpt>
      <trkpt lat="43.28253" lon="6.31972">
        <ele>533</ele>
        <time>2010-01-01T02:47:41Z</time>
      </trkpt>
      <trkpt lat="43.28238" lon="6.32004">
        <ele>533</ele>
        <time>2010-01-01T02:47:52Z</time>
      </trkpt>
      <trkpt lat="43.2827" lon="6.32078">
        <ele>531</ele>
        <time>2010-01-01T02:48:17Z</time>
      </trkpt>
      <trkpt lat="43.28284" lon="6.32182">
        <ele>519</ele>
        <time>2010-01-01T02:48:48Z</time>
      </trkpt>
      <trkpt lat="43.28295" lon="6.32223">
        <ele>516</ele>
        <time>2010-01-01T02:49:01Z</time>
      </trkpt>
      <trkpt lat="43.28309" lon="6.32257">
        <ele>511</ele>
        <time>2010-01-01T02:49:12Z</time>
      </trkpt>
      <trkpt lat="43.28317" lon="6.32376">
        <ele>511</ele>
        <time>2010-01-01T02:49:47Z</time>
      </trkpt>
      <trkpt lat="43.28301" lon="6.32498">
        <ele>523</ele>
        <time>2010-01-01T02:50:23Z</time>
      </trkpt>
      <trkpt lat="43.28301" lon="6.32585">
        <ele>523</ele>
        <time>2010-01-01T02:50:49Z</time>
      </trkpt>
      <trkpt lat="43.28319" lon="6.32657">
        <ele>523</ele>
        <time>2010-01-01T02:51:11Z</time>
      </trkpt>
      <trkpt lat="43.28315" lon="6.32677">
        <ele>524</ele>
        <time>2010-01-01T02:51:17Z</time>
      </trkpt>
      <trkpt lat="43.28311" lon="6.32769">
        <ele>532</ele>
        <time>2010-01-01T02:51:44Z</time>
      </trkpt>
      <trkpt lat="43.28304" lon="6.32786">
        <ele>535</ele>
        <time>2010-01-01T02:51:49Z</time>
      </trkpt>
      <trkpt lat="43.28255" lon="6.32811">
        <ele>535</ele>
        <time>2010-01-01T02:52:10Z</time>
      </trkpt>
      <trkpt lat="43.28213" lon="6.32818">
        <ele>528</ele>
        <time>2010-01-01T02:52:27Z</time>
      </trkpt>
      <trkpt lat="43.28198" lon="6.32828">
        <ele>527</ele>
        <time>2010-01-01T02:52:34Z</time>
      </trkpt>
      <trkpt lat="43.28187" lon="6.3285">
        <ele>532</ele>
        <time>2010-01-01T02:52:42Z</time>
      </trkpt>
      <trkpt lat="43.2817" lon="6.32921">
        <ele>549</ele>
        <time>2010-01-01T02:53:03Z</time>
      </trkpt>
      <trkpt lat="43.28154" lon="6.32942">
        <ele>549</ele>
        <time>2010-01-01T02:53:12Z</time>
      </trkpt>
      <trkpt lat="43.28144" lon="6.32945">
        <ele>546</ele>
        <time>2010-01-01T02:53:16Z</time>
      </trkpt>
      <trkpt lat="43.28126" lon="6.32939">
        <ele>537</ele>
        <time>2010-01-01T02:53:24Z</time>
      </trkpt>
      <trkpt lat="43.28092" lon="6.32907">
        <ele>514</ele>
        <time>2010-01-01T02:53:40Z</time>
      </trkpt>
      <trkpt lat="43.28075" lon="6.329">
        <ele>509</ele>
        <time>2010-01-01T02:53:47Z</time>
      </trkpt>
      <trkpt lat="43.28062" lon="6.32901">
        <ele>509</ele>
        <time>2010-01-01T02:53:53Z</time>
      </trkpt>
      <trkpt lat="43.28023" lon="6.32927">
        <ele>515</ele>
        <time>2010-01-01T02:54:10Z</time>
      </trkpt>
      <trkpt lat="43.28014" lon="6.32919">
        <ele>513</ele>
        <time>2010-01-01T02:54:14Z</time>
      </trkpt>
      <trkpt lat="43.28012" lon="6.32906">
        <ele>510</ele>
        <time>2010-01-01T02:54:18Z</time>
      </trkpt>
      <trkpt lat="43.28017" lon="6.32867">
        <ele>502</ele>
        <time>2010-01-01T02:54:30Z</time>
      </trkpt>
      <trkpt lat="43.28038" lon="6.32785">
        <ele>488</ele>
        <time>2010-01-01T02:54:55Z</time>
      </trkpt>
      <trkpt lat="43.28038" lon="6.32769">
        <ele>485</ele>
        <time>2010-01-01T02:55:00Z</time>
      </trkpt>
      <trkpt lat="43.28028" lon="6.32743">
        <ele>480</ele>
        <time>2010-01-01T02:55:08Z</time>
      </trkpt>
      <trkpt lat="43.28019" lon="6.32731">
        <ele>478</ele>
        <time>2010-01-01T02:55:13Z</time>
      </trkpt>
      <trkpt lat="43.2798" lon="6.32701">
        <ele>475</ele>
        <time>2010-01-01T02:55:31Z</time>
      </trkpt>
      <trkpt lat="43.27897" lon="6.32665">
        <ele>479</ele>
        <time>2010-01-01T02:56:06Z</time>
      </trkpt>
      <trkpt lat="43.27872" lon="6.32646">
        <ele>479</ele>
        <time>2010-01-01T02:56:17Z</time>
      </trkpt>
      <trkpt lat="43.27845" lon="6.32604">
        <ele>473</ele>
        <time>2010-01-01T02:56:34Z</time>
      </trkpt>
      <trkpt lat="43.27792" lon="6.32542">
        <ele>466</ele>
        <time>2010-01-01T02:57:02Z</time>
      </trkpt>
      <trkpt lat="43.27741" lon="6.32466">
        <ele>454</ele>
        <time>2010-01-01T02:57:32Z</time>
      </trkpt>
      <trkpt lat="43.2771" lon="6.32434">
        <ele>450</ele>
        <time>2010-01-01T02:57:47Z</time>
      </trkpt>
      <trkpt lat="43.27664" lon="6.32412">
        <ele>452</ele>
        <time>2010-01-01T02:58:07Z</time>
      </trkpt>
      <trkpt lat="43.27654" lon="6.32412">
        <ele>452</ele>
        <time>2010-01-01T02:58:11Z</time>
      </trkpt>
      <trkpt lat="43.2761" lon="6.32436">
        <ele>458</ele>
        <time>2010-01-01T02:58:30Z</time>
      </trkpt>
      <trkpt lat="43.27563" lon="6.3243">
        <ele>451</ele>
        <time>2010-01-01T02:58:49Z</time>
      </trkpt>
      <trkpt lat="43.27536" lon="6.32435">
        <ele>447</ele>
        <time>2010-01-01T02:59:00Z</time>
      </trkpt>
      <trkpt lat="43.27531" lon="6.3245">
        <ele>450</ele>
        <time>2010-01-01T02:59:04Z</time>
      </trkpt>
      <trkpt lat="43.27539" lon="6.3249">
        <ele>462</ele>
        <time>2010-01-01T02:59:16Z</time>
      </trkpt>
      <trkpt lat="43.27541" lon="6.32525">
        <ele>472</ele>
        <time>2010-01-01T02:59:27Z</time>
      </trkpt>
      <trkpt lat="43.27535" lon="6.32585">
        <ele>485</ele>
        <time>2010-01-01T02:59:44Z</time>
      </trkpt>
      <trkpt lat="43.27526" lon="6.32607">
        <ele>485</ele>
        <time>2010-01-01T02:59:52Z</time>
      </trkpt>
      <trkpt lat="43.27511" lon="6.32603">
        <ele>477</ele>
        <time>2010-01-01T02:59:58Z</time>
      </trkpt>
      <trkpt lat="43.27449" lon="6.32497">
        <ele>462</ele>
        <time>2010-01-01T03:00:37Z</time>
      </trkpt>
      <trkpt lat="43.27431" lon="6.32396">
        <ele>452</ele>
        <time>2010-01-01T03:01:08Z</time>
      </trkpt>
      <trkpt lat="43.27423" lon="6.32336">
        <ele>448</ele>
        <time>2010-01-01T03:01:25Z</time>
      </trkpt>
      <trkpt lat="43.27424" lon="6.32289">
        <ele>440</ele>
        <time>2010-01-01T03:01:39Z</time>
      </trkpt>
      <trkpt lat="43.27446" lon="6.32231">
        <ele>421</ele>
        <time>2010-01-01T03:01:58Z</time>
      </trkpt>
      <trkpt lat="43.27463" lon="6.32203">
        <ele>410</ele>
        <time>2010-01-01T03:02:09Z</time>
      </trkpt>
      <trkpt lat="43.27451" lon="6.32173">
        <ele>407</ele>
        <time>2010-01-01T03:02:19Z</time>
      </trkpt>
      <trkpt lat="43.27442" lon="6.32165">
        <ele>408</ele>
        <time>2010-01-01T03:02:23Z</time>
      </trkpt>
      <trkpt lat="43.2734" lon="6.32134">
        <ele>424</ele>
        <time>2010-01-01T03:03:05Z</time>
      </trkpt>
      <trkpt lat="43.27294" lon="6.32109">
        <ele>422</ele>
        <time>2010-01-01T03:03:25Z</time>
      </trkpt>
      <trkpt lat="43.27284" lon="6.32111">
        <ele>424</ele>
        <time>2010-01-01T03:03:29Z</time>
      </trkpt>
      <trkpt lat="43.2726" lon="6.32132">
        <ele>434</ele>
        <time>2010-01-01T03:03:40Z</time>
      </trkpt>
      <trkpt lat="43.27243" lon="6.32131">
        <ele>436</ele>
        <time>2010-01-01T03:03:47Z</time>
      </trkpt>
      <trkpt lat="43.27231" lon="6.32112">
        <ele>430</ele>
        <time>2010-01-01T03:03:54Z</time>
      </trkpt>
      <trkpt lat="43.27197" lon="6.3208">
        <ele>422</ele>
        <time>2010-01-01T03:04:11Z</time>
      </trkpt>
      <trkpt lat="43.27171" lon="6.32086">
        <ele>427</ele>
        <time>2010-01-01T03:04:21Z</time>
      </trkpt>
      <trkpt lat="43.27099" lon="6.32084">
        <ele>437</ele>
        <time>2010-01-01T03:04:50Z</time>
      </trkpt>
      <trkpt lat="43.27083" lon="6.32067">
        <ele>434</ele>
        <time>2010-01-01T03:04:58Z</time>
      </trkpt>
      <trkpt lat="43.27053" lon="6.3201">
        <ele>423</ele>
        <time>2010-01-01T03:05:19Z</time>
      </trkpt>
      <trkpt lat="43.27024" lon="6.31991">
        <ele>425</ele>
        <time>2010-01-01T03:05:32Z</time>
      </trkpt>
      <trkpt lat="43.26998" lon="6.31989">
        <ele>430</ele>
        <time>2010-01-01T03:05:42Z</time>
      </trkpt>
      <trkpt lat="43.26968" lon="6.32007">
        <ele>429</ele>
        <time>2010-01-01T03:05:55Z</time>
      </trkpt>
      <trkpt lat="43.26949" lon="6.32095">
        <ele>440</ele>
        <time>2010-01-01T03:06:22Z</time>
      </trkpt>
      <trkpt lat="43.26916" lon="6.32186">
        <ele>441</ele>
        <time>2010-01-01T03:06:52Z</time>
      </trkpt>
      <trkpt lat="43.26906" lon="6.32202">
        <ele>441</ele>
        <time>2010-01-01T03:06:58Z</time>
      </trkpt>
      <trkpt lat="43.2689" lon="6.32202">
        <ele>438</ele>
        <time>2010-01-01T03:07:04Z</time>
      </trkpt>
      <trkpt lat="43.2688" lon="6.32172">
        <ele>430</ele>
        <time>2010-01-01T03:07:14Z</time>
      </trkpt>
      <trkpt lat="43.26848" lon="6.31975">
        <ele>393</ele>
        <time>2010-01-01T03:08:13Z</time>
      </trkpt>
      <trkpt lat="43.26851" lon="6.31893">
        <ele>386</ele>
        <time>2010-01-01T03:08:37Z</time>
      </trkpt>
      <trkpt lat="43.26833" lon="6.31865">
        <ele>378</ele>
        <time>2010-01-01T03:08:47Z</time>
      </trkpt>
      <trkpt lat="43.26802" lon="6.31843">
        <ele>371</ele>
        <time>2010-01-01T03:09:01Z</time>
      </trkpt>
      <trkpt lat="43.2677" lon="6.31838">
        <ele>364</ele>
        <time>2010-01-01T03:09:14Z</time>
      </trkpt>
      <trkpt lat="43.26749" lon="6.31857">
        <ele>364</ele>
        <time>2010-01-01T03:09:24Z</time>
      </trkpt>
      <trkpt lat="43.26708" lon="6.31862">
        <ele>364</ele>
        <time>2010-01-01T03:09:41Z</time>
      </trkpt>
      <trkpt lat="43.2666" lon="6.31919">
        <ele>379</ele>
        <time>2010-01-01T03:10:06Z</time>
      </trkpt>
      <trkpt lat="43.2665" lon="6.31921">
        <ele>378</ele>
        <time>2010-01-01T03:10:10Z</time>
      </trkpt>
      <trkpt lat="43.26596" lon="6.31921">
        <ele>373</ele>
        <time>2010-01-01T03:10:32Z</time>
      </trkpt>
      <trkpt lat="43.26564" lon="6.31902">
        <ele>364</ele>
        <time>2010-01-01T03:10:46Z</time>
      </trkpt>
      <trkpt lat="43.26519" lon="6.31891">
        <ele>356</ele>
        <time>2010-01-01T03:11:04Z</time>
      </trkpt>
      <trkpt lat="43.26487" lon="6.31866">
        <ele>343</ele>
        <time>2010-01-01T03:11:19Z</time>
      </trkpt>
      <trkpt lat="43.26475" lon="6.31869">
        <ele>342</ele>
        <time>2010-01-01T03:11:24Z</time>
      </trkpt>
      <trkpt lat="43.26449" lon="6.31917">
        <ele>355</ele>
        <time>2010-01-01T03:11:41Z</time>
      </trkpt>
      <trkpt lat="43.26407" lon="6.32016">
        <ele>376</ele>
        <time>2010-01-01T03:12:15Z</time>
      </trkpt>
      <trkpt lat="43.26366" lon="6.32064">
        <ele>377</ele>
        <time>2010-01-01T03:12:36Z</time>
      </trkpt>
      <trkpt lat="43.26347" lon="6.32097">
        <ele>380</ele>
        <time>2010-01-01T03:12:48Z</time>
      </trkpt>
      <trkpt lat="43.26337" lon="6.321">
        <ele>378</ele>
        <time>2010-01-01T03:12:53Z</time>
      </trkpt>
      <trkpt lat="43.26307" lon="6.31981">
        <ele>344</ele>
        <time>2010-01-01T03:13:29Z</time>
      </trkpt>
      <trkpt lat="43.26299" lon="6.31961">
        <ele>337</ele>
        <time>2010-01-01T03:13:36Z</time>
      </trkpt>
      <trkpt lat="43.26289" lon="6.31954">
        <ele>333</ele>
        <time>2010-01-01T03:13:40Z</time>
      </trkpt>
      <trkpt lat="43.26247" lon="6.31962">
        <ele>331</ele>
        <time>2010-01-01T03:13:57Z</time>
      </trkpt>
      <trkpt lat="43.26223" lon="6.31961">
        <ele>333</ele>
        <time>2010-01-01T03:14:07Z</time>
      </trkpt>
      <trkpt lat="43.2616" lon="6.31903">
        <ele>315</ele>
        <time>2010-01-01T03:14:37Z</time>
      </trkpt>
      <trkpt lat="43.26117" lon="6.31853">
        <ele>311</ele>
        <time>2010-01-01T03:15:00Z</time>
      </trkpt>
      <trkpt lat="43.26108" lon="6.31855">
        <ele>314</ele>
        <time>2010-01-01T03:15:04Z</time>
      </trkpt>
      <trkpt lat="43.26088" lon="6.31884">
        <ele>324</ele>
        <time>2010-01-01T03:15:15Z</time>
      </trkpt>
      <trkpt lat="43.26068" lon="6.3194">
        <ele>335</ele>
        <time>2010-01-01T03:15:33Z</time>
      </trkpt>
      <trkpt lat="43.26035" lon="6.32003">
        <ele>338</ele>
        <time>2010-01-01T03:15:56Z</time>
      </trkpt>
      <trkpt lat="43.26021" lon="6.32061">
        <ele>343</ele>
        <time>2010-01-01T03:16:14Z</time>
      </trkpt>
      <trkpt lat="43.25996" lon="6.32106">
        <ele>342</ele>
        <time>2010-01-01T03:16:30Z</time>
      </trkpt>
      <trkpt lat="43.25983" lon="6.32108">
        <ele>338</ele>
        <time>2010-01-01T03:16:36Z</time>
      </trkpt>
      <trkpt lat="43.25965" lon="6.32098">
        <ele>330</ele>
        <time>2010-01-01T03:16:43Z</time>
      </trkpt>
      <trkpt lat="43.25931" lon="6.32099">
        <ele>317</ele>
        <time>2010-01-01T03:16:57Z</time>
      </trkpt>
      <trkpt lat="43.25922" lon="6.32105">
        <ele>315</ele>
        <time>2010-01-01T03:17:01Z</time>
      </trkpt>
      <trkpt lat="43.25834" lon="6.32242">
        <ele>320</ele>
        <time>2010-01-01T03:17:54Z</time>
      </trkpt>
      <trkpt lat="43.25832" lon="6.32261">
        <ele>321</ele>
        <time>2010-01-01T03:18:00Z</time>
      </trkpt>
      <trkpt lat="43.25838" lon="6.32294">
        <ele>325</ele>
        <time>2010-01-01T03:18:10Z</time>
      </trkpt>
      <trkpt lat="43.25864" lon="6.32344">
        <ele>335</ele>
        <time>2010-01-01T03:18:28Z</time>
      </trkpt>
      <trkpt lat="43.25862" lon="6.32368">
        <ele>335</ele>
        <time>2010-01-01T03:18:35Z</time>
      </trkpt>
      <trkpt lat="43.2585" lon="6.32404">
        <ele>332</ele>
        <time>2010-01-01T03:18:46Z</time>
      </trkpt>
      <trkpt lat="43.25833" lon="6.32411">
        <ele>327</ele>
        <time>2010-01-01T03:18:53Z</time>
      </trkpt>
      <trkpt lat="43.2578" lon="6.32388">
        <ele>312</ele>
        <time>2010-01-01T03:19:16Z</time>
      </trkpt>
      <trkpt lat="43.25758" lon="6.32384">
        <ele>306</ele>
        <time>2010-01-01T03:19:24Z</time>
      </trkpt>
      <trkpt lat="43.25741" lon="6.32396">
        <ele>301</ele>
        <time>2010-01-01T03:19:32Z</time>
      </trkpt>
      <trkpt lat="43.25725" lon="6.32427">
        <ele>296</ele>
        <time>2010-01-01T03:19:43Z</time>
      </trkpt>
      <trkpt lat="43.25721" lon="6.32448">
        <ele>295</ele>
        <time>2010-01-01T03:19:49Z</time>
      </trkpt>
      <trkpt lat="43.25725" lon="6.32471">
        <ele>295</ele>
        <time>2010-01-01T03:19:56Z</time>
      </trkpt>
      <trkpt lat="43.2578" lon="6.3253">
        <ele>304</ele>
        <time>2010-01-01T03:20:24Z</time>
      </trkpt>
      <trkpt lat="43.25801" lon="6.3256">
        <ele>305</ele>
        <time>2010-01-01T03:20:36Z</time>
      </trkpt>
      <trkpt lat="43.25807" lon="6.32576">
        <ele>303</ele>
        <time>2010-01-01T03:20:42Z</time>
      </trkpt>
      <trkpt lat="43.25803" lon="6.32595">
        <ele>302</ele>
        <time>2010-01-01T03:20:47Z</time>
      </trkpt>
      <trkpt lat="43.25737" lon="6.32606">
        <ele>295</ele>
        <time>2010-01-01T03:21:14Z</time>
      </trkpt>
      <trkpt lat="43.25691" lon="6.32642">
        <ele>288</ele>
        <time>2010-01-01T03:21:35Z</time>
      </trkpt>
      <trkpt lat="43.25633" lon="6.32659">
        <ele>281</ele>
        <time>2010-01-01T03:21:59Z</time>
      </trkpt>
      <trkpt lat="43.25621" lon="6.32655">
        <ele>279</ele>
        <time>2010-01-01T03:22:04Z</time>
      </trkpt>
      <trkpt lat="43.25607" lon="6.32632">
        <ele>275</ele>
        <time>2010-01-01T03:22:13Z</time>
      </trkpt>
      <trkpt lat="43.25592" lon="6.3262">
        <ele>271</ele>
        <time>2010-01-01T03:22:20Z</time>
      </trkpt>
      <trkpt lat="43.25581" lon="6.32618">
        <ele>269</ele>
        <time>2010-01-01T03:22:24Z</time>
      </trkpt>
      <trkpt lat="43.25564" lon="6.32624">
        <ele>268</ele>
        <time>2010-01-01T03:22:31Z</time>
      </trkpt>
      <trkpt lat="43.255" lon="6.32678">
        <ele>273</ele>
        <time>2010-01-01T03:23:01Z</time>
      </trkpt>
      <trkpt lat="43.25483" lon="6.32702">
        <ele>276</ele>
        <time>2010-01-01T03:23:11Z</time>
      </trkpt>
      <trkpt lat="43.25466" lon="6.32738">
        <ele>282</ele>
        <time>2010-01-01T03:23:23Z</time>
      </trkpt>
      <trkpt lat="43.2546" lon="6.32742">
        <ele>282</ele>
        <time>2010-01-01T03:23:26Z</time>
      </trkpt>
      <trkpt lat="43.25445" lon="6.32742">
        <ele>280</ele>
        <time>2010-01-01T03:23:32Z</time>
      </trkpt>
      <trkpt lat="43.25416" lon="6.32732">
        <ele>273</ele>
        <time>2010-01-01T03:23:44Z</time>
      </trkpt>
      <trkpt lat="43.25382" lon="6.3274">
        <ele>268</ele>
        <time>2010-01-01T03:23:58Z</time>
      </trkpt>
      <trkpt lat="43.2526" lon="6.32876">
        <ele>258</ele>
        <time>2010-01-01T03:25:01Z</time>
      </trkpt>
      <trkpt lat="43.25254" lon="6.32896">
        <ele>258</ele>
        <time>2010-01-01T03:25:07Z</time>
      </trkpt>
      <trkpt lat="43.25259" lon="6.32915">
        <ele>262</ele>
        <time>2010-01-01T03:25:13Z</time>
      </trkpt>
      <trkpt lat="43.25306" lon="6.3297">
        <ele>270</ele>
        <time>2010-01-01T03:25:38Z</time>
      </trkpt>
      <trkpt lat="43.2536" lon="6.32981">
        <ele>284</ele>
        <time>2010-01-01T03:26:00Z</time>
      </trkpt>
      <trkpt lat="43.25395" lon="6.32978">
        <ele>295</ele>
        <time>2010-01-01T03:26:14Z</time>
      </trkpt>
      <trkpt lat="43.25402" lon="6.32991">
        <ele>295</ele>
        <time>2010-01-01T03:26:18Z</time>
      </trkpt>
      <trkpt lat="43.25399" lon="6.33001">
        <ele>294</ele>
        <time>2010-01-01T03:26:21Z</time>
      </trkpt>
      <trkpt lat="43.25365" lon="6.33046">
        <ele>276</ele>
        <time>2010-01-01T03:26:40Z</time>
      </trkpt>
      <trkpt lat="43.25358" lon="6.33064">
        <ele>271</ele>
        <time>2010-01-01T03:26:46Z</time>
      </trkpt>
      <trkpt lat="43.25356" lon="6.33081">
        <ele>268</ele>
        <time>2010-01-01T03:26:51Z</time>
      </trkpt>
      <trkpt lat="43.25362" lon="6.33156">
        <ele>266</ele>
        <time>2010-01-01T03:27:13Z</time>
      </trkpt>
      <trkpt lat="43.25352" lon="6.33169">
        <ele>263</ele>
        <time>2010-01-01T03:27:19Z</time>
      </trkpt>
      <trkpt lat="43.25337" lon="6.33165">
        <ele>259</ele>
        <time>2010-01-01T03:27:25Z</time>
      </trkpt>
      <trkpt lat="43.25328" lon="6.33153">
        <ele>258</ele>
        <time>2010-01-01T03:27:30Z</time>
      </trkpt>
      <trkpt lat="43.25325" lon="6.33122">
        <ele>258</ele>
        <time>2010-01-01T03:27:39Z</time>
      </trkpt>
      <trkpt lat="43.25311" lon="6.33097">
        <ele>256</ele>
        <time>2010-01-01T03:27:48Z</time>
      </trkpt>
      <trkpt lat="43.25201" lon="6.33028">
        <ele>245</ele>
        <time>2010-01-01T03:28:37Z</time>
      </trkpt>
      <trkpt lat="43.25184" lon="6.33025">
        <ele>243</ele>
        <time>2010-01-01T03:28:44Z</time>
      </trkpt>
      <trkpt lat="43.25149" lon="6.33032">
        <ele>240</ele>
        <time>2010-01-01T03:28:58Z</time>
      </trkpt>
      <trkpt lat="43.25111" lon="6.33067">
        <ele>240</ele>
        <time>2010-01-01T03:29:16Z</time>
      </trkpt>
      <trkpt lat="43.25027" lon="6.33245">
        <ele>251</ele>
        <time>2010-01-01T03:30:18Z</time>
      </trkpt>
      <trkpt lat="43.25006" lon="6.33263">
        <ele>250</ele>
        <time>2010-01-01T03:30:28Z</time>
      </trkpt>
      <trkpt lat="43.24947" lon="6.33283">
        <ele>248</ele>
        <time>2010-01-01T03:30:52Z</time>
      </trkpt>
      <trkpt lat="43.24931" lon="6.33278">
        <ele>246</ele>
        <time>2010-01-01T03:30:59Z</time>
      </trkpt>
      <trkpt lat="43.24886" lon="6.33252">
        <ele>241</ele>
        <time>2010-01-01T03:31:18Z</time>
      </trkpt>
      <trkpt lat="43.24864" lon="6.33202">
        <ele>240</ele>
        <time>2010-01-01T03:31:35Z</time>
      </trkpt>
      <trkpt lat="43.24849" lon="6.33185">
        <ele>240</ele>
        <time>2010-01-01T03:31:43Z</time>
      </trkpt>
      <trkpt lat="43.24824" lon="6.3317">
        <ele>240</ele>
        <time>2010-01-01T03:31:54Z</time>
      </trkpt>
      <trkpt lat="43.24795" lon="6.33166">
        <ele>240</ele>
        <time>2010-01-01T03:32:06Z</time>
      </trkpt>
      <trkpt lat="43.24737" lon="6.33189">
        <ele>240</ele>
        <time>2010-01-01T03:32:30Z</time>
      </trkpt>
      <trkpt lat="43.24655" lon="6.33264">
        <ele>240</ele>
        <time>2010-01-01T03:33:09Z</time>
      </trkpt>
      <trkpt lat="43.24586" lon="6.33386">
        <ele>240</ele>
        <time>2010-01-01T03:33:54Z</time>
      </trkpt>
      <trkpt lat="43.24539" lon="6.33456">
        <ele>236</ele>
        <time>2010-01-01T03:34:22Z</time>
      </trkpt>
      <trkpt lat="43.24508" lon="6.33489">
        <ele>229</ele>
        <time>2010-01-01T03:34:38Z</time>
      </trkpt>
      <trkpt lat="43.24456" lon="6.33504">
        <ele>226</ele>
        <time>2010-01-01T03:34:59Z</time>
      </trkpt>
      <trkpt lat="43.24448" lon="6.33513">
        <ele>225</ele>
        <time>2010-01-01T03:35:03Z</time>
      </trkpt>
      <trkpt lat="43.24443" lon="6.33532">
        <ele>224</ele>
        <time>2010-01-01T03:35:09Z</time>
      </trkpt>
      <trkpt lat="43.24437" lon="6.33767">
        <ele>215</ele>
        <time>2010-01-01T03:36:18Z</time>
      </trkpt>
      <trkpt lat="43.24388" lon="6.33871">
        <ele>204</ele>
        <time>2010-01-01T03:36:54Z</time>
      </trkpt>
      <trkpt lat="43.24358" lon="6.33947">
        <ele>200</ele>
        <time>2010-01-01T03:37:19Z</time>
      </trkpt>
      <trkpt lat="43.2433" lon="6.33989">
        <ele>199</ele>
        <time>2010-01-01T03:37:36Z</time>
      </trkpt>
      <trkpt lat="43.24304" lon="6.34015">
        <ele>199</ele>
        <time>2010-01-01T03:37:48Z</time>
      </trkpt>
      <trkpt lat="43.24282" lon="6.3403">
        <ele>199</ele>
        <time>2010-01-01T03:37:58Z</time>
      </trkpt>
      <trkpt lat="43.2426" lon="6.34032">
        <ele>198</ele>
        <time>2010-01-01T03:38:07Z</time>
      </trkpt>
      <trkpt lat="43.2425" lon="6.34027">
        <ele>197</ele>
        <time>2010-01-01T03:38:11Z</time>
      </trkpt>
      <trkpt lat="43.24192" lon="6.33979">
        <ele>196</ele>
        <time>2010-01-01T03:38:38Z</time>
      </trkpt>
      <trkpt lat="43.24115" lon="6.33858">
        <ele>198</ele>
        <time>2010-01-01T03:39:25Z</time>
      </trkpt>
      <trkpt lat="43.24107" lon="6.33821">
        <ele>199</ele>
        <time>2010-01-01T03:39:37Z</time>
      </trkpt>
      <trkpt lat="43.24109" lon="6.33783">
        <ele>201</ele>
        <time>2010-01-01T03:39:48Z</time>
      </trkpt>
      <trkpt lat="43.24134" lon="6.33736">
        <ele>199</ele>
        <time>2010-01-01T03:40:05Z</time>
      </trkpt>
      <trkpt lat="43.24141" lon="6.33712">
        <ele>198</ele>
        <time>2010-01-01T03:40:12Z</time>
      </trkpt>
      <trkpt lat="43.24142" lon="6.33689">
        <ele>198</ele>
        <time>2010-01-01T03:40:19Z</time>
      </trkpt>
      <trkpt lat="43.24119" lon="6.33542">
        <ele>195</ele>
        <time>2010-01-01T03:41:03Z</time>
      </trkpt>
      <trkpt lat="43.24102" lon="6.3341">
        <ele>193</ele>
        <time>2010-01-01T03:41:42Z</time>
      </trkpt>
      <trkpt lat="43.24108" lon="6.3322">
        <ele>194</ele>
        <time>2010-01-01T03:42:37Z</time>
      </trkpt>
      <trkpt lat="43.24159" lon="6.33079">
        <ele>188</ele>
        <time>2010-01-01T03:43:23Z</time>
      </trkpt>
      <trkpt lat="43.24172" lon="6.33065">
        <ele>186</ele>
        <time>2010-01-01T03:43:30Z</time>
      </trkpt>
      <trkpt lat="43.24226" lon="6.33026">
        <ele>180</ele>
        <time>2010-01-01T03:43:54Z</time>
      </trkpt>
      <trkpt lat="43.24233" lon="6.33006">
        <ele>179</ele>
        <time>2010-01-01T03:44:01Z</time>
      </trkpt>
      <trkpt lat="43.24229" lon="6.32976">
        <ele>179</ele>
        <time>2010-01-01T03:44:10Z</time>
      </trkpt>
      <trkpt lat="43.24209" lon="6.32927">
        <ele>179</ele>
        <time>2010-01-01T03:44:26Z</time>
      </trkpt>
      <trkpt lat="43.24148" lon="6.32878">
        <ele>182</ele>
        <time>2010-01-01T03:44:54Z</time>
      </trkpt>
      <trkpt lat="43.24122" lon="6.3284">
        <ele>185</ele>
        <time>2010-01-01T03:45:09Z</time>
      </trkpt>
      <trkpt lat="43.2412" lon="6.32818">
        <ele>185</ele>
        <time>2010-01-01T03:45:16Z</time>
      </trkpt>
      <trkpt lat="43.24143" lon="6.32731">
        <ele>183</ele>
        <time>2010-01-01T03:45:43Z</time>
      </trkpt>
      <trkpt lat="43.24158" lon="6.32703">
        <ele>181</ele>
        <time>2010-01-01T03:45:53Z</time>
      </trkpt>
      <trkpt lat="43.24171" lon="6.3269">
        <ele>180</ele>
        <time>2010-01-01T03:45:59Z</time>
      </trkpt>
      <trkpt lat="43.24224" lon="6.3266">
        <ele>178</ele>
        <time>2010-01-01T03:46:22Z</time>
      </trkpt>
      <trkpt lat="43.24253" lon="6.32629">
        <ele>177</ele>
        <time>2010-01-01T03:46:37Z</time>
      </trkpt>
      <trkpt lat="43.24268" lon="6.32604">
        <ele>177</ele>
        <time>2010-01-01T03:46:47Z</time>
      </trkpt>
      <trkpt lat="43.24269" lon="6.3259">
        <ele>177</ele>
        <time>2010-01-01T03:46:51Z</time>
      </trkpt>
      <trkpt lat="43.24261" lon="6.32552">
        <ele>177</ele>
        <time>2010-01-01T03:47:02Z</time>
      </trkpt>
      <trkpt lat="43.24261" lon="6.32524">
        <ele>177</ele>
        <time>2010-01-01T03:47:10Z</time>
      </trkpt>
      <trkpt lat="43.24275" lon="6.32478">
        <ele>177</ele>
        <time>2010-01-01T03:47:25Z</time>
      </trkpt>
      <trkpt lat="43.24278" lon="6.32431">
        <ele>176</ele>
        <time>2010-01-01T03:47:39Z</time>
      </trkpt>
      <trkpt lat="43.24301" lon="6.32267">
        <ele>174</ele>
        <time>2010-01-01T03:48:27Z</time>
      </trkpt>
      <trkpt lat="43.24287" lon="6.32227">
        <ele>173</ele>
        <time>2010-01-01T03:48:40Z</time>
      </trkpt>
      <trkpt lat="43.24246" lon="6.32156">
        <ele>171</ele>
        <time>2010-01-01T03:49:07Z</time>
      </trkpt>
      <trkpt lat="43.2422" lon="6.32129">
        <ele>172</ele>
        <time>2010-01-01T03:49:20Z</time>
      </trkpt>
      <trkpt lat="43.24199" lon="6.3212">
        <ele>172</ele>
        <time>2010-01-01T03:49:29Z</time>
      </trkpt>
      <trkpt lat="43.24168" lon="6.32115">
        <ele>173</ele>
        <time>2010-01-01T03:49:41Z</time>
      </trkpt>
      <trkpt lat="43.24133" lon="6.32119">
        <ele>172</ele>
        <time>2010-01-01T03:49:55Z</time>
      </trkpt>
      <trkpt lat="43.24039" lon="6.32159">
        <ele>170</ele>
        <time>2010-01-01T03:50:35Z</time>
      </trkpt>
      <trkpt lat="43.23947" lon="6.32149">
        <ele>167</ele>
        <time>2010-01-01T03:51:12Z</time>
      </trkpt>
      <trkpt lat="43.23893" lon="6.32167">
        <ele>167</ele>
        <time>2010-01-01T03:51:34Z</time>
      </trkpt>
      <trkpt lat="43.23856" lon="6.32171">
        <ele>169</ele>
        <time>2010-01-01T03:51:49Z</time>
      </trkpt>
      <trkpt lat="43.23836" lon="6.32164">
        <ele>170</ele>
        <time>2010-01-01T03:51:57Z</time>
      </trkpt>
      <trkpt lat="43.23828" lon="6.32152">
        <ele>169</ele>
        <time>2010-01-01T03:52:02Z</time>
      </trkpt>
      <trkpt lat="43.23829" lon="6.3203">
        <ele>164</ele>
        <time>2010-01-01T03:52:37Z</time>
      </trkpt>
      <trkpt lat="43.2378" lon="6.31902">
        <ele>162</ele>
        <time>2010-01-01T03:53:19Z</time>
      </trkpt>
      <trkpt lat="43.23766" lon="6.31808">
        <ele>160</ele>
        <time>2010-01-01T03:53:47Z</time>
      </trkpt>
      <trkpt lat="43.23691" lon="6.31411">
        <ele>160</ele>
        <time>2010-01-01T03:55:47Z</time>
      </trkpt>
      <trkpt lat="43.23687" lon="6.31341">
        <ele>161</ele>
        <time>2010-01-01T03:56:07Z</time>
      </trkpt>
      <trkpt lat="43.2369" lon="6.31305">
        <ele>162</ele>
        <time>2010-01-01T03:56:18Z</time>
      </trkpt>
      <trkpt lat="43.23709" lon="6.31268">
        <ele>162</ele>
        <time>2010-01-01T03:56:31Z</time>
      </trkpt>
      <trkpt lat="43.23765" lon="6.31205">
        <ele>157</ele>
        <time>2010-01-01T03:57:00Z</time>
      </trkpt>
      <trkpt lat="43.23837" lon="6.31134">
        <ele>155</ele>
        <time>2010-01-01T03:57:36Z</time>
      </trkpt>
      <trkpt lat="43.23855" lon="6.31109">
        <ele>154</ele>
        <time>2010-01-01T03:57:46Z</time>
      </trkpt>
      <trkpt lat="43.23863" lon="6.31087">
        <ele>154</ele>
        <time>2010-01-01T03:57:53Z</time>
      </trkpt>
      <trkpt lat="43.23862" lon="6.3105">
        <ele>154</ele>
        <time>2010-01-01T03:58:04Z</time>
      </trkpt>
      <trkpt lat="43.23853" lon="6.3101">
        <ele>153</ele>
        <time>2010-01-01T03:58:16Z</time>
      </trkpt>
      <trkpt lat="43.23835" lon="6.30976">
        <ele>152</ele>
        <time>2010-01-01T03:58:28Z</time>
      </trkpt>
      <trkpt lat="43.23808" lon="6.30939">
        <ele>153</ele>
        <time>2010-01-01T03:58:44Z</time>
      </trkpt>
      <trkpt lat="43.23773" lon="6.30905">
        <ele>153</ele>
        <time>2010-01-01T03:59:01Z</time>
      </trkpt>
      <trkpt lat="43.23677" lon="6.30795">
        <ele>153</ele>
        <time>2010-01-01T03:59:51Z</time>
      </trkpt>
      <trkpt lat="43.23688" lon="6.30761">
        <ele>153</ele>
        <time>2010-01-01T04:00:02Z</time>
      </trkpt>
      <trkpt lat="43.23699" lon="6.30748">
        <ele>153</ele>
        <time>2010-01-01T04:00:08Z</time>
      </trkpt>
      <trkpt lat="43.23694" lon="6.30742">
        <ele>154</ele>
        <time>2010-01-01T04:00:10Z</time>
      </trkpt>
      <trkpt lat="43.23664" lon="6.30657">
        <ele>151</ele>
        <time>2010-01-01T04:00:38Z</time>
      </trkpt>
      <trkpt lat="43.23661" lon="6.3064">
        <ele>152</ele>
        <time>2010-01-01T04:00:43Z</time>
      </trkpt>
      <trkpt lat="43.23677" lon="6.30545">
        <ele>155</ele>
        <time>2010-01-01T04:01:11Z</time>
      </trkpt>
      <trkpt lat="43.23692" lon="6.3049">
        <ele>156</ele>
        <time>2010-01-01T04:01:28Z</time>
      </trkpt>
      <trkpt lat="43.2371" lon="6.30442">
        <ele>155</ele>
        <time>2010-01-01T04:01:44Z</time>
      </trkpt>
      <trkpt lat="43.23871" lon="6.30053">
        <ele>149</ele>
        <time>2010-01-01T04:03:55Z</time>
      </trkpt>
      <trkpt lat="43.23886" lon="6.30009">
        <ele>149</ele>
        <time>2010-01-01T04:04:09Z</time>
      </trkpt>
      <trkpt lat="43.23921" lon="6.29865">
        <ele>150</ele>
        <time>2010-01-01T04:04:53Z</time>
      </trkpt>
      <trkpt lat="43.23923" lon="6.29826">
        <ele>150</ele>
        <time>2010-01-01T04:05:04Z</time>
      </trkpt>
      <trkpt lat="43.23913" lon="6.29743">
        <ele>148</ele>
        <time>2010-01-01T04:05:29Z</time>
      </trkpt>
      <trkpt lat="43.23901" lon="6.29682">
        <ele>147</ele>
        <time>2010-01-01T04:05:47Z</time>
      </trkpt>
      <trkpt lat="43.23817" lon="6.29475">
        <ele>142</ele>
        <time>2010-01-01T04:06:56Z</time>
      </trkpt>
      <trkpt lat="43.23802" lon="6.29427">
        <ele>141</ele>
        <time>2010-01-01T04:07:12Z</time>
      </trkpt>
      <trkpt lat="43.23801" lon="6.29199">
        <ele>141</ele>
        <time>2010-01-01T04:08:18Z</time>
      </trkpt>
      <trkpt lat="43.23797" lon="6.29136">
        <ele>141</ele>
        <time>2010-01-01T04:08:37Z</time>
      </trkpt>
      <trkpt lat="43.23783" lon="6.29039">
        <ele>142</ele>
        <time>2010-01-01T04:09:05Z</time>
      </trkpt>
      <trkpt lat="43.23763" lon="6.28953">
        <ele>142</ele>
        <time>2010-01-01T04:09:32Z</time>
      </trkpt>
      <trkpt lat="43.23744" lon="6.289">
        <ele>142</ele>
        <time>2010-01-01T04:09:49Z</time>
      </trkpt>
      <trkpt lat="43.23631" lon="6.28737">
        <ele>141</ele>
        <time>2010-01-01T04:10:55Z</time>
      </trkpt>
      <trkpt lat="43.236" lon="6.28672">
        <ele>139</ele>
        <time>2010-01-01T04:11:17Z</time>
      </trkpt>
      <trkpt lat="43.23513" lon="6.28732">
        <ele>136</ele>
        <time>2010-01-01T04:11:56Z</time>
      </trkpt>
      <trkpt lat="43.23493" lon="6.28735">
        <ele>136</ele>
        <time>2010-01-01T04:12:04Z</time>
      </trkpt>
      <trkpt lat="43.2348" lon="6.28731">
        <ele>137</ele>
        <time>2010-01-01T04:12:10Z</time>
      </trkpt>
      <trkpt lat="43.23456" lon="6.2871">
        <ele>138</ele>
        <time>2010-01-01T04:12:21Z</time>
      </trkpt>
      <trkpt lat="43.23359" lon="6.28585">
        <ele>138</ele>
        <time>2010-01-01T04:13:14Z</time>
      </trkpt>
      <trkpt lat="43.23307" lon="6.28497">
        <ele>137</ele>
        <time>2010-01-01T04:13:47Z</time>
      </trkpt>
      <trkpt lat="43.23295" lon="6.28491">
        <ele>137</ele>
        <time>2010-01-01T04:13:52Z</time>
      </trkpt>
      <trkpt lat="43.2328" lon="6.28498">
        <ele>138</ele>
        <time>2010-01-01T04:13:59Z</time>
      </trkpt>
      <trkpt lat="43.23211" lon="6.28555">
        <ele>139</ele>
        <time>2010-01-01T04:14:31Z</time>
      </trkpt>
      <trkpt lat="43.23124" lon="6.28703">
        <ele>148</ele>
        <time>2010-01-01T04:15:27Z</time>
      </trkpt>
      <trkpt lat="43.23079" lon="6.28762">
        <ele>153</ele>
        <time>2010-01-01T04:15:51Z</time>
      </trkpt>
      <trkpt lat="43.2304" lon="6.28786">
        <ele>156</ele>
        <time>2010-01-01T04:16:09Z</time>
      </trkpt>
      <trkpt lat="43.23009" lon="6.28793">
        <ele>157</ele>
        <time>2010-01-01T04:16:21Z</time>
      </trkpt>
      <trkpt lat="43.22998" lon="6.28785">
        <ele>157</ele>
        <time>2010-01-01T04:16:26Z</time>
      </trkpt>
      <trkpt lat="43.22975" lon="6.28751">
        <ele>158</ele>
        <time>2010-01-01T04:16:40Z</time>
      </trkpt>
      <trkpt lat="43.22959" lon="6.28746">
        <ele>160</ele>
        <time>2010-01-01T04:16:46Z</time>
      </trkpt>
      <trkpt lat="43.22917" lon="6.28791">
        <ele>161</ele>
        <time>2010-01-01T04:17:08Z</time>
      </trkpt>
      <trkpt lat="43.2289" lon="6.28799">
        <ele>164</ele>
        <time>2010-01-01T04:17:19Z</time>
      </trkpt>
      <trkpt lat="43.22865" lon="6.28818">
        <ele>166</ele>
        <time>2010-01-01T04:17:30Z</time>
      </trkpt>
      <trkpt lat="43.22846" lon="6.28849">
        <ele>167</ele>
        <time>2010-01-01T04:17:42Z</time>
      </trkpt>
      <trkpt lat="43.22818" lon="6.28939">
        <ele>171</ele>
        <time>2010-01-01T04:18:10Z</time>
      </trkpt>
      <trkpt lat="43.22808" lon="6.28976">
        <ele>173</ele>
        <time>2010-01-01T04:18:22Z</time>
      </trkpt>
      <trkpt lat="43.22798" lon="6.29061">
        <ele>172</ele>
        <time>2010-01-01T04:18:47Z</time>
      </trkpt>
      <trkpt lat="43.22769" lon="6.29127">
        <ele>172</ele>
        <time>2010-01-01T04:19:10Z</time>
      </trkpt>
      <trkpt lat="43.22674" lon="6.29233">
        <ele>180</ele>
        <time>2010-01-01T04:19:59Z</time>
      </trkpt>
      <trkpt lat="43.22661" lon="6.29237">
        <ele>183</ele>
        <time>2010-01-01T04:20:04Z</time>
      </trkpt>
      <trkpt lat="43.22631" lon="6.29232">
        <ele>192</ele>
        <time>2010-01-01T04:20:16Z</time>
      </trkpt>
      <trkpt lat="43.22623" lon="6.29236">
        <ele>193</ele>
        <time>2010-01-01T04:20:19Z</time>
      </trkpt>
      <trkpt lat="43.22595" lon="6.29279">
        <ele>195</ele>
        <time>2010-01-01T04:20:36Z</time>
      </trkpt>
      <trkpt lat="43.22561" lon="6.29305">
        <ele>202</ele>
        <time>2010-01-01T04:20:52Z</time>
      </trkpt>
      <trkpt lat="43.22555" lon="6.2932">
        <ele>202</ele>
        <time>2010-01-01T04:20:57Z</time>
      </trkpt>
      <trkpt lat="43.22558" lon="6.29337">
        <ele>199</ele>
        <time>2010-01-01T04:21:02Z</time>
      </trkpt>
      <trkpt lat="43.226" lon="6.29404">
        <ele>185</ele>
        <time>2010-01-01T04:21:28Z</time>
      </trkpt>
      <trkpt lat="43.22603" lon="6.29427">
        <ele>184</ele>
        <time>2010-01-01T04:21:34Z</time>
      </trkpt>
      <trkpt lat="43.22569" lon="6.29481">
        <ele>193</ele>
        <time>2010-01-01T04:21:55Z</time>
      </trkpt>
      <trkpt lat="43.22563" lon="6.29505">
        <ele>196</ele>
        <time>2010-01-01T04:22:03Z</time>
      </trkpt>
      <trkpt lat="43.22562" lon="6.29532">
        <ele>198</ele>
        <time>2010-01-01T04:22:11Z</time>
      </trkpt>
      <trkpt lat="43.22558" lon="6.2954">
        <ele>199</ele>
        <time>2010-01-01T04:22:13Z</time>
      </trkpt>
      <trkpt lat="43.22525" lon="6.29553">
        <ele>210</ele>
        <time>2010-01-01T04:22:27Z</time>
      </trkpt>
      <trkpt lat="43.2252" lon="6.29561">
        <ele>211</ele>
        <time>2010-01-01T04:22:30Z</time>
      </trkpt>
      <trkpt lat="43.2252" lon="6.29582">
        <ele>212</ele>
        <time>2010-01-01T04:22:36Z</time>
      </trkpt>
      <trkpt lat="43.22538" lon="6.29626">
        <ele>209</ele>
        <time>2010-01-01T04:22:51Z</time>
      </trkpt>
      <trkpt lat="43.22545" lon="6.29656">
        <ele>208</ele>
        <time>2010-01-01T04:23:00Z</time>
      </trkpt>
      <trkpt lat="43.22545" lon="6.29684">
        <ele>207</ele>
        <time>2010-01-01T04:23:08Z</time>
      </trkpt>
      <trkpt lat="43.22538" lon="6.29699">
        <ele>207</ele>
        <time>2010-01-01T04:23:14Z</time>
      </trkpt>
      <trkpt lat="43.22517" lon="6.2971">
        <ele>211</ele>
        <time>2010-01-01T04:23:23Z</time>
      </trkpt>
      <trkpt lat="43.22453" lon="6.29712">
        <ele>216</ele>
        <time>2010-01-01T04:23:48Z</time>
      </trkpt>
      <trkpt lat="43.22443" lon="6.29708">
        <ele>217</ele>
        <time>2010-01-01T04:23:52Z</time>
      </trkpt>
      <trkpt lat="43.2237" lon="6.2964">
        <ele>225</ele>
        <time>2010-01-01T04:24:28Z</time>
      </trkpt>
      <trkpt lat="43.22345" lon="6.29599">
        <ele>233</ele>
        <time>2010-01-01T04:24:43Z</time>
      </trkpt>
      <trkpt lat="43.22314" lon="6.29564">
        <ele>241</ele>
        <time>2010-01-01T04:24:59Z</time>
      </trkpt>
      <trkpt lat="43.22286" lon="6.29541">
        <ele>245</ele>
        <time>2010-01-01T04:25:12Z</time>
      </trkpt>
      <trkpt lat="43.22267" lon="6.2953">
        <ele>248</ele>
        <time>2010-01-01T04:25:21Z</time>
      </trkpt>
      <trkpt lat="43.22234" lon="6.29522">
        <ele>251</ele>
        <time>2010-01-01T04:25:34Z</time>
      </trkpt>
      <trkpt lat="43.22225" lon="6.29525">
        <ele>251</ele>
        <time>2010-01-01T04:25:38Z</time>
      </trkpt>
      <trkpt lat="43.2222" lon="6.29534">
        <ele>250</ele>
        <time>2010-01-01T04:25:41Z</time>
      </trkpt>
      <trkpt lat="43.22209" lon="6.29596">
        <ele>240</ele>
        <time>2010-01-01T04:26:00Z</time>
      </trkpt>
      <trkpt lat="43.22186" lon="6.29621">
        <ele>237</ele>
        <time>2010-01-01T04:26:11Z</time>
      </trkpt>
      <trkpt lat="43.22164" lon="6.29621">
        <ele>239</ele>
        <time>2010-01-01T04:26:20Z</time>
      </trkpt>
      <trkpt lat="43.22127" lon="6.29609">
        <ele>242</ele>
        <time>2010-01-01T04:26:35Z</time>
      </trkpt>
      <trkpt lat="43.22094" lon="6.29571">
        <ele>250</ele>
        <time>2010-01-01T04:26:53Z</time>
      </trkpt>
      <trkpt lat="43.22085" lon="6.29568">
        <ele>251</ele>
        <time>2010-01-01T04:26:56Z</time>
      </trkpt>
      <trkpt lat="43.22072" lon="6.29577">
        <ele>249</ele>
        <time>2010-01-01T04:27:02Z</time>
      </trkpt>
      <trkpt lat="43.22059" lon="6.2961">
        <ele>242</ele>
        <time>2010-01-01T04:27:13Z</time>
      </trkpt>
      <trkpt lat="43.22046" lon="6.29615">
        <ele>241</ele>
        <time>2010-01-01T04:27:19Z</time>
      </trkpt>
      <trkpt lat="43.21938" lon="6.29559">
        <ele>253</ele>
        <time>2010-01-01T04:28:05Z</time>
      </trkpt>
      <trkpt lat="43.21929" lon="6.29547">
        <ele>255</ele>
        <time>2010-01-01T04:28:10Z</time>
      </trkpt>
      <trkpt lat="43.21921" lon="6.29501">
        <ele>261</ele>
        <time>2010-01-01T04:28:24Z</time>
      </trkpt>
      <trkpt lat="43.21915" lon="6.29492">
        <ele>262</ele>
        <time>2010-01-01T04:28:27Z</time>
      </trkpt>
      <trkpt lat="43.21904" lon="6.29492">
        <ele>264</ele>
        <time>2010-01-01T04:28:32Z</time>
      </trkpt>
      <trkpt lat="43.2187" lon="6.29529">
        <ele>264</ele>
        <time>2010-01-01T04:28:49Z</time>
      </trkpt>
      <trkpt lat="43.21861" lon="6.29531">
        <ele>265</ele>
        <time>2010-01-01T04:28:53Z</time>
      </trkpt>
      <trkpt lat="43.21829" lon="6.29521">
        <ele>271</ele>
        <time>2010-01-01T04:29:06Z</time>
      </trkpt>
      <trkpt lat="43.21803" lon="6.29528">
        <ele>275</ele>
        <time>2010-01-01T04:29:16Z</time>
      </trkpt>
      <trkpt lat="43.21791" lon="6.29543">
        <ele>274</ele>
        <time>2010-01-01T04:29:23Z</time>
      </trkpt>
      <trkpt lat="43.21782" lon="6.29572">
        <ele>270</ele>
        <time>2010-01-01T04:29:32Z</time>
      </trkpt>
      <trkpt lat="43.21772" lon="6.2958">
        <ele>270</ele>
        <time>2010-01-01T04:29:37Z</time>
      </trkpt>
      <trkpt lat="43.21753" lon="6.29578">
        <ele>273</ele>
        <time>2010-01-01T04:29:44Z</time>
      </trkpt>
      <trkpt lat="43.21728" lon="6.29566">
        <ele>280</ele>
        <time>2010-01-01T04:29:55Z</time>
      </trkpt>
      <trkpt lat="43.21721" lon="6.29566">
        <ele>281</ele>
        <time>2010-01-01T04:29:58Z</time>
      </trkpt>
      <trkpt lat="43.21711" lon="6.29575">
        <ele>280</ele>
        <time>2010-01-01T04:30:03Z</time>
      </trkpt>
      <trkpt lat="43.21709" lon="6.29591">
        <ele>279</ele>
        <time>2010-01-01T04:30:07Z</time>
      </trkpt>
      <trkpt lat="43.21713" lon="6.296">
        <ele>279</ele>
        <time>2010-01-01T04:30:10Z</time>
      </trkpt>
      <trkpt lat="43.21743" lon="6.29638">
        <ele>275</ele>
        <time>2010-01-01T04:30:27Z</time>
      </trkpt>
      <trkpt lat="43.21779" lon="6.29673">
        <ele>270</ele>
        <time>2010-01-01T04:30:44Z</time>
      </trkpt>
      <trkpt lat="43.2179" lon="6.29721">
        <ele>274</ele>
        <time>2010-01-01T04:30:59Z</time>
      </trkpt>
      <trkpt lat="43.21822" lon="6.29759">
        <ele>272</ele>
        <time>2010-01-01T04:31:16Z</time>
      </trkpt>
      <trkpt lat="43.21849" lon="6.29779">
        <ele>268</ele>
        <time>2010-01-01T04:31:28Z</time>
      </trkpt>
      <trkpt lat="43.21857" lon="6.29792">
        <ele>268</ele>
        <time>2010-01-01T04:31:33Z</time>
      </trkpt>
      <trkpt lat="43.21857" lon="6.29814">
        <ele>271</ele>
        <time>2010-01-01T04:31:40Z</time>
      </trkpt>
      <trkpt lat="43.21843" lon="6.29838">
        <ele>278</ele>
        <time>2010-01-01T04:31:49Z</time>
      </trkpt>
      <trkpt lat="43.21838" lon="6.29856">
        <ele>281</ele>
        <time>2010-01-01T04:31:54Z</time>
      </trkpt>
      <trkpt lat="43.21843" lon="6.29897">
        <ele>283</ele>
        <time>2010-01-01T04:32:06Z</time>
      </trkpt>
      <trkpt lat="43.21839" lon="6.29967">
        <ele>282</ele>
        <time>2010-01-01T04:32:27Z</time>
      </trkpt>
      <trkpt lat="43.21823" lon="6.30007">
        <ele>283</ele>
        <time>2010-01-01T04:32:40Z</time>
      </trkpt>
      <trkpt lat="43.21803" lon="6.30026">
        <ele>283</ele>
        <time>2010-01-01T04:32:50Z</time>
      </trkpt>
      <trkpt lat="43.21664" lon="6.29985">
        <ele>303</ele>
        <time>2010-01-01T04:33:47Z</time>
      </trkpt>
      <trkpt lat="43.21652" lon="6.29977">
        <ele>301</ele>
        <time>2010-01-01T04:33:52Z</time>
      </trkpt>
      <trkpt lat="43.21635" lon="6.29937">
        <ele>304</ele>
        <time>2010-01-01T04:34:06Z</time>
      </trkpt>
      <trkpt lat="43.21618" lon="6.29853">
        <ele>314</ele>
        <time>2010-01-01T04:34:31Z</time>
      </trkpt>
      <trkpt lat="43.21601" lon="6.29812">
        <ele>317</ele>
        <time>2010-01-01T04:34:45Z</time>
      </trkpt>
      <trkpt lat="43.21586" lon="6.29791">
        <ele>318</ele>
        <time>2010-01-01T04:34:53Z</time>
      </trkpt>
      <trkpt lat="43.21548" lon="6.2978">
        <ele>323</ele>
        <time>2010-01-01T04:35:09Z</time>
      </trkpt>
      <trkpt lat="43.21494" lon="6.29776">
        <ele>328</ele>
        <time>2010-01-01T04:35:31Z</time>
      </trkpt>
      <trkpt lat="43.21473" lon="6.2978">
        <ele>325</ele>
        <time>2010-01-01T04:35:39Z</time>
      </trkpt>
      <trkpt lat="43.21441" lon="6.29796">
        <ele>318</ele>
        <time>2010-01-01T04:35:53Z</time>
      </trkpt>
      <trkpt lat="43.21427" lon="6.29797">
        <ele>317</ele>
        <time>2010-01-01T04:35:58Z</time>
      </trkpt>
      <trkpt lat="43.21397" lon="6.29787">
        <ele>316</ele>
        <time>2010-01-01T04:36:11Z</time>
      </trkpt>
      <trkpt lat="43.21358" lon="6.29784">
        <ele>312</ele>
        <time>2010-01-01T04:36:26Z</time>
      </trkpt>
      <trkpt lat="43.21349" lon="6.29776">
        <ele>313</ele>
        <time>2010-01-01T04:36:31Z</time>
      </trkpt>
      <trkpt lat="43.21344" lon="6.29761">
        <ele>316</ele>
        <time>2010-01-01T04:36:35Z</time>
      </trkpt>
      <trkpt lat="43.21345" lon="6.29737">
        <ele>321</ele>
        <time>2010-01-01T04:36:42Z</time>
      </trkpt>
      <trkpt lat="43.2134" lon="6.29704">
        <ele>324</ele>
        <time>2010-01-01T04:36:52Z</time>
      </trkpt>
      <trkpt lat="43.21316" lon="6.29608">
        <ele>329</ele>
        <time>2010-01-01T04:37:22Z</time>
      </trkpt>
      <trkpt lat="43.21295" lon="6.29542">
        <ele>331</ele>
        <time>2010-01-01T04:37:43Z</time>
      </trkpt>
      <trkpt lat="43.21299" lon="6.29509">
        <ele>334</ele>
        <time>2010-01-01T04:37:53Z</time>
      </trkpt>
      <trkpt lat="43.21335" lon="6.29418">
        <ele>349</ele>
        <time>2010-01-01T04:38:23Z</time>
      </trkpt>
      <trkpt lat="43.21338" lon="6.294">
        <ele>353</ele>
        <time>2010-01-01T04:38:28Z</time>
      </trkpt>
      <trkpt lat="43.21332" lon="6.29383">
        <ele>357</ele>
        <time>2010-01-01T04:38:34Z</time>
      </trkpt>
      <trkpt lat="43.21316" lon="6.2938">
        <ele>357</ele>
        <time>2010-01-01T04:38:40Z</time>
      </trkpt>
      <trkpt lat="43.21264" lon="6.29385">
        <ele>354</ele>
        <time>2010-01-01T04:39:01Z</time>
      </trkpt>
      <trkpt lat="43.21192" lon="6.29402">
        <ele>350</ele>
        <time>2010-01-01T04:39:30Z</time>
      </trkpt>
      <trkpt lat="43.21181" lon="6.29394">
        <ele>351</ele>
        <time>2010-01-01T04:39:35Z</time>
      </trkpt>
      <trkpt lat="43.21147" lon="6.29349">
        <ele>357</ele>
        <time>2010-01-01T04:39:54Z</time>
      </trkpt>
      <trkpt lat="43.21124" lon="6.29341">
        <ele>359</ele>
        <time>2010-01-01T04:40:04Z</time>
      </trkpt>
      <trkpt lat="43.211" lon="6.29351">
        <ele>358</ele>
        <time>2010-01-01T04:40:14Z</time>
      </trkpt>
      <trkpt lat="43.21088" lon="6.29366">
        <ele>356</ele>
        <time>2010-01-01T04:40:20Z</time>
      </trkpt>
      <trkpt lat="43.21067" lon="6.29408">
        <ele>353</ele>
        <time>2010-01-01T04:40:35Z</time>
      </trkpt>
      <trkpt lat="43.21051" lon="6.29423">
        <ele>353</ele>
        <time>2010-01-01T04:40:43Z</time>
      </trkpt>
      <trkpt lat="43.20991" lon="6.29431">
        <ele>359</ele>
        <time>2010-01-01T04:41:07Z</time>
      </trkpt>
      <trkpt lat="43.20958" lon="6.29407">
        <ele>360</ele>
        <time>2010-01-01T04:41:22Z</time>
      </trkpt>
      <trkpt lat="43.20925" lon="6.29399">
        <ele>360</ele>
        <time>2010-01-01T04:41:35Z</time>
      </trkpt>
      <trkpt lat="43.2091" lon="6.29402">
        <ele>360</ele>
        <time>2010-01-01T04:41:41Z</time>
      </trkpt>
      <trkpt lat="43.20891" lon="6.2942">
        <ele>361</ele>
        <time>2010-01-01T04:41:51Z</time>
      </trkpt>
      <trkpt lat="43.2088" lon="6.29424">
        <ele>361</ele>
        <time>2010-01-01T04:41:55Z</time>
      </trkpt>
      <trkpt lat="43.2081" lon="6.29425">
        <ele>365</ele>
        <time>2010-01-01T04:42:23Z</time>
      </trkpt>
      <trkpt lat="43.20797" lon="6.29442">
        <ele>366</ele>
        <time>2010-01-01T04:42:30Z</time>
      </trkpt>
      <trkpt lat="43.20803" lon="6.2949">
        <ele>364</ele>
        <time>2010-01-01T04:42:45Z</time>
      </trkpt>
      <trkpt lat="43.20802" lon="6.29509">
        <ele>362</ele>
        <time>2010-01-01T04:42:50Z</time>
      </trkpt>
      <trkpt lat="43.20794" lon="6.29524">
        <ele>360</ele>
        <time>2010-01-01T04:42:56Z</time>
      </trkpt>
      <trkpt lat="43.20774" lon="6.29537">
        <ele>358</ele>
        <time>2010-01-01T04:43:05Z</time>
      </trkpt>
      <trkpt lat="43.20754" lon="6.2954">
        <ele>359</ele>
        <time>2010-01-01T04:43:13Z</time>
      </trkpt>
      <trkpt lat="43.20725" lon="6.29531">
        <ele>365</ele>
        <time>2010-01-01T04:43:24Z</time>
      </trkpt>
      <trkpt lat="43.20656" lon="6.29485">
        <ele>379</ele>
        <time>2010-01-01T04:43:55Z</time>
      </trkpt>
      <trkpt lat="43.2064" lon="6.29487">
        <ele>380</ele>
        <time>2010-01-01T04:44:02Z</time>
      </trkpt>
      <trkpt lat="43.20634" lon="6.29493">
        <ele>380</ele>
        <time>2010-01-01T04:44:05Z</time>
      </trkpt>
      <trkpt lat="43.20617" lon="6.2954">
        <ele>380</ele>
        <time>2010-01-01T04:44:20Z</time>
      </trkpt>
      <trkpt lat="43.20586" lon="6.29569">
        <ele>387</ele>
        <time>2010-01-01T04:44:35Z</time>
      </trkpt>
      <trkpt lat="43.20586" lon="6.2959">
        <ele>388</ele>
        <time>2010-01-01T04:44:41Z</time>
      </trkpt>
      <trkpt lat="43.2061" lon="6.29646">
        <ele>384</ele>
        <time>2010-01-01T04:45:00Z</time>
      </trkpt>
      <trkpt lat="43.20619" lon="6.29658">
        <ele>382</ele>
        <time>2010-01-01T04:45:05Z</time>
      </trkpt>
      <trkpt lat="43.20656" lon="6.29681">
        <ele>374</ele>
        <time>2010-01-01T04:45:21Z</time>
      </trkpt>
      <trkpt lat="43.20668" lon="6.29696">
        <ele>373</ele>
        <time>2010-01-01T04:45:28Z</time>
      </trkpt>
      <trkpt lat="43.20684" lon="6.29735">
        <ele>374</ele>
        <time>2010-01-01T04:45:41Z</time>
      </trkpt>
      <trkpt lat="43.20728" lon="6.29767">
        <ele>365</ele>
        <time>2010-01-01T04:46:01Z</time>
      </trkpt>
      <trkpt lat="43.20736" lon="6.29789">
        <ele>365</ele>
        <time>2010-01-01T04:46:08Z</time>
      </trkpt>
      <trkpt lat="43.20733" lon="6.29816">
        <ele>368</ele>
        <time>2010-01-01T04:46:16Z</time>
      </trkpt>
      <trkpt lat="43.20712" lon="6.29894">
        <ele>375</ele>
        <time>2010-01-01T04:46:40Z</time>
      </trkpt>
      <trkpt lat="43.207" lon="6.29913">
        <ele>379</ele>
        <time>2010-01-01T04:46:48Z</time>
      </trkpt>
      <trkpt lat="43.20619" lon="6.29938">
        <ele>398</ele>
        <time>2010-01-01T04:47:21Z</time>
      </trkpt>
      <trkpt lat="43.20599" lon="6.2993">
        <ele>405</ele>
        <time>2010-01-01T04:47:29Z</time>
      </trkpt>
      <trkpt lat="43.20575" lon="6.29908">
        <ele>415</ele>
        <time>2010-01-01T04:47:41Z</time>
      </trkpt>
      <trkpt lat="43.20563" lon="6.29906">
        <ele>418</ele>
        <time>2010-01-01T04:47:45Z</time>
      </trkpt>
      <trkpt lat="43.20533" lon="6.29937">
        <ele>417</ele>
        <time>2010-01-01T04:48:01Z</time>
      </trkpt>
      <trkpt lat="43.20492" lon="6.29945">
        <ele>423</ele>
        <time>2010-01-01T04:48:17Z</time>
      </trkpt>
      <trkpt lat="43.20478" lon="6.29958">
        <ele>423</ele>
        <time>2010-01-01T04:48:24Z</time>
      </trkpt>
      <trkpt lat="43.20475" lon="6.2997">
        <ele>421</ele>
        <time>2010-01-01T04:48:28Z</time>
      </trkpt>
      <trkpt lat="43.20481" lon="6.29999">
        <ele>410</ele>
        <time>2010-01-01T04:48:36Z</time>
      </trkpt>
      <trkpt lat="43.2051" lon="6.3007">
        <ele>397</ele>
        <time>2010-01-01T04:49:00Z</time>
      </trkpt>
      <trkpt lat="43.20504" lon="6.30113">
        <ele>400</ele>
        <time>2010-01-01T04:49:13Z</time>
      </trkpt>
      <trkpt lat="43.20506" lon="6.3013">
        <ele>401</ele>
        <time>2010-01-01T04:49:18Z</time>
      </trkpt>
      <trkpt lat="43.20532" lon="6.30175">
        <ele>395</ele>
        <time>2010-01-01T04:49:35Z</time>
      </trkpt>
      <trkpt lat="43.20533" lon="6.30188">
        <ele>395</ele>
        <time>2010-01-01T04:49:38Z</time>
      </trkpt>
      <trkpt lat="43.20526" lon="6.30217">
        <ele>397</ele>
        <time>2010-01-01T04:49:47Z</time>
      </trkpt>
      <trkpt lat="43.20509" lon="6.30255">
        <ele>401</ele>
        <time>2010-01-01T04:50:00Z</time>
      </trkpt>
      <trkpt lat="43.20452" lon="6.30351">
        <ele>410</ele>
        <time>2010-01-01T04:50:37Z</time>
      </trkpt>
      <trkpt lat="43.20412" lon="6.30456">
        <ele>414</ele>
        <time>2010-01-01T04:51:11Z</time>
      </trkpt>
      <trkpt lat="43.20388" lon="6.30492">
        <ele>414</ele>
        <time>2010-01-01T04:51:25Z</time>
      </trkpt>
      <trkpt lat="43.20378" lon="6.30524">
        <ele>416</ele>
        <time>2010-01-01T04:51:35Z</time>
      </trkpt>
      <trkpt lat="43.20366" lon="6.30538">
        <ele>417</ele>
        <time>2010-01-01T04:51:42Z</time>
      </trkpt>
      <trkpt lat="43.20314" lon="6.30571">
        <ele>416</ele>
        <time>2010-01-01T04:52:05Z</time>
      </trkpt>
      <trkpt lat="43.20265" lon="6.30575">
        <ele>407</ele>
        <time>2010-01-01T04:52:24Z</time>
      </trkpt>
      <trkpt lat="43.20257" lon="6.30583">
        <ele>407</ele>
        <time>2010-01-01T04:52:28Z</time>
      </trkpt>
      <trkpt lat="43.20254" lon="6.30595">
        <ele>408</ele>
        <time>2010-01-01T04:52:32Z</time>
      </trkpt>
      <trkpt lat="43.2026" lon="6.30625">
        <ele>414</ele>
        <time>2010-01-01T04:52:41Z</time>
      </trkpt>
      <trkpt lat="43.20287" lon="6.30696">
        <ele>427</ele>
        <time>2010-01-01T04:53:04Z</time>
      </trkpt>
      <trkpt lat="43.20288" lon="6.30821">
        <ele>433</ele>
        <time>2010-01-01T04:53:41Z</time>
      </trkpt>
      <trkpt lat="43.20294" lon="6.30859">
        <ele>435</ele>
        <time>2010-01-01T04:53:52Z</time>
      </trkpt>
      <trkpt lat="43.20315" lon="6.30926">
        <ele>444</ele>
        <time>2010-01-01T04:54:14Z</time>
      </trkpt>
      <trkpt lat="43.20314" lon="6.30964">
        <ele>443</ele>
        <time>2010-01-01T04:54:25Z</time>
      </trkpt>
      <trkpt lat="43.20299" lon="6.31024">
        <ele>436</ele>
        <time>2010-01-01T04:54:43Z</time>
      </trkpt>
      <trkpt lat="43.20275" lon="6.31064">
        <ele>426</ele>
        <time>2010-01-01T04:54:58Z</time>
      </trkpt>
      <trkpt lat="43.20249" lon="6.31131">
        <ele>422</ele>
        <time>2010-01-01T04:55:20Z</time>
      </trkpt>
      <trkpt lat="43.2022" lon="6.31165">
        <ele>414</ele>
        <time>2010-01-01T04:55:36Z</time>
      </trkpt>
      <trkpt lat="43.20207" lon="6.31167">
        <ele>408</ele>
        <time>2010-01-01T04:55:41Z</time>
      </trkpt>
      <trkpt lat="43.20171" lon="6.31158">
        <ele>388</ele>
        <time>2010-01-01T04:55:56Z</time>
      </trkpt>
      <trkpt lat="43.2015" lon="6.31161">
        <ele>388</ele>
        <time>2010-01-01T04:56:04Z</time>
      </trkpt>
      <trkpt lat="43.20114" lon="6.31143">
        <ele>382</ele>
        <time>2010-01-01T04:56:19Z</time>
      </trkpt>
      <trkpt lat="43.19974" lon="6.31126">
        <ele>384</ele>
        <time>2010-01-01T04:57:16Z</time>
      </trkpt>
      <trkpt lat="43.19933" lon="6.31139">
        <ele>386</ele>
        <time>2010-01-01T04:57:32Z</time>
      </trkpt>
      <trkpt lat="43.19898" lon="6.31171">
        <ele>385</ele>
        <time>2010-01-01T04:57:49Z</time>
      </trkpt>
      <trkpt lat="43.19889" lon="6.31207">
        <ele>387</ele>
        <time>2010-01-01T04:58:00Z</time>
      </trkpt>
      <trkpt lat="43.19898" lon="6.31234">
        <ele>393</ele>
        <time>2010-01-01T04:58:09Z</time>
      </trkpt>
      <trkpt lat="43.19911" lon="6.31306">
        <ele>403</ele>
        <time>2010-01-01T04:58:31Z</time>
      </trkpt>
      <trkpt lat="43.19915" lon="6.31345">
        <ele>406</ele>
        <time>2010-01-01T04:58:42Z</time>
      </trkpt>
      <trkpt lat="43.19884" lon="6.31482">
        <ele>405</ele>
        <time>2010-01-01T04:59:24Z</time>
      </trkpt>
      <trkpt lat="43.19877" lon="6.31497">
        <ele>404</ele>
        <time>2010-01-01T04:59:29Z</time>
      </trkpt>
      <trkpt lat="43.19872" lon="6.31502">
        <ele>403</ele>
        <time>2010-01-01T04:59:32Z</time>
      </trkpt>
      <trkpt lat="43.19867" lon="6.315">
        <ele>402</ele>
        <time>2010-01-01T04:59:34Z</time>
      </trkpt>
      <trkpt lat="43.19834" lon="6.31414">
        <ele>388</ele>
        <time>2010-01-01T05:00:02Z</time>
      </trkpt>
      <trkpt lat="43.19819" lon="6.31385">
        <ele>388</ele>
        <time>2010-01-01T05:00:13Z</time>
      </trkpt>
      <trkpt lat="43.19729" lon="6.3123">
        <ele>368</ele>
        <time>2010-01-01T05:01:10Z</time>
      </trkpt>
      <trkpt lat="43.19717" lon="6.31217">
        <ele>365</ele>
        <time>2010-01-01T05:01:17Z</time>
      </trkpt>
      <trkpt lat="43.19705" lon="6.3122">
        <ele>366</ele>
        <time>2010-01-01T05:01:21Z</time>
      </trkpt>
      <trkpt lat="43.197" lon="6.3124">
        <ele>370</ele>
        <time>2010-01-01T05:01:28Z</time>
      </trkpt>
      <trkpt lat="43.19697" lon="6.313">
        <ele>381</ele>
        <time>2010-01-01T05:01:45Z</time>
      </trkpt>
      <trkpt lat="43.19687" lon="6.31333">
        <ele>387</ele>
        <time>2010-01-01T05:01:56Z</time>
      </trkpt>
      <trkpt lat="43.19672" lon="6.31349">
        <ele>389</ele>
        <time>2010-01-01T05:02:03Z</time>
      </trkpt>
      <trkpt lat="43.19634" lon="6.31361">
        <ele>378</ele>
        <time>2010-01-01T05:02:19Z</time>
      </trkpt>
      <trkpt lat="43.19628" lon="6.31375">
        <ele>379</ele>
        <time>2010-01-01T05:02:24Z</time>
      </trkpt>
      <trkpt lat="43.19619" lon="6.31425">
        <ele>386</ele>
        <time>2010-01-01T05:02:39Z</time>
      </trkpt>
      <trkpt lat="43.19603" lon="6.31468">
        <ele>390</ele>
        <time>2010-01-01T05:02:53Z</time>
      </trkpt>
      <trkpt lat="43.19593" lon="6.31483">
        <ele>390</ele>
        <time>2010-01-01T05:02:59Z</time>
      </trkpt>
      <trkpt lat="43.19551" lon="6.3152">
        <ele>395</ele>
        <time>2010-01-01T05:03:19Z</time>
      </trkpt>
      <trkpt lat="43.1952" lon="6.31555">
        <ele>405</ele>
        <time>2010-01-01T05:03:35Z</time>
      </trkpt>
      <trkpt lat="43.19507" lon="6.31555">
        <ele>404</ele>
        <time>2010-01-01T05:03:40Z</time>
      </trkpt>
      <trkpt lat="43.19476" lon="6.31514">
        <ele>387</ele>
        <time>2010-01-01T05:03:57Z</time>
      </trkpt>
      <trkpt lat="43.19434" lon="6.31492">
        <ele>380</ele>
        <time>2010-01-01T05:04:15Z</time>
      </trkpt>
      <trkpt lat="43.19396" lon="6.31481">
        <ele>375</ele>
        <time>2010-01-01T05:04:31Z</time>
      </trkpt>
      <trkpt lat="43.19367" lon="6.3148">
        <ele>375</ele>
        <time>2010-01-01T05:04:42Z</time>
      </trkpt>
      <trkpt lat="43.19312" lon="6.31493">
        <ele>380</ele>
        <time>2010-01-01T05:05:05Z</time>
      </trkpt>
      <trkpt lat="43.19291" lon="6.31506">
        <ele>384</ele>
        <time>2010-01-01T05:05:14Z</time>
      </trkpt>
      <trkpt lat="43.19283" lon="6.31544">
        <ele>397</ele>
        <time>2010-01-01T05:05:25Z</time>
      </trkpt>
      <trkpt lat="43.19278" lon="6.3155">
        <ele>399</ele>
        <time>2010-01-01T05:05:28Z</time>
      </trkpt>
      <trkpt lat="43.19238" lon="6.31555">
        <ele>394</ele>
        <time>2010-01-01T05:05:44Z</time>
      </trkpt>
      <trkpt lat="43.1922" lon="6.31571">
        <ele>394</ele>
        <time>2010-01-01T05:05:53Z</time>
      </trkpt>
      <trkpt lat="43.19182" lon="6.31657">
        <ele>405</ele>
        <time>2010-01-01T05:06:22Z</time>
      </trkpt>
      <trkpt lat="43.1917" lon="6.31715">
        <ele>414</ele>
        <time>2010-01-01T05:06:40Z</time>
      </trkpt>
      <trkpt lat="43.19162" lon="6.31736">
        <ele>416</ele>
        <time>2010-01-01T05:06:47Z</time>
      </trkpt>
      <trkpt lat="43.19126" lon="6.31802">
        <ele>426</ele>
        <time>2010-01-01T05:07:11Z</time>
      </trkpt>
      <trkpt lat="43.19067" lon="6.31798">
        <ele>417</ele>
        <time>2010-01-01T05:07:34Z</time>
      </trkpt>
      <trkpt lat="43.19041" lon="6.3179">
        <ele>414</ele>
        <time>2010-01-01T05:07:45Z</time>
      </trkpt>
      <trkpt lat="43.19024" lon="6.31778">
        <ele>410</ele>
        <time>2010-01-01T05:07:53Z</time>
      </trkpt>
      <trkpt lat="43.18999" lon="6.31743">
        <ele>396</ele>
        <time>2010-01-01T05:08:07Z</time>
      </trkpt>
      <trkpt lat="43.18955" lon="6.31716">
        <ele>389</ele>
        <time>2010-01-01T05:08:26Z</time>
      </trkpt>
      <trkpt lat="43.18943" lon="6.31715">
        <ele>389</ele>
        <time>2010-01-01T05:08:31Z</time>
      </trkpt>
      <trkpt lat="43.18933" lon="6.31721">
        <ele>391</ele>
        <time>2010-01-01T05:08:35Z</time>
      </trkpt>
      <trkpt lat="43.18917" lon="6.31755">
        <ele>399</ele>
        <time>2010-01-01T05:08:47Z</time>
      </trkpt>
      <trkpt lat="43.18899" lon="6.31817">
        <ele>405</ele>
        <time>2010-01-01T05:09:07Z</time>
      </trkpt>
      <trkpt lat="43.18898" lon="6.31895">
        <ele>416</ele>
        <time>2010-01-01T05:09:29Z</time>
      </trkpt>
      <trkpt lat="43.18892" lon="6.31934">
        <ele>417</ele>
        <time>2010-01-01T05:09:41Z</time>
      </trkpt>
      <trkpt lat="43.1889" lon="6.32006">
        <ele>420</ele>
        <time>2010-01-01T05:10:02Z</time>
      </trkpt>
      <trkpt lat="43.18857" lon="6.32157">
        <ele>394</ele>
        <time>2010-01-01T05:10:48Z</time>
      </trkpt>
      <trkpt lat="43.18857" lon="6.32192">
        <ele>390</ele>
        <time>2010-01-01T05:10:58Z</time>
      </trkpt>
      <trkpt lat="43.18864" lon="6.32215">
        <ele>390</ele>
        <time>2010-01-01T05:11:06Z</time>
      </trkpt>
      <trkpt lat="43.18877" lon="6.32217">
        <ele>395</ele>
        <time>2010-01-01T05:11:11Z</time>
      </trkpt>
      <trkpt lat="43.189" lon="6.32202">
        <ele>406</ele>
        <time>2010-01-01T05:11:21Z</time>
      </trkpt>
      <trkpt lat="43.18906" lon="6.3221">
        <ele>406</ele>
        <time>2010-01-01T05:11:24Z</time>
      </trkpt>
      <trkpt lat="43.18907" lon="6.32219">
        <ele>405</ele>
        <time>2010-01-01T05:11:27Z</time>
      </trkpt>
      <trkpt lat="43.1889" lon="6.32282">
        <ele>393</ele>
        <time>2010-01-01T05:11:47Z</time>
      </trkpt>
      <trkpt lat="43.18858" lon="6.32365">
        <ele>388</ele>
        <time>2010-01-01T05:12:14Z</time>
      </trkpt>
      <trkpt lat="43.18813" lon="6.32445">
        <ele>384</ele>
        <time>2010-01-01T05:12:43Z</time>
      </trkpt>
      <trkpt lat="43.18761" lon="6.32499">
        <ele>374</ele>
        <time>2010-01-01T05:13:10Z</time>
      </trkpt>
      <trkpt lat="43.1873" lon="6.32576">
        <ele>373</ele>
        <time>2010-01-01T05:13:35Z</time>
      </trkpt>
      <trkpt lat="43.18727" lon="6.32595">
        <ele>373</ele>
        <time>2010-01-01T05:13:41Z</time>
      </trkpt>
      <trkpt lat="43.18734" lon="6.32677">
        <ele>369</ele>
        <time>2010-01-01T05:14:05Z</time>
      </trkpt>
      <trkpt lat="43.18782" lon="6.32885">
        <ele>357</ele>
        <time>2010-01-01T05:15:09Z</time>
      </trkpt>
      <trkpt lat="43.18788" lon="6.3296">
        <ele>352</ele>
        <time>2010-01-01T05:15:31Z</time>
      </trkpt>
      <trkpt lat="43.18779" lon="6.33011">
        <ele>350</ele>
        <time>2010-01-01T05:15:46Z</time>
      </trkpt>
      <trkpt lat="43.18767" lon="6.33051">
        <ele>350</ele>
        <time>2010-01-01T05:15:59Z</time>
      </trkpt>
      <trkpt lat="43.18757" lon="6.33061">
        <ele>352</ele>
        <time>2010-01-01T05:16:04Z</time>
      </trkpt>
      <trkpt lat="43.18744" lon="6.33059">
        <ele>355</ele>
        <time>2010-01-01T05:16:09Z</time>
      </trkpt>
      <trkpt lat="43.18737" lon="6.33063">
        <ele>356</ele>
        <time>2010-01-01T05:16:12Z</time>
      </trkpt>
      <trkpt lat="43.18729" lon="6.33079">
        <ele>356</ele>
        <time>2010-01-01T05:16:18Z</time>
      </trkpt>
      <trkpt lat="43.1873" lon="6.33142">
        <ele>352</ele>
        <time>2010-01-01T05:16:36Z</time>
      </trkpt>
      <trkpt lat="43.18709" lon="6.33214">
        <ele>349</ele>
        <time>2010-01-01T05:16:59Z</time>
      </trkpt>
      <trkpt lat="43.18709" lon="6.33228">
        <ele>348</ele>
        <time>2010-01-01T05:17:03Z</time>
      </trkpt>
      <trkpt lat="43.18721" lon="6.33252">
        <ele>344</ele>
        <time>2010-01-01T05:17:11Z</time>
      </trkpt>
      <trkpt lat="43.18724" lon="6.33267">
        <ele>342</ele>
        <time>2010-01-01T05:17:16Z</time>
      </trkpt>
      <trkpt lat="43.18722" lon="6.333">
        <ele>339</ele>
        <time>2010-01-01T05:17:25Z</time>
      </trkpt>
      <trkpt lat="43.18716" lon="6.33313">
        <ele>339</ele>
        <time>2010-01-01T05:17:30Z</time>
      </trkpt>
      <trkpt lat="43.187" lon="6.33318">
        <ele>341</ele>
        <time>2010-01-01T05:17:36Z</time>
      </trkpt>
      <trkpt lat="43.18672" lon="6.33296">
        <ele>349</ele>
        <time>2010-01-01T05:17:49Z</time>
      </trkpt>
      <trkpt lat="43.18657" lon="6.33294">
        <ele>351</ele>
        <time>2010-01-01T05:17:55Z</time>
      </trkpt>
      <trkpt lat="43.18631" lon="6.33315">
        <ele>353</ele>
        <time>2010-01-01T05:18:07Z</time>
      </trkpt>
      <trkpt lat="43.18594" lon="6.33329">
        <ele>357</ele>
        <time>2010-01-01T05:18:23Z</time>
      </trkpt>
      <trkpt lat="43.18585" lon="6.33344">
        <ele>358</ele>
        <time>2010-01-01T05:18:28Z</time>
      </trkpt>
      <trkpt lat="43.18581" lon="6.33362">
        <ele>357</ele>
        <time>2010-01-01T05:18:34Z</time>
      </trkpt>
      <trkpt lat="43.1858" lon="6.33391">
        <ele>357</ele>
        <time>2010-01-01T05:18:42Z</time>
      </trkpt>
      <trkpt lat="43.18586" lon="6.33412">
        <ele>356</ele>
        <time>2010-01-01T05:18:49Z</time>
      </trkpt>
      <trkpt lat="43.1862" lon="6.3345">
        <ele>348</ele>
        <time>2010-01-01T05:19:07Z</time>
      </trkpt>
      <trkpt lat="43.18636" lon="6.33484">
        <ele>342</ele>
        <time>2010-01-01T05:19:18Z</time>
      </trkpt>
      <trkpt lat="43.1864" lon="6.33507">
        <ele>341</ele>
        <time>2010-01-01T05:19:25Z</time>
      </trkpt>
      <trkpt lat="43.18631" lon="6.3354">
        <ele>342</ele>
        <time>2010-01-01T05:19:36Z</time>
      </trkpt>
      <trkpt lat="43.18632" lon="6.33557">
        <ele>341</ele>
        <time>2010-01-01T05:19:41Z</time>
      </trkpt>
      <trkpt lat="43.1864" lon="6.3357">
        <ele>339</ele>
        <time>2010-01-01T05:19:46Z</time>
      </trkpt>
      <trkpt lat="43.18665" lon="6.33582">
        <ele>332</ele>
        <time>2010-01-01T05:19:56Z</time>
      </trkpt>
      <trkpt lat="43.18672" lon="6.33595">
        <ele>329</ele>
        <time>2010-01-01T05:20:01Z</time>
      </trkpt>
      <trkpt lat="43.18673" lon="6.33616">
        <ele>328</ele>
        <time>2010-01-01T05:20:07Z</time>
      </trkpt>
      <trkpt lat="43.18665" lon="6.33685">
        <ele>328</ele>
        <time>2010-01-01T05:20:27Z</time>
      </trkpt>
      <trkpt lat="43.18642" lon="6.33757">
        <ele>329</ele>
        <time>2010-01-01T05:20:50Z</time>
      </trkpt>
      <trkpt lat="43.18621" lon="6.33852">
        <ele>331</ele>
        <time>2010-01-01T05:21:19Z</time>
      </trkpt>
      <trkpt lat="43.1861" lon="6.33962">
        <ele>325</ele>
        <time>2010-01-01T05:21:52Z</time>
      </trkpt>
      <trkpt lat="43.18585" lon="6.3402">
        <ele>329</ele>
        <time>2010-01-01T05:22:11Z</time>
      </trkpt>
      <trkpt lat="43.18571" lon="6.34038">
        <ele>326</ele>
        <time>2010-01-01T05:22:19Z</time>
      </trkpt>
      <trkpt lat="43.18551" lon="6.34054">
        <ele>323</ele>
        <time>2010-01-01T05:22:28Z</time>
      </trkpt>
      <trkpt lat="43.18538" lon="6.34056">
        <ele>323</ele>
        <time>2010-01-01T05:22:34Z</time>
      </trkpt>
      <trkpt lat="43.18509" lon="6.34037">
        <ele>326</ele>
        <time>2010-01-01T05:22:46Z</time>
      </trkpt>
      <trkpt lat="43.18496" lon="6.34022">
        <ele>327</ele>
        <time>2010-01-01T05:22:53Z</time>
      </trkpt>
      <trkpt lat="43.1846" lon="6.33947">
        <ele>323</ele>
        <time>2010-01-01T05:23:19Z</time>
      </trkpt>
      <trkpt lat="43.18447" lon="6.33882">
        <ele>325</ele>
        <time>2010-01-01T05:23:39Z</time>
      </trkpt>
      <trkpt lat="43.18413" lon="6.33798">
        <ele>315</ele>
        <time>2010-01-01T05:24:07Z</time>
      </trkpt>
      <trkpt lat="43.18416" lon="6.3378">
        <ele>316</ele>
        <time>2010-01-01T05:24:13Z</time>
      </trkpt>
      <trkpt lat="43.18438" lon="6.33738">
        <ele>322</ele>
        <time>2010-01-01T05:24:28Z</time>
      </trkpt>
      <trkpt lat="43.18463" lon="6.33726">
        <ele>330</ele>
        <time>2010-01-01T05:24:38Z</time>
      </trkpt>
      <trkpt lat="43.18471" lon="6.33706">
        <ele>331</ele>
        <time>2010-01-01T05:24:45Z</time>
      </trkpt>
      <trkpt lat="43.18459" lon="6.33631">
        <ele>327</ele>
        <time>2010-01-01T05:25:07Z</time>
      </trkpt>
      <trkpt lat="43.18438" lon="6.33579">
        <ele>320</ele>
        <time>2010-01-01T05:25:25Z</time>
      </trkpt>
      <trkpt lat="43.18436" lon="6.33521">
        <ele>322</ele>
        <time>2010-01-01T05:25:42Z</time>
      </trkpt>
      <trkpt lat="43.18424" lon="6.3348">
        <ele>320</ele>
        <time>2010-01-01T05:25:54Z</time>
      </trkpt>
      <trkpt lat="43.18397" lon="6.33444">
        <ele>313</ele>
        <time>2010-01-01T05:26:10Z</time>
      </trkpt>
      <trkpt lat="43.18383" lon="6.33406">
        <ele>312</ele>
        <time>2010-01-01T05:26:22Z</time>
      </trkpt>
      <trkpt lat="43.1837" lon="6.3339">
        <ele>310</ele>
        <time>2010-01-01T05:26:29Z</time>
      </trkpt>
      <trkpt lat="43.1834" lon="6.3337">
        <ele>305</ele>
        <time>2010-01-01T05:26:42Z</time>
      </trkpt>
      <trkpt lat="43.18333" lon="6.3336">
        <ele>305</ele>
        <time>2010-01-01T05:26:46Z</time>
      </trkpt>
      <trkpt lat="43.18324" lon="6.33333">
        <ele>307</ele>
        <time>2010-01-01T05:26:55Z</time>
      </trkpt>
      <trkpt lat="43.18312" lon="6.33315">
        <ele>307</ele>
        <time>2010-01-01T05:27:02Z</time>
      </trkpt>
      <trkpt lat="43.18296" lon="6.33309">
        <ele>304</ele>
        <time>2010-01-01T05:27:09Z</time>
      </trkpt>
      <trkpt lat="43.18253" lon="6.3334">
        <ele>286</ele>
        <time>2010-01-01T05:27:28Z</time>
      </trkpt>
      <trkpt lat="43.18238" lon="6.33342">
        <ele>281</ele>
        <time>2010-01-01T05:27:34Z</time>
      </trkpt>
      <trkpt lat="43.18228" lon="6.33338">
        <ele>278</ele>
        <time>2010-01-01T05:27:38Z</time>
      </trkpt>
      <trkpt lat="43.18205" lon="6.3331">
        <ele>274</ele>
        <time>2010-01-01T05:27:51Z</time>
      </trkpt>
      <trkpt lat="43.1817" lon="6.33287">
        <ele>262</ele>
        <time>2010-01-01T05:28:06Z</time>
      </trkpt>
      <trkpt lat="43.18161" lon="6.33266">
        <ele>261</ele>
        <time>2010-01-01T05:28:13Z</time>
      </trkpt>
      <trkpt lat="43.18166" lon="6.33207">
        <ele>270</ele>
        <time>2010-01-01T05:28:31Z</time>
      </trkpt>
      <trkpt lat="43.18157" lon="6.33129">
        <ele>277</ele>
        <time>2010-01-01T05:28:54Z</time>
      </trkpt>
      <trkpt lat="43.18103" lon="6.32936">
        <ele>269</ele>
        <time>2010-01-01T05:29:54Z</time>
      </trkpt>
      <trkpt lat="43.1809" lon="6.32865">
        <ele>266</ele>
        <time>2010-01-01T05:30:16Z</time>
      </trkpt>
      <trkpt lat="43.18076" lon="6.32859">
        <ele>264</ele>
        <time>2010-01-01T05:30:21Z</time>
      </trkpt>
      <trkpt lat="43.18068" lon="6.32867">
        <ele>262</ele>
        <time>2010-01-01T05:30:25Z</time>
      </trkpt>
      <trkpt lat="43.1804" lon="6.32962">
        <ele>256</ele>
        <time>2010-01-01T05:30:55Z</time>
      </trkpt>
      <trkpt lat="43.18012" lon="6.33018">
        <ele>249</ele>
        <time>2010-01-01T05:31:15Z</time>
      </trkpt>
      <trkpt lat="43.18009" lon="6.33073">
        <ele>246</ele>
        <time>2010-01-01T05:31:31Z</time>
      </trkpt>
      <trkpt lat="43.18003" lon="6.3308">
        <ele>244</ele>
        <time>2010-01-01T05:31:34Z</time>
      </trkpt>
      <trkpt lat="43.1799" lon="6.33078">
        <ele>239</ele>
        <time>2010-01-01T05:31:40Z</time>
      </trkpt>
      <trkpt lat="43.17982" lon="6.33064">
        <ele>237</ele>
        <time>2010-01-01T05:31:45Z</time>
      </trkpt>
      <trkpt lat="43.1798" lon="6.3305">
        <ele>236</ele>
        <time>2010-01-01T05:31:49Z</time>
      </trkpt>
      <trkpt lat="43.17984" lon="6.33033">
        <ele>239</ele>
        <time>2010-01-01T05:31:54Z</time>
      </trkpt>
      <trkpt lat="43.18008" lon="6.3298">
        <ele>250</ele>
        <time>2010-01-01T05:32:12Z</time>
      </trkpt>
      <trkpt lat="43.18008" lon="6.32954">
        <ele>251</ele>
        <time>2010-01-01T05:32:20Z</time>
      </trkpt>
      <trkpt lat="43.17996" lon="6.32936">
        <ele>248</ele>
        <time>2010-01-01T05:32:27Z</time>
      </trkpt>
      <trkpt lat="43.17943" lon="6.32884">
        <ele>230</ele>
        <time>2010-01-01T05:32:53Z</time>
      </trkpt>
      <trkpt lat="43.17918" lon="6.32811">
        <ele>225</ele>
        <time>2010-01-01T05:33:17Z</time>
      </trkpt>
      <trkpt lat="43.17898" lon="6.32778">
        <ele>224</ele>
        <time>2010-01-01T05:33:29Z</time>
      </trkpt>
      <trkpt lat="43.17871" lon="6.32752">
        <ele>219</ele>
        <time>2010-01-01T05:33:42Z</time>
      </trkpt>
      <trkpt lat="43.17845" lon="6.32747">
        <ele>213</ele>
        <time>2010-01-01T05:33:53Z</time>
      </trkpt>
      <trkpt lat="43.17825" lon="6.32756">
        <ele>212</ele>
        <time>2010-01-01T05:34:01Z</time>
      </trkpt>
      <trkpt lat="43.17807" lon="6.32778">
        <ele>215</ele>
        <time>2010-01-01T05:34:11Z</time>
      </trkpt>
      <trkpt lat="43.17798" lon="6.32833">
        <ele>217</ele>
        <time>2010-01-01T05:34:27Z</time>
      </trkpt>
      <trkpt lat="43.17785" lon="6.3285">
        <ele>219</ele>
        <time>2010-01-01T05:34:35Z</time>
      </trkpt>
      <trkpt lat="43.17756" lon="6.32874">
        <ele>224</ele>
        <time>2010-01-01T05:34:48Z</time>
      </trkpt>
      <trkpt lat="43.17747" lon="6.32921">
        <ele>224</ele>
        <time>2010-01-01T05:35:02Z</time>
      </trkpt>
      <trkpt lat="43.17717" lon="6.32932">
        <ele>231</ele>
        <time>2010-01-01T05:35:15Z</time>
      </trkpt>
      <trkpt lat="43.17713" lon="6.32939">
        <ele>232</ele>
        <time>2010-01-01T05:35:17Z</time>
      </trkpt>
      <trkpt lat="43.17712" lon="6.32958">
        <ele>231</ele>
        <time>2010-01-01T05:35:23Z</time>
      </trkpt>
      <trkpt lat="43.17729" lon="6.32999">
        <ele>224</ele>
        <time>2010-01-01T05:35:37Z</time>
      </trkpt>
      <trkpt lat="43.17738" lon="6.33034">
        <ele>220</ele>
        <time>2010-01-01T05:35:48Z</time>
      </trkpt>
      <trkpt lat="43.17732" lon="6.33115">
        <ele>217</ele>
        <time>2010-01-01T05:36:11Z</time>
      </trkpt>
      <trkpt lat="43.17743" lon="6.33154">
        <ele>213</ele>
        <time>2010-01-01T05:36:24Z</time>
      </trkpt>
      <trkpt lat="43.17746" lon="6.33196">
        <ele>210</ele>
        <time>2010-01-01T05:36:36Z</time>
      </trkpt>
      <trkpt lat="43.17738" lon="6.3322">
        <ele>211</ele>
        <time>2010-01-01T05:36:44Z</time>
      </trkpt>
      <trkpt lat="43.17708" lon="6.33252">
        <ele>215</ele>
        <time>2010-01-01T05:36:59Z</time>
      </trkpt>
      <trkpt lat="43.17703" lon="6.33273">
        <ele>214</ele>
        <time>2010-01-01T05:37:05Z</time>
      </trkpt>
      <trkpt lat="43.17701" lon="6.33336">
        <ele>210</ele>
        <time>2010-01-01T05:37:24Z</time>
      </trkpt>
      <trkpt lat="43.17695" lon="6.33353">
        <ele>210</ele>
        <time>2010-01-01T05:37:29Z</time>
      </trkpt>
      <trkpt lat="43.17682" lon="6.33368">
        <ele>210</ele>
        <time>2010-01-01T05:37:36Z</time>
      </trkpt>
      <trkpt lat="43.17642" lon="6.33379">
        <ele>211</ele>
        <time>2010-01-01T05:37:52Z</time>
      </trkpt>
      <trkpt lat="43.17624" lon="6.33376">
        <ele>211</ele>
        <time>2010-01-01T05:38:00Z</time>
      </trkpt>
      <trkpt lat="43.17616" lon="6.33368">
        <ele>212</ele>
        <time>2010-01-01T05:38:04Z</time>
      </trkpt>
      <trkpt lat="43.176" lon="6.33332">
        <ele>215</ele>
        <time>2010-01-01T05:38:16Z</time>
      </trkpt>
      <trkpt lat="43.17577" lon="6.33303">
        <ele>218</ele>
        <time>2010-01-01T05:38:28Z</time>
      </trkpt>
      <trkpt lat="43.17571" lon="6.33256">
        <ele>224</ele>
        <time>2010-01-01T05:38:42Z</time>
      </trkpt>
      <trkpt lat="43.17561" lon="6.33232">
        <ele>227</ele>
        <time>2010-01-01T05:38:50Z</time>
      </trkpt>
      <trkpt lat="43.17544" lon="6.33234">
        <ele>225</ele>
        <time>2010-01-01T05:38:57Z</time>
      </trkpt>
      <trkpt lat="43.17517" lon="6.33263">
        <ele>218</ele>
        <time>2010-01-01T05:39:11Z</time>
      </trkpt>
      <trkpt lat="43.17484" lon="6.33273">
        <ele>214</ele>
        <time>2010-01-01T05:39:24Z</time>
      </trkpt>
      <trkpt lat="43.17447" lon="6.33268">
        <ele>211</ele>
        <time>2010-01-01T05:39:39Z</time>
      </trkpt>
      <trkpt lat="43.17392" lon="6.33236">
        <ele>211</ele>
        <time>2010-01-01T05:40:03Z</time>
      </trkpt>
      <trkpt lat="43.1738" lon="6.33216">
        <ele>213</ele>
        <time>2010-01-01T05:40:11Z</time>
      </trkpt>
      <trkpt lat="43.17362" lon="6.33164">
        <ele>219</ele>
        <time>2010-01-01T05:40:28Z</time>
      </trkpt>
      <trkpt lat="43.17351" lon="6.33161">
        <ele>218</ele>
        <time>2010-01-01T05:40:32Z</time>
      </trkpt>
      <trkpt lat="43.1733" lon="6.33169">
        <ele>214</ele>
        <time>2010-01-01T05:40:41Z</time>
      </trkpt>
      <trkpt lat="43.17312" lon="6.33165">
        <ele>213</ele>
        <time>2010-01-01T05:40:48Z</time>
      </trkpt>
      <trkpt lat="43.17296" lon="6.33145">
        <ele>214</ele>
        <time>2010-01-01T05:40:57Z</time>
      </trkpt>
      <trkpt lat="43.17282" lon="6.33104">
        <ele>219</ele>
        <time>2010-01-01T05:41:10Z</time>
      </trkpt>
      <trkpt lat="43.17275" lon="6.33096">
        <ele>219</ele>
        <time>2010-01-01T05:41:14Z</time>
      </trkpt>
      <trkpt lat="43.17265" lon="6.33096">
        <ele>218</ele>
        <time>2010-01-01T05:41:18Z</time>
      </trkpt>
      <trkpt lat="43.17258" lon="6.33102">
        <ele>216</ele>
        <time>2010-01-01T05:41:21Z</time>
      </trkpt>
      <trkpt lat="43.17238" lon="6.3314">
        <ele>209</ele>
        <time>2010-01-01T05:41:35Z</time>
      </trkpt>
      <trkpt lat="43.17221" lon="6.33159">
        <ele>205</ele>
        <time>2010-01-01T05:41:43Z</time>
      </trkpt>
      <trkpt lat="43.17166" lon="6.33164">
        <ele>201</ele>
        <time>2010-01-01T05:42:05Z</time>
      </trkpt>
      <trkpt lat="43.17131" lon="6.33153">
        <ele>200</ele>
        <time>2010-01-01T05:42:20Z</time>
      </trkpt>
      <trkpt lat="43.17123" lon="6.3316">
        <ele>198</ele>
        <time>2010-01-01T05:42:24Z</time>
      </trkpt>
      <trkpt lat="43.1712" lon="6.33179">
        <ele>197</ele>
        <time>2010-01-01T05:42:29Z</time>
      </trkpt>
      <trkpt lat="43.17142" lon="6.33248">
        <ele>199</ele>
        <time>2010-01-01T05:42:51Z</time>
      </trkpt>
      <trkpt lat="43.17139" lon="6.3326">
        <ele>199</ele>
        <time>2010-01-01T05:42:55Z</time>
      </trkpt>
      <trkpt lat="43.17131" lon="6.33268">
        <ele>198</ele>
        <time>2010-01-01T05:42:59Z</time>
      </trkpt>
      <trkpt lat="43.17116" lon="6.3327">
        <ele>198</ele>
        <time>2010-01-01T05:43:05Z</time>
      </trkpt>
      <trkpt lat="43.1707" lon="6.33246">
        <ele>194</ele>
        <time>2010-01-01T05:43:25Z</time>
      </trkpt>
      <trkpt lat="43.1705" lon="6.33243">
        <ele>192</ele>
        <time>2010-01-01T05:43:33Z</time>
      </trkpt>
      <trkpt lat="43.16997" lon="6.33266">
        <ele>187</ele>
        <time>2010-01-01T05:43:55Z</time>
      </trkpt>
      <trkpt lat="43.16937" lon="6.33281">
        <ele>183</ele>
        <time>2010-01-01T05:44:19Z</time>
      </trkpt>
      <trkpt lat="43.1692" lon="6.33295">
        <ele>184</ele>
        <time>2010-01-01T05:44:27Z</time>
      </trkpt>
      <trkpt lat="43.1685" lon="6.33379">
        <ele>201</ele>
        <time>2010-01-01T05:45:05Z</time>
      </trkpt>
      <trkpt lat="43.16834" lon="6.33384">
        <ele>203</ele>
        <time>2010-01-01T05:45:11Z</time>
      </trkpt>
      <trkpt lat="43.16807" lon="6.3337">
        <ele>201</ele>
        <time>2010-01-01T05:45:23Z</time>
      </trkpt>
      <trkpt lat="43.16776" lon="6.3332">
        <ele>191</ele>
        <time>2010-01-01T05:45:42Z</time>
      </trkpt>
      <trkpt lat="43.16735" lon="6.33309">
        <ele>197</ele>
        <time>2010-01-01T05:45:59Z</time>
      </trkpt>
      <trkpt lat="43.16722" lon="6.33299">
        <ele>198</ele>
        <time>2010-01-01T05:46:05Z</time>
      </trkpt>
      <trkpt lat="43.16715" lon="6.33279">
        <ele>196</ele>
        <time>2010-01-01T05:46:11Z</time>
      </trkpt>
      <trkpt lat="43.16719" lon="6.33243">
        <ele>186</ele>
        <time>2010-01-01T05:46:22Z</time>
      </trkpt>
      <trkpt lat="43.16717" lon="6.33219">
        <ele>183</ele>
        <time>2010-01-01T05:46:29Z</time>
      </trkpt>
      <trkpt lat="43.1671" lon="6.332">
        <ele>182</ele>
        <time>2010-01-01T05:46:35Z</time>
      </trkpt>
      <trkpt lat="43.167" lon="6.33188">
        <ele>182</ele>
        <time>2010-01-01T05:46:40Z</time>
      </trkpt>
      <trkpt lat="43.16649" lon="6.33185">
        <ele>196</ele>
        <time>2010-01-01T05:47:01Z</time>
      </trkpt>
      <trkpt lat="43.16584" lon="6.33135">
        <ele>202</ele>
        <time>2010-01-01T05:47:31Z</time>
      </trkpt>
      <trkpt lat="43.16574" lon="6.33131">
        <ele>201</ele>
        <time>2010-01-01T05:47:35Z</time>
      </trkpt>
      <trkpt lat="43.16556" lon="6.33134">
        <ele>202</ele>
        <time>2010-01-01T05:47:42Z</time>
      </trkpt>
      <trkpt lat="43.16535" lon="6.33155">
        <ele>206</ele>
        <time>2010-01-01T05:47:52Z</time>
      </trkpt>
      <trkpt lat="43.16497" lon="6.33213">
        <ele>216</ele>
        <time>2010-01-01T05:48:15Z</time>
      </trkpt>
      <trkpt lat="43.16489" lon="6.33235">
        <ele>218</ele>
        <time>2010-01-01T05:48:22Z</time>
      </trkpt>
      <trkpt lat="43.16483" lon="6.33273">
        <ele>224</ele>
        <time>2010-01-01T05:48:34Z</time>
      </trkpt>
      <trkpt lat="43.16474" lon="6.33291">
        <ele>226</ele>
        <time>2010-01-01T05:48:40Z</time>
      </trkpt>
      <trkpt lat="43.16459" lon="6.33304">
        <ele>226</ele>
        <time>2010-01-01T05:48:47Z</time>
      </trkpt>
      <trkpt lat="43.16395" lon="6.33333">
        <ele>221</ele>
        <time>2010-01-01T05:49:14Z</time>
      </trkpt>
      <trkpt lat="43.16355" lon="6.33377">
        <ele>226</ele>
        <time>2010-01-01T05:49:35Z</time>
      </trkpt>
      <trkpt lat="43.16311" lon="6.33389">
        <ele>220</ele>
        <time>2010-01-01T05:49:53Z</time>
      </trkpt>
      <trkpt lat="43.16295" lon="6.33412">
        <ele>223</ele>
        <time>2010-01-01T05:50:02Z</time>
      </trkpt>
      <trkpt lat="43.16277" lon="6.33463">
        <ele>232</ele>
        <time>2010-01-01T05:50:18Z</time>
      </trkpt>
      <trkpt lat="43.16276" lon="6.33507">
        <ele>242</ele>
        <time>2010-01-01T05:50:31Z</time>
      </trkpt>
      <trkpt lat="43.16272" lon="6.33516">
        <ele>241</ele>
        <time>2010-01-01T05:50:34Z</time>
      </trkpt>
      <trkpt lat="43.16261" lon="6.33521">
        <ele>238</ele>
        <time>2010-01-01T05:50:39Z</time>
      </trkpt>
      <trkpt lat="43.16233" lon="6.33514">
        <ele>229</ele>
        <time>2010-01-01T05:50:50Z</time>
      </trkpt>
      <trkpt lat="43.1622" lon="6.33518">
        <ele>225</ele>
        <time>2010-01-01T05:50:56Z</time>
      </trkpt>
      <trkpt lat="43.16212" lon="6.33527">
        <ele>223</ele>
        <time>2010-01-01T05:51:00Z</time>
      </trkpt>
      <trkpt lat="43.16212" lon="6.33558">
        <ele>225</ele>
        <time>2010-01-01T05:51:09Z</time>
      </trkpt>
      <trkpt lat="43.16235" lon="6.33606">
        <ele>234</ele>
        <time>2010-01-01T05:51:26Z</time>
      </trkpt>
      <trkpt lat="43.16259" lon="6.33701">
        <ele>237</ele>
        <time>2010-01-01T05:51:55Z</time>
      </trkpt>
      <trkpt lat="43.16284" lon="6.33755">
        <ele>242</ele>
        <time>2010-01-01T05:52:14Z</time>
      </trkpt>
      <trkpt lat="43.16302" lon="6.33811">
        <ele>243</ele>
        <time>2010-01-01T05:52:32Z</time>
      </trkpt>
      <trkpt lat="43.16302" lon="6.33838">
        <ele>240</ele>
        <time>2010-01-01T05:52:39Z</time>
      </trkpt>
      <trkpt lat="43.16294" lon="6.33876">
        <ele>233</ele>
        <time>2010-01-01T05:52:51Z</time>
      </trkpt>
      <trkpt lat="43.16298" lon="6.33912">
        <ele>230</ele>
        <time>2010-01-01T05:53:02Z</time>
      </trkpt>
      <trkpt lat="43.16303" lon="6.33923">
        <ele>232</ele>
        <time>2010-01-01T05:53:05Z</time>
      </trkpt>
      <trkpt lat="43.16337" lon="6.33954">
        <ele>243</ele>
        <time>2010-01-01T05:53:22Z</time>
      </trkpt>
      <trkpt lat="43.16338" lon="6.33966">
        <ele>243</ele>
        <time>2010-01-01T05:53:25Z</time>
      </trkpt>
      <trkpt lat="43.16329" lon="6.34012">
        <ele>236</ele>
        <time>2010-01-01T05:53:39Z</time>
      </trkpt>
      <trkpt lat="43.16329" lon="6.34048">
        <ele>234</ele>
        <time>2010-01-01T05:53:50Z</time>
      </trkpt>
      <trkpt lat="43.16348" lon="6.34141">
        <ele>238</ele>
        <time>2010-01-01T05:54:18Z</time>
      </trkpt>
      <trkpt lat="43.16366" lon="6.342">
        <ele>246</ele>
        <time>2010-01-01T05:54:37Z</time>
      </trkpt>
      <trkpt lat="43.16364" lon="6.34223">
        <ele>245</ele>
        <time>2010-01-01T05:54:43Z</time>
      </trkpt>
      <trkpt lat="43.16351" lon="6.3426">
        <ele>236</ele>
        <time>2010-01-01T05:54:55Z</time>
      </trkpt>
      <trkpt lat="43.16358" lon="6.3434">
        <ele>239</ele>
        <time>2010-01-01T05:55:19Z</time>
      </trkpt>
      <trkpt lat="43.1637" lon="6.34405">
        <ele>251</ele>
        <time>2010-01-01T05:55:38Z</time>
      </trkpt>
      <trkpt lat="43.16368" lon="6.34422">
        <ele>251</ele>
        <time>2010-01-01T05:55:43Z</time>
      </trkpt>
      <trkpt lat="43.16359" lon="6.34436">
        <ele>249</ele>
        <time>2010-01-01T05:55:49Z</time>
      </trkpt>
      <trkpt lat="43.16346" lon="6.34438">
        <ele>244</ele>
        <time>2010-01-01T05:55:54Z</time>
      </trkpt>
      <trkpt lat="43.16312" lon="6.34399">
        <ele>229</ele>
        <time>2010-01-01T05:56:12Z</time>
      </trkpt>
      <trkpt lat="43.16291" lon="6.34385">
        <ele>224</ele>
        <time>2010-01-01T05:56:21Z</time>
      </trkpt>
      <trkpt lat="43.16219" lon="6.34353">
        <ele>213</ele>
        <time>2010-01-01T05:56:52Z</time>
      </trkpt>
      <trkpt lat="43.16133" lon="6.34307">
        <ele>213</ele>
        <time>2010-01-01T05:57:29Z</time>
      </trkpt>
      <trkpt lat="43.1612" lon="6.34309">
        <ele>214</ele>
        <time>2010-01-01T05:57:34Z</time>
      </trkpt>
      <trkpt lat="43.16096" lon="6.34332">
        <ele>219</ele>
        <time>2010-01-01T05:57:45Z</time>
      </trkpt>
      <trkpt lat="43.16083" lon="6.34338">
        <ele>220</ele>
        <time>2010-01-01T05:57:51Z</time>
      </trkpt>
      <trkpt lat="43.16033" lon="6.34339">
        <ele>220</ele>
        <time>2010-01-01T05:58:11Z</time>
      </trkpt>
      <trkpt lat="43.16009" lon="6.34347">
        <ele>218</ele>
        <time>2010-01-01T05:58:21Z</time>
      </trkpt>
      <trkpt lat="43.15957" lon="6.3438">
        <ele>213</ele>
        <time>2010-01-01T05:58:44Z</time>
      </trkpt>
      <trkpt lat="43.15902" lon="6.34374">
        <ele>219</ele>
        <time>2010-01-01T05:59:06Z</time>
      </trkpt>
      <trkpt lat="43.1582" lon="6.34416">
        <ele>216</ele>
        <time>2010-01-01T05:59:41Z</time>
      </trkpt>
      <trkpt lat="43.15763" lon="6.34433">
        <ele>217</ele>
        <time>2010-01-01T06:00:04Z</time>
      </trkpt>
      <trkpt lat="43.15661" lon="6.34511">
        <ele>207</ele>
        <time>2010-01-01T06:00:51Z</time>
      </trkpt>
      <trkpt lat="43.1564" lon="6.34536">
        <ele>204</ele>
        <time>2010-01-01T06:01:02Z</time>
      </trkpt>
      <trkpt lat="43.15611" lon="6.34589">
        <ele>198</ele>
        <time>2010-01-01T06:01:22Z</time>
      </trkpt>
      <trkpt lat="43.15584" lon="6.34619">
        <ele>197</ele>
        <time>2010-01-01T06:01:35Z</time>
      </trkpt>
      <trkpt lat="43.15575" lon="6.34644">
        <ele>193</ele>
        <time>2010-01-01T06:01:44Z</time>
      </trkpt>
      <trkpt lat="43.15571" lon="6.34689">
        <ele>185</ele>
        <time>2010-01-01T06:01:57Z</time>
      </trkpt>
      <trkpt lat="43.15562" lon="6.34708">
        <ele>183</ele>
        <time>2010-01-01T06:02:03Z</time>
      </trkpt>
      <trkpt lat="43.15556" lon="6.34709">
        <ele>183</ele>
        <time>2010-01-01T06:02:06Z</time>
      </trkpt>
      <trkpt lat="43.1555" lon="6.34703">
        <ele>184</ele>
        <time>2010-01-01T06:02:09Z</time>
      </trkpt>
      <trkpt lat="43.15551" lon="6.34641">
        <ele>193</ele>
        <time>2010-01-01T06:02:27Z</time>
      </trkpt>
      <trkpt lat="43.15546" lon="6.34624">
        <ele>196</ele>
        <time>2010-01-01T06:02:32Z</time>
      </trkpt>
      <trkpt lat="43.15534" lon="6.34605">
        <ele>199</ele>
        <time>2010-01-01T06:02:40Z</time>
      </trkpt>
      <trkpt lat="43.15519" lon="6.34593">
        <ele>201</ele>
        <time>2010-01-01T06:02:47Z</time>
      </trkpt>
      <trkpt lat="43.15455" lon="6.34561">
        <ele>196</ele>
        <time>2010-01-01T06:03:14Z</time>
      </trkpt>
      <trkpt lat="43.15408" lon="6.34525">
        <ele>195</ele>
        <time>2010-01-01T06:03:35Z</time>
      </trkpt>
      <trkpt lat="43.15319" lon="6.34524">
        <ele>182</ele>
        <time>2010-01-01T06:04:11Z</time>
      </trkpt>
      <trkpt lat="43.1524" lon="6.34559">
        <ele>166</ele>
        <time>2010-01-01T06:04:44Z</time>
      </trkpt>
      <trkpt lat="43.15224" lon="6.34561">
        <ele>162</ele>
        <time>2010-01-01T06:04:51Z</time>
      </trkpt>
      <trkpt lat="43.15206" lon="6.34553">
        <ele>160</ele>
        <time>2010-01-01T06:04:58Z</time>
      </trkpt>
      <trkpt lat="43.1518" lon="6.34523">
        <ele>160</ele>
        <time>2010-01-01T06:05:12Z</time>
      </trkpt>
      <trkpt lat="43.15164" lon="6.34496">
        <ele>160</ele>
        <time>2010-01-01T06:05:22Z</time>
      </trkpt>
      <trkpt lat="43.15163" lon="6.3446">
        <ele>163</ele>
        <time>2010-01-01T06:05:33Z</time>
      </trkpt>
      <trkpt lat="43.15155" lon="6.34432">
        <ele>163</ele>
        <time>2010-01-01T06:05:41Z</time>
      </trkpt>
      <trkpt lat="43.15157" lon="6.34411">
        <ele>165</ele>
        <time>2010-01-01T06:05:48Z</time>
      </trkpt>
      <trkpt lat="43.15187" lon="6.34366">
        <ele>173</ele>
        <time>2010-01-01T06:06:05Z</time>
      </trkpt>
      <trkpt lat="43.15189" lon="6.34349">
        <ele>174</ele>
        <time>2010-01-01T06:06:10Z</time>
      </trkpt>
      <trkpt lat="43.15186" lon="6.34343">
        <ele>173</ele>
        <time>2010-01-01T06:06:12Z</time>
      </trkpt>
      <trkpt lat="43.15174" lon="6.34346">
        <ele>171</ele>
        <time>2010-01-01T06:06:17Z</time>
      </trkpt>
      <trkpt lat="43.15157" lon="6.34382">
        <ele>166</ele>
        <time>2010-01-01T06:06:30Z</time>
      </trkpt>
      <trkpt lat="43.15146" lon="6.3439">
        <ele>163</ele>
        <time>2010-01-01T06:06:35Z</time>
      </trkpt>
      <trkpt lat="43.15068" lon="6.34396">
        <ele>144</ele>
        <time>2010-01-01T06:07:06Z</time>
      </trkpt>
      <trkpt lat="43.15053" lon="6.3439">
        <ele>143</ele>
        <time>2010-01-01T06:07:12Z</time>
      </trkpt>
      <trkpt lat="43.15026" lon="6.34369">
        <ele>139</ele>
        <time>2010-01-01T06:07:25Z</time>
      </trkpt>
      <trkpt lat="43.15011" lon="6.34372">
        <ele>137</ele>
        <time>2010-01-01T06:07:31Z</time>
      </trkpt>
      <trkpt lat="43.15005" lon="6.34379">
        <ele>136</ele>
        <time>2010-01-01T06:07:34Z</time>
      </trkpt>
      <trkpt lat="43.1499" lon="6.34451">
        <ele>137</ele>
        <time>2010-01-01T06:07:56Z</time>
      </trkpt>
      <trkpt lat="43.14955" lon="6.34666">
        <ele>125</ele>
        <time>2010-01-01T06:09:00Z</time>
      </trkpt>
      <trkpt lat="43.14948" lon="6.34683">
        <ele>122</ele>
        <time>2010-01-01T06:09:06Z</time>
      </trkpt>
      <trkpt lat="43.14935" lon="6.34688">
        <ele>120</ele>
        <time>2010-01-01T06:09:11Z</time>
      </trkpt>
      <trkpt lat="43.14926" lon="6.34675">
        <ele>119</ele>
        <time>2010-01-01T06:09:17Z</time>
      </trkpt>
      <trkpt lat="43.14924" lon="6.34664">
        <ele>119</ele>
        <time>2010-01-01T06:09:20Z</time>
      </trkpt>
      <trkpt lat="43.14954" lon="6.34586">
        <ele>130</ele>
        <time>2010-01-01T06:09:46Z</time>
      </trkpt>
      <trkpt lat="43.14956" lon="6.34572">
        <ele>131</ele>
        <time>2010-01-01T06:09:50Z</time>
      </trkpt>
      <trkpt lat="43.14957" lon="6.34405">
        <ele>128</ele>
        <time>2010-01-01T06:10:39Z</time>
      </trkpt>
      <trkpt lat="43.14954" lon="6.3438">
        <ele>126</ele>
        <time>2010-01-01T06:10:46Z</time>
      </trkpt>
      <trkpt lat="43.14937" lon="6.34318">
        <ele>119</ele>
        <time>2010-01-01T06:11:05Z</time>
      </trkpt>
      <trkpt lat="43.1494" lon="6.34239">
        <ele>115</ele>
        <time>2010-01-01T06:11:28Z</time>
      </trkpt>
      <trkpt lat="43.1493" lon="6.34227">
        <ele>112</ele>
        <time>2010-01-01T06:11:34Z</time>
      </trkpt>
      <trkpt lat="43.14915" lon="6.34224">
        <ele>109</ele>
        <time>2010-01-01T06:11:40Z</time>
      </trkpt>
      <trkpt lat="43.14904" lon="6.34239">
        <ele>109</ele>
        <time>2010-01-01T06:11:46Z</time>
      </trkpt>
      <trkpt lat="43.14903" lon="6.3426">
        <ele>110</ele>
        <time>2010-01-01T06:11:52Z</time>
      </trkpt>
      <trkpt lat="43.14914" lon="6.3431">
        <ele>114</ele>
        <time>2010-01-01T06:12:07Z</time>
      </trkpt>
      <trkpt lat="43.14929" lon="6.34355">
        <ele>120</ele>
        <time>2010-01-01T06:12:22Z</time>
      </trkpt>
      <trkpt lat="43.14926" lon="6.34484">
        <ele>124</ele>
        <time>2010-01-01T06:13:00Z</time>
      </trkpt>
      <trkpt lat="43.14919" lon="6.34566">
        <ele>123</ele>
        <time>2010-01-01T06:13:24Z</time>
      </trkpt>
      <trkpt lat="43.14906" lon="6.34605">
        <ele>118</ele>
        <time>2010-01-01T06:13:36Z</time>
      </trkpt>
      <trkpt lat="43.14896" lon="6.3461">
        <ele>116</ele>
        <time>2010-01-01T06:13:40Z</time>
      </trkpt>
      <trkpt lat="43.14889" lon="6.34596">
        <ele>114</ele>
        <time>2010-01-01T06:13:45Z</time>
      </trkpt>
      <trkpt lat="43.14908" lon="6.34514">
        <ele>120</ele>
        <time>2010-01-01T06:14:11Z</time>
      </trkpt>
      <trkpt lat="43.14906" lon="6.34475">
        <ele>118</ele>
        <time>2010-01-01T06:14:22Z</time>
      </trkpt>
      <trkpt lat="43.14889" lon="6.34377">
        <ele>111</ele>
        <time>2010-01-01T06:14:51Z</time>
      </trkpt>
      <trkpt lat="43.14868" lon="6.34347">
        <ele>106</ele>
        <time>2010-01-01T06:15:04Z</time>
      </trkpt>
      <trkpt lat="43.14855" lon="6.34319">
        <ele>104</ele>
        <time>2010-01-01T06:15:13Z</time>
      </trkpt>
      <trkpt lat="43.1485" lon="6.34286">
        <ele>104</ele>
        <time>2010-01-01T06:15:23Z</time>
      </trkpt>
      <trkpt lat="43.14851" lon="6.34223">
        <ele>104</ele>
        <time>2010-01-01T06:15:41Z</time>
      </trkpt>
      <trkpt lat="43.14838" lon="6.34185">
        <ele>103</ele>
        <time>2010-01-01T06:15:54Z</time>
      </trkpt>
      <trkpt lat="43.14803" lon="6.3414">
        <ele>100</ele>
        <time>2010-01-01T06:16:13Z</time>
      </trkpt>
      <trkpt lat="43.14776" lon="6.34116">
        <ele>99</ele>
        <time>2010-01-01T06:16:26Z</time>
      </trkpt>
      <trkpt lat="43.14692" lon="6.34063">
        <ele>90</ele>
        <time>2010-01-01T06:17:03Z</time>
      </trkpt>
      <trkpt lat="43.14657" lon="6.34007">
        <ele>84</ele>
        <time>2010-01-01T06:17:24Z</time>
      </trkpt>
      <trkpt lat="43.14577" lon="6.3393">
        <ele>72</ele>
        <time>2010-01-01T06:18:04Z</time>
      </trkpt>
      <trkpt lat="43.14491" lon="6.33884">
        <ele>63</ele>
        <time>2010-01-01T06:18:40Z</time>
      </trkpt>
      <trkpt lat="43.14478" lon="6.3386">
        <ele>60</ele>
        <time>2010-01-01T06:18:49Z</time>
      </trkpt>
      <trkpt lat="43.14469" lon="6.33825">
        <ele>56</ele>
        <time>2010-01-01T06:19:00Z</time>
      </trkpt>
      <trkpt lat="43.1446" lon="6.33818">
        <ele>54</ele>
        <time>2010-01-01T06:19:04Z</time>
      </trkpt>
      <trkpt lat="43.14443" lon="6.33826">
        <ele>54</ele>
        <time>2010-01-01T06:19:11Z</time>
      </trkpt>
      <trkpt lat="43.1442" lon="6.33832">
        <ele>52</ele>
        <time>2010-01-01T06:19:21Z</time>
      </trkpt>
      <trkpt lat="43.14355" lon="6.33825">
        <ele>44</ele>
        <time>2010-01-01T06:19:47Z</time>
      </trkpt>
      <trkpt lat="43.14271" lon="6.33832">
        <ele>38</ele>
        <time>2010-01-01T06:20:21Z</time>
      </trkpt>
      <trkpt lat="43.14258" lon="6.33829">
        <ele>38</ele>
        <time>2010-01-01T06:20:26Z</time>
      </trkpt>
      <trkpt lat="43.14243" lon="6.3381">
        <ele>37</ele>
        <time>2010-01-01T06:20:34Z</time>
      </trkpt>
      <trkpt lat="43.14243" lon="6.33787">
        <ele>37</ele>
        <time>2010-01-01T06:20:41Z</time>
      </trkpt>
      <trkpt lat="43.14271" lon="6.33737">
        <ele>39</ele>
        <time>2010-01-01T06:20:59Z</time>
      </trkpt>
      <trkpt lat="43.14281" lon="6.33697">
        <ele>39</ele>
        <time>2010-01-01T06:21:11Z</time>
      </trkpt>
      <trkpt lat="43.14287" lon="6.33685">
        <ele>39</ele>
        <time>2010-01-01T06:21:16Z</time>
      </trkpt>
      <trkpt lat="43.14286" lon="6.33672">
        <ele>39</ele>
        <time>2010-01-01T06:21:20Z</time>
      </trkpt>
      <trkpt lat="43.14279" lon="6.33661">
        <ele>39</ele>
        <time>2010-01-01T06:21:24Z</time>
      </trkpt>
      <trkpt lat="43.14267" lon="6.33662">
        <ele>38</ele>
        <time>2010-01-01T06:21:29Z</time>
      </trkpt>
      <trkpt lat="43.1422" lon="6.33765">
        <ele>36</ele>
        <time>2010-01-01T06:22:04Z</time>
      </trkpt>
      <trkpt lat="43.142" lon="6.33822">
        <ele>35</ele>
        <time>2010-01-01T06:22:23Z</time>
      </trkpt>
      <trkpt lat="43.14195" lon="6.33852">
        <ele>35</ele>
        <time>2010-01-01T06:22:32Z</time>
      </trkpt>
      <trkpt lat="43.14195" lon="6.33889">
        <ele>36</ele>
        <time>2010-01-01T06:22:42Z</time>
      </trkpt>
      <trkpt lat="43.14201" lon="6.33976">
        <ele>36</ele>
        <time>2010-01-01T06:23:08Z</time>
      </trkpt>
      <trkpt lat="43.14179" lon="6.3398">
        <ele>35</ele>
        <time>2010-01-01T06:23:17Z</time>
      </trkpt>
      <trkpt lat="43.1411" lon="6.33941">
        <ele>32</ele>
        <time>2010-01-01T06:23:47Z</time>
      </trkpt>
      <trkpt lat="43.14026" lon="6.3391">
        <ele>29</ele>
        <time>2010-01-01T06:24:21Z</time>
      </trkpt>
      <trkpt lat="43.1394" lon="6.33898">
        <ele>25</ele>
        <time>2010-01-01T06:24:56Z</time>
      </trkpt>
      <trkpt lat="43.13904" lon="6.33896">
        <ele>23</ele>
        <time>2010-01-01T06:25:10Z</time>
      </trkpt>
      <trkpt lat="43.1382" lon="6.33907">
        <ele>21</ele>
        <time>2010-01-01T06:25:44Z</time>
      </trkpt>
      <trkpt lat="43.1375" lon="6.33908">
        <ele>19</ele>
        <time>2010-01-01T06:26:12Z</time>
      </trkpt>
      <trkpt lat="43.1367" lon="6.33897">
        <ele>16</ele>
        <time>2010-01-01T06:26:44Z</time>
      </trkpt>
      <trkpt lat="43.13539" lon="6.3389">
        <ele>15</ele>
        <time>2010-01-01T06:27:37Z</time>
      </trkpt>
      <trkpt lat="43.13471" lon="6.33876">
        <ele>16</ele>
        <time>2010-01-01T06:28:04Z</time>
      </trkpt>
      <trkpt lat="43.13429" lon="6.33857">
        <ele>16</ele>
        <time>2010-01-01T06:28:22Z</time>
      </trkpt>
      <trkpt lat="43.13381" lon="6.33827">
        <ele>16</ele>
        <time>2010-01-01T06:28:43Z</time>
      </trkpt>
      <trkpt lat="43.13179" lon="6.33673">
        <ele>19</ele>
        <time>2010-01-01T06:30:16Z</time>
      </trkpt>
      <trkpt lat="43.13165" lon="6.33666">
        <ele>19</ele>
        <time>2010-01-01T06:30:22Z</time>
      </trkpt>
      <trkpt lat="43.13117" lon="6.33662">
        <ele>26</ele>
        <time>2010-01-01T06:30:41Z</time>
      </trkpt>
      <trkpt lat="43.13079" lon="6.33652">
        <ele>31</ele>
        <time>2010-01-01T06:30:57Z</time>
      </trkpt>
      <trkpt lat="43.12987" lon="6.33574">
        <ele>39</ele>
        <time>2010-01-01T06:31:40Z</time>
      </trkpt>
      <trkpt lat="43.12839" lon="6.33503">
        <ele>31</ele>
        <time>2010-01-01T06:32:43Z</time>
      </trkpt>
      <trkpt lat="43.12816" lon="6.33477">
        <ele>29</ele>
        <time>2010-01-01T06:32:55Z</time>
      </trkpt>
      <trkpt lat="43.12786" lon="6.33416">
        <ele>24</ele>
        <time>2010-01-01T06:33:16Z</time>
      </trkpt>
      <trkpt lat="43.12774" lon="6.334">
        <ele>24</ele>
        <time>2010-01-01T06:33:23Z</time>
      </trkpt>
      <trkpt lat="43.12721" lon="6.3335">
        <ele>24</ele>
        <time>2010-01-01T06:33:49Z</time>
      </trkpt>
      <trkpt lat="43.12514" lon="6.33225">
        <ele>39</ele>
        <time>2010-01-01T06:35:19Z</time>
      </trkpt>
      <trkpt lat="43.12469" lon="6.332">
        <ele>41</ele>
        <time>2010-01-01T06:35:39Z</time>
      </trkpt>
      <trkpt lat="43.12422" lon="6.33182">
        <ele>42</ele>
        <time>2010-01-01T06:35:58Z</time>
      </trkpt>
      <trkpt lat="43.12368" lon="6.3315">
        <ele>47</ele>
        <time>2010-01-01T06:36:22Z</time>
      </trkpt>
      <trkpt lat="43.12311" lon="6.33102">
        <ele>54</ele>
        <time>2010-01-01T06:36:48Z</time>
      </trkpt>
      <trkpt lat="43.12249" lon="6.3304">
        <ele>59</ele>
        <time>2010-01-01T06:37:19Z</time>
      </trkpt>
      <trkpt lat="43.12224" lon="6.33012">
        <ele>61</ele>
        <time>2010-01-01T06:37:32Z</time>
      </trkpt>
      <trkpt lat="43.12218" lon="6.32999">
        <ele>62</ele>
        <time>2010-01-01T06:37:37Z</time>
      </trkpt>
      <trkpt lat="43.12202" lon="6.32928">
        <ele>63</ele>
        <time>2010-01-01T06:37:58Z</time>
      </trkpt>
      <trkpt lat="43.12182" lon="6.32864">
        <ele>68</ele>
        <time>2010-01-01T06:38:19Z</time>
      </trkpt>
      <trkpt lat="43.12188" lon="6.32837">
        <ele>69</ele>
        <time>2010-01-01T06:38:27Z</time>
      </trkpt>
      <trkpt lat="43.12215" lon="6.32797">
        <ele>71</ele>
        <time>2010-01-01T06:38:43Z</time>
      </trkpt>
      <trkpt lat="43.12219" lon="6.32782">
        <ele>73</ele>
        <time>2010-01-01T06:38:47Z</time>
      </trkpt>
      <trkpt lat="43.12215" lon="6.32758">
        <ele>75</ele>
        <time>2010-01-01T06:38:55Z</time>
      </trkpt>
      <trkpt lat="43.12171" lon="6.3268">
        <ele>81</ele>
        <time>2010-01-01T06:39:23Z</time>
      </trkpt>
      <trkpt lat="43.12061" lon="6.32546">
        <ele>70</ele>
        <time>2010-01-01T06:40:22Z</time>
      </trkpt>
      <trkpt lat="43.12038" lon="6.32485">
        <ele>66</ele>
        <time>2010-01-01T06:40:42Z</time>
      </trkpt>
      <trkpt lat="43.12027" lon="6.32467">
        <ele>65</ele>
        <time>2010-01-01T06:40:49Z</time>
      </trkpt>
      <trkpt lat="43.1195" lon="6.32384">
        <ele>60</ele>
        <time>2010-01-01T06:41:28Z</time>
      </trkpt>
      <trkpt lat="43.11864" lon="6.32319">
        <ele>52</ele>
        <time>2010-01-01T06:42:08Z</time>
      </trkpt>
      <trkpt lat="43.11805" lon="6.32264">
        <ele>44</ele>
        <time>2010-01-01T06:42:36Z</time>
      </trkpt>
      <trkpt lat="43.11763" lon="6.32239">
        <ele>41</ele>
        <time>2010-01-01T06:42:55Z</time>
      </trkpt>
      <trkpt lat="43.11726" lon="6.32203">
        <ele>41</ele>
        <time>2010-01-01T06:43:13Z</time>
      </trkpt>
      <trkpt lat="43.11701" lon="6.32169">
        <ele>40</ele>
        <time>2010-01-01T06:43:27Z</time>
      </trkpt>
      <trkpt lat="43.11671" lon="6.3215">
        <ele>40</ele>
        <time>2010-01-01T06:43:40Z</time>
      </trkpt>
      <trkpt lat="43.116" lon="6.32091">
        <ele>40</ele>
        <time>2010-01-01T06:44:13Z</time>
      </trkpt>
      <trkpt lat="43.11555" lon="6.32032">
        <ele>39</ele>
        <time>2010-01-01T06:44:38Z</time>
      </trkpt>
      <trkpt lat="43.11469" lon="6.31964">
        <ele>32</ele>
        <time>2010-01-01T06:45:18Z</time>
      </trkpt>
      <trkpt lat="43.11452" lon="6.31938">
        <ele>29</ele>
        <time>2010-01-01T06:45:28Z</time>
      </trkpt>
      <trkpt lat="43.11408" lon="6.31847">
        <ele>23</ele>
        <time>2010-01-01T06:46:00Z</time>
      </trkpt>
      <trkpt lat="43.1139" lon="6.31782">
        <ele>24</ele>
        <time>2010-01-01T06:46:21Z</time>
      </trkpt>
      <trkpt lat="43.11352" lon="6.31711">
        <ele>22</ele>
        <time>2010-01-01T06:46:46Z</time>
      </trkpt>
      <trkpt lat="43.11334" lon="6.31703">
        <ele>19</ele>
        <time>2010-01-01T06:46:54Z</time>
      </trkpt>
      <trkpt lat="43.11269" lon="6.31707">
        <ele>17</ele>
        <time>2010-01-01T06:47:20Z</time>
      </trkpt>
      <trkpt lat="43.11228" lon="6.31699">
        <ele>16</ele>
        <time>2010-01-01T06:47:36Z</time>
      </trkpt>
      <trkpt lat="43.1121" lon="6.31686">
        <ele>15</ele>
        <time>2010-01-01T06:47:45Z</time>
      </trkpt>
      <trkpt lat="43.11197" lon="6.31656">
        <ele>14</ele>
        <time>2010-01-01T06:47:55Z</time>
      </trkpt>
      <trkpt lat="43.11226" lon="6.31583">
        <ele>14</ele>
        <time>2010-01-01T06:48:19Z</time>
      </trkpt>
      <trkpt lat="43.11347" lon="6.31335">
        <ele>13</ele>
        <time>2010-01-01T06:49:46Z</time>
      </trkpt>
      <trkpt lat="43.11446" lon="6.31136">
        <ele>26</ele>
        <time>2010-01-01T06:50:57Z</time>
      </trkpt>
      <trkpt lat="43.11518" lon="6.31074">
        <ele>25</ele>
        <time>2010-01-01T06:51:31Z</time>
      </trkpt>
      <trkpt lat="43.11531" lon="6.31051">
        <ele>25</ele>
        <time>2010-01-01T06:51:39Z</time>
      </trkpt>
      <trkpt lat="43.11535" lon="6.31011">
        <ele>25</ele>
        <time>2010-01-01T06:51:51Z</time>
      </trkpt>
      <trkpt lat="43.1152" lon="6.30969">
        <ele>24</ele>
        <time>2010-01-01T06:52:05Z</time>
      </trkpt>
      <trkpt lat="43.11503" lon="6.30948">
        <ele>23</ele>
        <time>2010-01-01T06:52:14Z</time>
      </trkpt>
      <trkpt lat="43.11475" lon="6.30925">
        <ele>23</ele>
        <time>2010-01-01T06:52:27Z</time>
      </trkpt>
      <trkpt lat="43.11486" lon="6.30872">
        <ele>23</ele>
        <time>2010-01-01T06:52:43Z</time>
      </trkpt>
      <trkpt lat="43.11847" lon="6.29781">
        <ele>14</ele>
        <time>2010-01-01T06:58:33Z</time>
      </trkpt>
      <trkpt lat="43.11863" lon="6.29761">
        <ele>14</ele>
        <time>2010-01-01T06:58:42Z</time>
      </trkpt>
      <trkpt lat="43.12" lon="6.29695">
        <ele>14</ele>
        <time>2010-01-01T06:59:40Z</time>
      </trkpt>
      <trkpt lat="43.12014" lon="6.29683">
        <ele>14</ele>
        <time>2010-01-01T06:59:46Z</time>
      </trkpt>
      <trkpt lat="43.12093" lon="6.29506">
        <ele>15</ele>
        <time>2010-01-01T07:00:47Z</time>
      </trkpt>
      <trkpt lat="43.12175" lon="6.29411">
        <ele>18</ele>
        <time>2010-01-01T07:01:30Z</time>
      </trkpt>
      <trkpt lat="43.12252" lon="6.29344">
        <ele>20</ele>
        <time>2010-01-01T07:02:06Z</time>
      </trkpt>
      <trkpt lat="43.12276" lon="6.29308">
        <ele>21</ele>
        <time>2010-01-01T07:02:21Z</time>
      </trkpt>
      <trkpt lat="43.12284" lon="6.29263">
        <ele>22</ele>
        <time>2010-01-01T07:02:34Z</time>
      </trkpt>
      <trkpt lat="43.12285" lon="6.29138">
        <ele>25</ele>
        <time>2010-01-01T07:03:11Z</time>
      </trkpt>
      <trkpt lat="43.12302" lon="6.29079">
        <ele>27</ele>
        <time>2010-01-01T07:03:29Z</time>
      </trkpt>
      <trkpt lat="43.12328" lon="6.29015">
        <ele>27</ele>
        <time>2010-01-01T07:03:51Z</time>
      </trkpt>
      <trkpt lat="43.12398" lon="6.28928">
        <ele>25</ele>
        <time>2010-01-01T07:04:29Z</time>
      </trkpt>
      <trkpt lat="43.12421" lon="6.2889">
        <ele>22</ele>
        <time>2010-01-01T07:04:43Z</time>
      </trkpt>
      <trkpt lat="43.12437" lon="6.28852">
        <ele>21</ele>
        <time>2010-01-01T07:04:56Z</time>
      </trkpt>
      <trkpt lat="43.12463" lon="6.28569">
        <ele>20</ele>
        <time>2010-01-01T07:06:19Z</time>
      </trkpt>
      <trkpt lat="43.12511" lon="6.28274">
        <ele>22</ele>
        <time>2010-01-01T07:07:47Z</time>
      </trkpt>
      <trkpt lat="43.12532" lon="6.28179">
        <ele>21</ele>
        <time>2010-01-01T07:08:16Z</time>
      </trkpt>
      <trkpt lat="43.12532" lon="6.28111">
        <ele>20</ele>
        <time>2010-01-01T07:08:36Z</time>
      </trkpt>
      <trkpt lat="43.12539" lon="6.28066">
        <ele>20</ele>
        <time>2010-01-01T07:08:50Z</time>
      </trkpt>
      <trkpt lat="43.12574" lon="6.27974">
        <ele>19</ele>
        <time>2010-01-01T07:09:20Z</time>
      </trkpt>
      <trkpt lat="43.12614" lon="6.27897">
        <ele>19</ele>
        <time>2010-01-01T07:09:48Z</time>
      </trkpt>
      <trkpt lat="43.12652" lon="6.27809">
        <ele>20</ele>
        <time>2010-01-01T07:10:18Z</time>
      </trkpt>
      <trkpt lat="43.12722" lon="6.27613">
        <ele>20</ele>
        <time>2010-01-01T07:11:21Z</time>
      </trkpt>
      <trkpt lat="43.12787" lon="6.27471">
        <ele>20</ele>
        <time>2010-01-01T07:12:10Z</time>
      </trkpt>
      <trkpt lat="43.12819" lon="6.2742">
        <ele>20</ele>
        <time>2010-01-01T07:12:30Z</time>
      </trkpt>
      <trkpt lat="43.12858" lon="6.27335">
        <ele>20</ele>
        <time>2010-01-01T07:12:59Z</time>
      </trkpt>
      <trkpt lat="43.12872" lon="6.27317">
        <ele>20</ele>
        <time>2010-01-01T07:13:07Z</time>
      </trkpt>
      <trkpt lat="43.12975" lon="6.27288">
        <ele>20</ele>
        <time>2010-01-01T07:13:49Z</time>
      </trkpt>
      <trkpt lat="43.13002" lon="6.27272">
        <ele>20</ele>
        <time>2010-01-01T07:14:01Z</time>
      </trkpt>
      <trkpt lat="43.13046" lon="6.27263">
        <ele>21</ele>
        <time>2010-01-01T07:14:19Z</time>
      </trkpt>
      <trkpt lat="43.13174" lon="6.27273">
        <ele>23</ele>
        <time>2010-01-01T07:15:10Z</time>
      </trkpt>
      <trkpt lat="43.13331" lon="6.27261">
        <ele>28</ele>
        <time>2010-01-01T07:16:13Z</time>
      </trkpt>
      <trkpt lat="43.13341" lon="6.27254">
        <ele>29</ele>
        <time>2010-01-01T07:16:17Z</time>
      </trkpt>
      <trkpt lat="43.13364" lon="6.27179">
        <ele>33</ele>
        <time>2010-01-01T07:16:41Z</time>
      </trkpt>
      <trkpt lat="43.13373" lon="6.27168">
        <ele>33</ele>
        <time>2010-01-01T07:16:46Z</time>
      </trkpt>
      <trkpt lat="43.13389" lon="6.27162">
        <ele>34</ele>
        <time>2010-01-01T07:16:53Z</time>
      </trkpt>
      <trkpt lat="43.13497" lon="6.27157">
        <ele>40</ele>
        <time>2010-01-01T07:17:36Z</time>
      </trkpt>
      <trkpt lat="43.13518" lon="6.27147">
        <ele>40</ele>
        <time>2010-01-01T07:17:45Z</time>
      </trkpt>
      <trkpt lat="43.13588" lon="6.27089">
        <ele>40</ele>
        <time>2010-01-01T07:18:18Z</time>
      </trkpt>
      <trkpt lat="43.13659" lon="6.27017">
        <ele>41</ele>
        <time>2010-01-01T07:18:53Z</time>
      </trkpt>
      <trkpt lat="43.13726" lon="6.26982">
        <ele>43</ele>
        <time>2010-01-01T07:19:22Z</time>
      </trkpt>
      <trkpt lat="43.13763" lon="6.26941">
        <ele>47</ele>
        <time>2010-01-01T07:19:41Z</time>
      </trkpt>
      <trkpt lat="43.1378" lon="6.26928">
        <ele>49</ele>
        <time>2010-01-01T07:19:48Z</time>
      </trkpt>
      <trkpt lat="43.13974" lon="6.2683">
        <ele>60</ele>
        <time>2010-01-01T07:21:11Z</time>
      </trkpt>
      <trkpt lat="43.13989" lon="6.26818">
        <ele>60</ele>
        <time>2010-01-01T07:21:18Z</time>
      </trkpt>
      <trkpt lat="43.14002" lon="6.26796">
        <ele>60</ele>
        <time>2010-01-01T07:21:26Z</time>
      </trkpt>
      <trkpt lat="43.1401" lon="6.26767">
        <ele>60</ele>
        <time>2010-01-01T07:21:35Z</time>
      </trkpt>
      <trkpt lat="43.1401" lon="6.26702">
        <ele>63</ele>
        <time>2010-01-01T07:21:54Z</time>
      </trkpt>
      <trkpt lat="43.14007" lon="6.26677">
        <ele>64</ele>
        <time>2010-01-01T07:22:02Z</time>
      </trkpt>
      <trkpt lat="43.1398" lon="6.26632">
        <ele>69</ele>
        <time>2010-01-01T07:22:19Z</time>
      </trkpt>
      <trkpt lat="43.13974" lon="6.26615">
        <ele>71</ele>
        <time>2010-01-01T07:22:24Z</time>
      </trkpt>
      <trkpt lat="43.13935" lon="6.26408">
        <ele>74</ele>
        <time>2010-01-01T07:23:27Z</time>
      </trkpt>
      <trkpt lat="43.13933" lon="6.26372">
        <ele>69</ele>
        <time>2010-01-01T07:23:37Z</time>
      </trkpt>
      <trkpt lat="43.1395" lon="6.26322">
        <ele>66</ele>
        <time>2010-01-01T07:23:53Z</time>
      </trkpt>
      <trkpt lat="43.13974" lon="6.26296">
        <ele>65</ele>
        <time>2010-01-01T07:24:06Z</time>
      </trkpt>
      <trkpt lat="43.14098" lon="6.26217">
        <ele>59</ele>
        <time>2010-01-01T07:25:00Z</time>
      </trkpt>
      <trkpt lat="43.14266" lon="6.26179">
        <ele>57</ele>
        <time>2010-01-01T07:26:09Z</time>
      </trkpt>
      <trkpt lat="43.14378" lon="6.26133">
        <ele>66</ele>
        <time>2010-01-01T07:26:55Z</time>
      </trkpt>
      <trkpt lat="43.14394" lon="6.26121">
        <ele>67</ele>
        <time>2010-01-01T07:27:03Z</time>
      </trkpt>
      <trkpt lat="43.14403" lon="6.26104">
        <ele>66</ele>
        <time>2010-01-01T07:27:09Z</time>
      </trkpt>
      <trkpt lat="43.14396" lon="6.26062">
        <ele>62</ele>
        <time>2010-01-01T07:27:21Z</time>
      </trkpt>
      <trkpt lat="43.14377" lon="6.25993">
        <ele>56</ele>
        <time>2010-01-01T07:27:43Z</time>
      </trkpt>
      <trkpt lat="43.14359" lon="6.25874">
        <ele>50</ele>
        <time>2010-01-01T07:28:18Z</time>
      </trkpt>
      <trkpt lat="43.14354" lon="6.25808">
        <ele>46</ele>
        <time>2010-01-01T07:28:38Z</time>
      </trkpt>
      <trkpt lat="43.14357" lon="6.25744">
        <ele>43</ele>
        <time>2010-01-01T07:28:57Z</time>
      </trkpt>
      <trkpt lat="43.14364" lon="6.25724">
        <ele>42</ele>
        <time>2010-01-01T07:29:03Z</time>
      </trkpt>
      <trkpt lat="43.14389" lon="6.2569">
        <ele>42</ele>
        <time>2010-01-01T07:29:17Z</time>
      </trkpt>
      <trkpt lat="43.14408" lon="6.25679">
        <ele>41</ele>
        <time>2010-01-01T07:29:25Z</time>
      </trkpt>
      <trkpt lat="43.14461" lon="6.2567">
        <ele>36</ele>
        <time>2010-01-01T07:29:47Z</time>
      </trkpt>
      <trkpt lat="43.14513" lon="6.25636">
        <ele>31</ele>
        <time>2010-01-01T07:30:10Z</time>
      </trkpt>
      <trkpt lat="43.14547" lon="6.25626">
        <ele>30</ele>
        <time>2010-01-01T07:30:24Z</time>
      </trkpt>
      <trkpt lat="43.14509" lon="6.25531">
        <ele>27</ele>
        <time>2010-01-01T07:30:55Z</time>
      </trkpt>
      <trkpt lat="43.1441" lon="6.25254">
        <ele>21</ele>
        <time>2010-01-01T07:32:26Z</time>
      </trkpt>
      <trkpt lat="43.14395" lon="6.25202">
        <ele>19</ele>
        <time>2010-01-01T07:32:42Z</time>
      </trkpt>
      <trkpt lat="43.1439" lon="6.25169">
        <ele>18</ele>
        <time>2010-01-01T07:32:52Z</time>
      </trkpt>
      <trkpt lat="43.14387" lon="6.25128">
        <ele>18</ele>
        <time>2010-01-01T07:33:04Z</time>
      </trkpt>
      <trkpt lat="43.1439" lon="6.25073">
        <ele>19</ele>
        <time>2010-01-01T07:33:20Z</time>
      </trkpt>
      <trkpt lat="43.144" lon="6.2501">
        <ele>21</ele>
        <time>2010-01-01T07:33:39Z</time>
      </trkpt>
      <trkpt lat="43.14424" lon="6.24966">
        <ele>23</ele>
        <time>2010-01-01T07:33:55Z</time>
      </trkpt>
      <trkpt lat="43.14447" lon="6.24953">
        <ele>23</ele>
        <time>2010-01-01T07:34:05Z</time>
      </trkpt>
      <trkpt lat="43.14467" lon="6.2493">
        <ele>24</ele>
        <time>2010-01-01T07:34:15Z</time>
      </trkpt>
      <trkpt lat="43.14482" lon="6.24925">
        <ele>25</ele>
        <time>2010-01-01T07:34:21Z</time>
      </trkpt>
      <trkpt lat="43.14496" lon="6.24929">
        <ele>25</ele>
        <time>2010-01-01T07:34:27Z</time>
      </trkpt>
      <trkpt lat="43.14507" lon="6.24937">
        <ele>24</ele>
        <time>2010-01-01T07:34:32Z</time>
      </trkpt>
      <trkpt lat="43.14562" lon="6.25008">
        <ele>23</ele>
        <time>2010-01-01T07:35:02Z</time>
      </trkpt>
      <trkpt lat="43.14705" lon="6.24852">
        <ele>30</ele>
        <time>2010-01-01T07:36:15Z</time>
      </trkpt>
      <trkpt lat="43.1473" lon="6.24715">
        <ele>35</ele>
        <time>2010-01-01T07:36:57Z</time>
      </trkpt>
      <trkpt lat="43.14732" lon="6.24666">
        <ele>37</ele>
        <time>2010-01-01T07:37:11Z</time>
      </trkpt>
      <trkpt lat="43.14713" lon="6.24571">
        <ele>37</ele>
        <time>2010-01-01T07:37:40Z</time>
      </trkpt>
      <trkpt lat="43.147" lon="6.24472">
        <ele>37</ele>
        <time>2010-01-01T07:38:09Z</time>
      </trkpt>
      <trkpt lat="43.14677" lon="6.24281">
        <ele>37</ele>
        <time>2010-01-01T07:39:06Z</time>
      </trkpt>
      <trkpt lat="43.14641" lon="6.24008">
        <ele>38</ele>
        <time>2010-01-01T07:40:27Z</time>
      </trkpt>
      <trkpt lat="43.14526" lon="6.23585">
        <ele>36</ele>
        <time>2010-01-01T07:42:39Z</time>
      </trkpt>
      <trkpt lat="43.14506" lon="6.23543">
        <ele>35</ele>
        <time>2010-01-01T07:42:53Z</time>
      </trkpt>
      <trkpt lat="43.14456" lon="6.23463">
        <ele>33</ele>
        <time>2010-01-01T07:43:24Z</time>
      </trkpt>
      <trkpt lat="43.1444" lon="6.23428">
        <ele>32</ele>
        <time>2010-01-01T07:43:36Z</time>
      </trkpt>
      <trkpt lat="43.14404" lon="6.23238">
        <ele>28</ele>
        <time>2010-01-01T07:44:33Z</time>
      </trkpt>
      <trkpt lat="43.14377" lon="6.23163">
        <ele>26</ele>
        <time>2010-01-01T07:44:58Z</time>
      </trkpt>
      <trkpt lat="43.1436" lon="6.23098">
        <ele>25</ele>
        <time>2010-01-01T07:45:18Z</time>
      </trkpt>
      <trkpt lat="43.14352" lon="6.23025">
        <ele>24</ele>
        <time>2010-01-01T07:45:40Z</time>
      </trkpt>
      <trkpt lat="43.14354" lon="6.23014">
        <ele>24</ele>
        <time>2010-01-01T07:45:43Z</time>
      </trkpt>
      <trkpt lat="43.14399" lon="6.22992">
        <ele>24</ele>
        <time>2010-01-01T07:46:02Z</time>
      </trkpt>
      <trkpt lat="43.14523" lon="6.22934">
        <ele>26</ele>
        <time>2010-01-01T07:46:54Z</time>
      </trkpt>
      <trkpt lat="43.14673" lon="6.22874">
        <ele>29</ele>
        <time>2010-01-01T07:47:57Z</time>
      </trkpt>
      <trkpt lat="43.14787" lon="6.22843">
        <ele>31</ele>
        <time>2010-01-01T07:48:43Z</time>
      </trkpt>
      <trkpt lat="43.14863" lon="6.22835">
        <ele>33</ele>
        <time>2010-01-01T07:49:14Z</time>
      </trkpt>
      <trkpt lat="43.15071" lon="6.22761">
        <ele>32</ele>
        <time>2010-01-01T07:50:40Z</time>
      </trkpt>
      <trkpt lat="43.15211" lon="6.22735">
        <ele>35</ele>
        <time>2010-01-01T07:51:37Z</time>
      </trkpt>
      <trkpt lat="43.15245" lon="6.22722">
        <ele>35</ele>
        <time>2010-01-01T07:51:51Z</time>
      </trkpt>
      <trkpt lat="43.15295" lon="6.22693">
        <ele>35</ele>
        <time>2010-01-01T07:52:12Z</time>
      </trkpt>
      <trkpt lat="43.15406" lon="6.22622">
        <ele>36</ele>
        <time>2010-01-01T07:53:01Z</time>
      </trkpt>
      <trkpt lat="43.15501" lon="6.22553">
        <ele>37</ele>
        <time>2010-01-01T07:53:45Z</time>
      </trkpt>
      <trkpt lat="43.15596" lon="6.22468">
        <ele>38</ele>
        <time>2010-01-01T07:54:30Z</time>
      </trkpt>
      <trkpt lat="43.15671" lon="6.22427">
        <ele>39</ele>
        <time>2010-01-01T07:55:02Z</time>
      </trkpt>
      <trkpt lat="43.15719" lon="6.2239">
        <ele>40</ele>
        <time>2010-01-01T07:55:24Z</time>
      </trkpt>
      <trkpt lat="43.1575" lon="6.22349">
        <ele>40</ele>
        <time>2010-01-01T07:55:42Z</time>
      </trkpt>
      <trkpt lat="43.15896" lon="6.22067">
        <ele>42</ele>
        <time>2010-01-01T07:57:23Z</time>
      </trkpt>
      <trkpt lat="43.1602" lon="6.21931">
        <ele>43</ele>
        <time>2010-01-01T07:58:26Z</time>
      </trkpt>
      <trkpt lat="43.16042" lon="6.21917">
        <ele>44</ele>
        <time>2010-01-01T07:58:36Z</time>
      </trkpt>
      <trkpt lat="43.16105" lon="6.21897">
        <ele>44</ele>
        <time>2010-01-01T07:59:02Z</time>
      </trkpt>
      <trkpt lat="43.163" lon="6.21793">
        <ele>47</ele>
        <time>2010-01-01T08:00:25Z</time>
      </trkpt>
      <trkpt lat="43.16476" lon="6.21726">
        <ele>48</ele>
        <time>2010-01-01T08:01:39Z</time>
      </trkpt>
      <trkpt lat="43.1663" lon="6.21652">
        <ele>51</ele>
        <time>2010-01-01T08:02:44Z</time>
      </trkpt>
      <trkpt lat="43.16736" lon="6.21606">
        <ele>55</ele>
        <time>2010-01-01T08:03:28Z</time>
      </trkpt>
      <trkpt lat="43.16776" lon="6.21594">
        <ele>55</ele>
        <time>2010-01-01T08:03:45Z</time>
      </trkpt>
      <trkpt lat="43.16815" lon="6.21592">
        <ele>54</ele>
        <time>2010-01-01T08:04:00Z</time>
      </trkpt>
      <trkpt lat="43.16901" lon="6.21598">
        <ele>53</ele>
        <time>2010-01-01T08:04:35Z</time>
      </trkpt>
      <trkpt lat="43.16967" lon="6.21595">
        <ele>54</ele>
        <time>2010-01-01T08:05:01Z</time>
      </trkpt>
      <trkpt lat="43.17077" lon="6.21573">
        <ele>59</ele>
        <time>2010-01-01T08:05:46Z</time>
      </trkpt>
      <trkpt lat="43.17206" lon="6.21538">
        <ele>58</ele>
        <time>2010-01-01T08:06:38Z</time>
      </trkpt>
      <trkpt lat="43.17225" lon="6.21543">
        <ele>57</ele>
        <time>2010-01-01T08:06:46Z</time>
      </trkpt>
      <trkpt lat="43.17254" lon="6.21567">
        <ele>56</ele>
        <time>2010-01-01T08:07:00Z</time>
      </trkpt>
      <trkpt lat="43.17272" lon="6.21576">
        <ele>56</ele>
        <time>2010-01-01T08:07:07Z</time>
      </trkpt>
      <trkpt lat="43.17391" lon="6.21595">
        <ele>58</ele>
        <time>2010-01-01T08:07:55Z</time>
      </trkpt>
      <trkpt lat="43.17448" lon="6.21589">
        <ele>58</ele>
        <time>2010-01-01T08:08:18Z</time>
      </trkpt>
      <trkpt lat="43.17586" lon="6.2156">
        <ele>57</ele>
        <time>2010-01-01T08:09:14Z</time>
      </trkpt>
      <trkpt lat="43.17605" lon="6.21553">
        <ele>57</ele>
        <time>2010-01-01T08:09:22Z</time>
      </trkpt>
      <trkpt lat="43.17634" lon="6.21533">
        <ele>57</ele>
        <time>2010-01-01T08:09:35Z</time>
      </trkpt>
      <trkpt lat="43.17778" lon="6.21418">
        <ele>59</ele>
        <time>2010-01-01T08:10:42Z</time>
      </trkpt>
      <trkpt lat="43.17843" lon="6.21339">
        <ele>62</ele>
        <time>2010-01-01T08:11:16Z</time>
      </trkpt>
      <trkpt lat="43.17883" lon="6.21321">
        <ele>65</ele>
        <time>2010-01-01T08:11:33Z</time>
      </trkpt>
      <trkpt lat="43.17918" lon="6.21328">
        <ele>63</ele>
        <time>2010-01-01T08:11:47Z</time>
      </trkpt>
      <trkpt lat="43.17987" lon="6.21365">
        <ele>63</ele>
        <time>2010-01-01T08:12:17Z</time>
      </trkpt>
      <trkpt lat="43.18073" lon="6.21452">
        <ele>61</ele>
        <time>2010-01-01T08:13:00Z</time>
      </trkpt>
      <trkpt lat="43.18111" lon="6.21474">
        <ele>60</ele>
        <time>2010-01-01T08:13:16Z</time>
      </trkpt>
      <trkpt lat="43.18193" lon="6.21484">
        <ele>61</ele>
        <time>2010-01-01T08:13:49Z</time>
      </trkpt>
      <trkpt lat="43.18359" lon="6.21474">
        <ele>67</ele>
        <time>2010-01-01T08:14:56Z</time>
      </trkpt>
      <trkpt lat="43.18487" lon="6.21444">
        <ele>66</ele>
        <time>2010-01-01T08:15:48Z</time>
      </trkpt>
      <trkpt lat="43.18516" lon="6.21427">
        <ele>67</ele>
        <time>2010-01-01T08:16:01Z</time>
      </trkpt>
      <trkpt lat="43.18534" lon="6.21404">
        <ele>69</ele>
        <time>2010-01-01T08:16:10Z</time>
      </trkpt>
      <trkpt lat="43.18627" lon="6.21225">
        <ele>75</ele>
        <time>2010-01-01T08:17:15Z</time>
      </trkpt>
      <trkpt lat="43.18661" lon="6.21187">
        <ele>74</ele>
        <time>2010-01-01T08:17:32Z</time>
      </trkpt>
      <trkpt lat="43.18741" lon="6.21116">
        <ele>75</ele>
        <time>2010-01-01T08:18:10Z</time>
      </trkpt>
      <trkpt lat="43.18777" lon="6.21093">
        <ele>77</ele>
        <time>2010-01-01T08:18:26Z</time>
      </trkpt>
      <trkpt lat="43.19065" lon="6.20966">
        <ele>88</ele>
        <time>2010-01-01T08:20:27Z</time>
      </trkpt>
      <trkpt lat="43.19133" lon="6.20925">
        <ele>89</ele>
        <time>2010-01-01T08:20:57Z</time>
      </trkpt>
      <trkpt lat="43.1917" lon="6.20911">
        <ele>88</ele>
        <time>2010-01-01T08:21:12Z</time>
      </trkpt>
      <trkpt lat="43.19344" lon="6.20913">
        <ele>92</ele>
        <time>2010-01-01T08:22:22Z</time>
      </trkpt>
      <trkpt lat="43.19381" lon="6.20925">
        <ele>94</ele>
        <time>2010-01-01T08:22:37Z</time>
      </trkpt>
      <trkpt lat="43.19525" lon="6.21003">
        <ele>94</ele>
        <time>2010-01-01T08:23:39Z</time>
      </trkpt>
      <trkpt lat="43.19564" lon="6.21012">
        <ele>94</ele>
        <time>2010-01-01T08:23:55Z</time>
      </trkpt>
      <trkpt lat="43.19651" lon="6.21018">
        <ele>95</ele>
        <time>2010-01-01T08:24:30Z</time>
      </trkpt>
      <trkpt lat="43.19686" lon="6.21028">
        <ele>96</ele>
        <time>2010-01-01T08:24:44Z</time>
      </trkpt>
      <trkpt lat="43.19798" lon="6.21081">
        <ele>101</ele>
        <time>2010-01-01T08:25:32Z</time>
      </trkpt>
      <trkpt lat="43.19894" lon="6.21151">
        <ele>99</ele>
        <time>2010-01-01T08:26:15Z</time>
      </trkpt>
      <trkpt lat="43.1994" lon="6.21199">
        <ele>99</ele>
        <time>2010-01-01T08:26:38Z</time>
      </trkpt>
      <trkpt lat="43.20014" lon="6.21307">
        <ele>100</ele>
        <time>2010-01-01T08:27:22Z</time>
      </trkpt>
      <trkpt lat="43.20036" lon="6.21314">
        <ele>100</ele>
        <time>2010-01-01T08:27:31Z</time>
      </trkpt>
      <trkpt lat="43.20134" lon="6.21325">
        <ele>101</ele>
        <time>2010-01-01T08:28:10Z</time>
      </trkpt>
      <trkpt lat="43.2023" lon="6.21323">
        <ele>101</ele>
        <time>2010-01-01T08:28:48Z</time>
      </trkpt>
      <trkpt lat="43.20393" lon="6.213">
        <ele>112</ele>
        <time>2010-01-01T08:29:54Z</time>
      </trkpt>
      <trkpt lat="43.20413" lon="6.21293">
        <ele>114</ele>
        <time>2010-01-01T08:30:02Z</time>
      </trkpt>
      <trkpt lat="43.20511" lon="6.21205">
        <ele>120</ele>
        <time>2010-01-01T08:30:49Z</time>
      </trkpt>
      <trkpt lat="43.20573" lon="6.21131">
        <ele>121</ele>
        <time>2010-01-01T08:31:22Z</time>
      </trkpt>
      <trkpt lat="43.20681" lon="6.21029">
        <ele>120</ele>
        <time>2010-01-01T08:32:14Z</time>
      </trkpt>
      <trkpt lat="43.20708" lon="6.21011">
        <ele>120</ele>
        <time>2010-01-01T08:32:26Z</time>
      </trkpt>
      <trkpt lat="43.20742" lon="6.20997">
        <ele>120</ele>
        <time>2010-01-01T08:32:41Z</time>
      </trkpt>
      <trkpt lat="43.20767" lon="6.20993">
        <ele>121</ele>
        <time>2010-01-01T08:32:51Z</time>
      </trkpt>
      <trkpt lat="43.20789" lon="6.20998">
        <ele>123</ele>
        <time>2010-01-01T08:33:00Z</time>
      </trkpt>
      <trkpt lat="43.20832" lon="6.21026">
        <ele>125</ele>
        <time>2010-01-01T08:33:19Z</time>
      </trkpt>
      <trkpt lat="43.2086" lon="6.21064">
        <ele>130</ele>
        <time>2010-01-01T08:33:35Z</time>
      </trkpt>
      <trkpt lat="43.20874" lon="6.21102">
        <ele>133</ele>
        <time>2010-01-01T08:33:47Z</time>
      </trkpt>
      <trkpt lat="43.20886" lon="6.2117">
        <ele>134</ele>
        <time>2010-01-01T08:34:07Z</time>
      </trkpt>
      <trkpt lat="43.20912" lon="6.21236">
        <ele>139</ele>
        <time>2010-01-01T08:34:29Z</time>
      </trkpt>
      <trkpt lat="43.20926" lon="6.2131">
        <ele>141</ele>
        <time>2010-01-01T08:34:52Z</time>
      </trkpt>
      <trkpt lat="43.20967" lon="6.2139">
        <ele>142</ele>
        <time>2010-01-01T08:35:20Z</time>
      </trkpt>
      <trkpt lat="43.20996" lon="6.2141">
        <ele>141</ele>
        <time>2010-01-01T08:35:33Z</time>
      </trkpt>
      <trkpt lat="43.21013" lon="6.21413">
        <ele>141</ele>
        <time>2010-01-01T08:35:40Z</time>
      </trkpt>
      <trkpt lat="43.21057" lon="6.21412">
        <ele>143</ele>
        <time>2010-01-01T08:35:58Z</time>
      </trkpt>
      <trkpt lat="43.21085" lon="6.21399">
        <ele>146</ele>
        <time>2010-01-01T08:36:09Z</time>
      </trkpt>
      <trkpt lat="43.21093" lon="6.214">
        <ele>147</ele>
        <time>2010-01-01T08:36:13Z</time>
      </trkpt>
      <trkpt lat="43.21119" lon="6.2142">
        <ele>148</ele>
        <time>2010-01-01T08:36:25Z</time>
      </trkpt>
      <trkpt lat="43.2114" lon="6.21446">
        <ele>149</ele>
        <time>2010-01-01T08:36:36Z</time>
      </trkpt>
      <trkpt lat="43.21193" lon="6.21597">
        <ele>149</ele>
        <time>2010-01-01T08:37:25Z</time>
      </trkpt>
      <trkpt lat="43.21261" lon="6.21675">
        <ele>160</ele>
        <time>2010-01-01T08:38:00Z</time>
      </trkpt>
      <trkpt lat="43.2127" lon="6.21695">
        <ele>162</ele>
        <time>2010-01-01T08:38:07Z</time>
      </trkpt>
      <trkpt lat="43.21269" lon="6.21761">
        <ele>163</ele>
        <time>2010-01-01T08:38:26Z</time>
      </trkpt>
      <trkpt lat="43.21254" lon="6.21869">
        <ele>159</ele>
        <time>2010-01-01T08:38:58Z</time>
      </trkpt>
      <trkpt lat="43.21258" lon="6.21906">
        <ele>160</ele>
        <time>2010-01-01T08:39:09Z</time>
      </trkpt>
      <trkpt lat="43.21283" lon="6.21944">
        <ele>163</ele>
        <time>2010-01-01T08:39:24Z</time>
      </trkpt>
      <trkpt lat="43.21322" lon="6.21981">
        <ele>166</ele>
        <time>2010-01-01T08:39:43Z</time>
      </trkpt>
      <trkpt lat="43.21353" lon="6.22048">
        <ele>171</ele>
        <time>2010-01-01T08:40:06Z</time>
      </trkpt>
      <trkpt lat="43.21371" lon="6.22063">
        <ele>174</ele>
        <time>2010-01-01T08:40:15Z</time>
      </trkpt>
      <trkpt lat="43.21478" lon="6.22119">
        <ele>180</ele>
        <time>2010-01-01T08:41:01Z</time>
      </trkpt>
      <trkpt lat="43.21494" lon="6.22132">
        <ele>181</ele>
        <time>2010-01-01T08:41:08Z</time>
      </trkpt>
      <trkpt lat="43.21504" lon="6.22148">
        <ele>181</ele>
        <time>2010-01-01T08:41:14Z</time>
      </trkpt>
      <trkpt lat="43.21525" lon="6.22235">
        <ele>196</ele>
        <time>2010-01-01T08:41:41Z</time>
      </trkpt>
      <trkpt lat="43.21531" lon="6.22244">
        <ele>199</ele>
        <time>2010-01-01T08:41:45Z</time>
      </trkpt>
      <trkpt lat="43.21542" lon="6.22236">
        <ele>200</ele>
        <time>2010-01-01T08:41:50Z</time>
      </trkpt>
      <trkpt lat="43.2155" lon="6.2217">
        <ele>191</ele>
        <time>2010-01-01T08:42:09Z</time>
      </trkpt>
      <trkpt lat="43.2156" lon="6.22148">
        <ele>189</ele>
        <time>2010-01-01T08:42:17Z</time>
      </trkpt>
      <trkpt lat="43.21602" lon="6.22109">
        <ele>188</ele>
        <time>2010-01-01T08:42:37Z</time>
      </trkpt>
      <trkpt lat="43.21663" lon="6.22026">
        <ele>182</ele>
        <time>2010-01-01T08:43:11Z</time>
      </trkpt>
      <trkpt lat="43.21695" lon="6.22004">
        <ele>178</ele>
        <time>2010-01-01T08:43:26Z</time>
      </trkpt>
      <trkpt lat="43.21751" lon="6.21947">
        <ele>177</ele>
        <time>2010-01-01T08:43:54Z</time>
      </trkpt>
      <trkpt lat="43.21767" lon="6.21917">
        <ele>178</ele>
        <time>2010-01-01T08:44:04Z</time>
      </trkpt>
      <trkpt lat="43.21782" lon="6.21856">
        <ele>186</ele>
        <time>2010-01-01T08:44:23Z</time>
      </trkpt>
      <trkpt lat="43.21789" lon="6.21846">
        <ele>188</ele>
        <time>2010-01-01T08:44:27Z</time>
      </trkpt>
      <trkpt lat="43.21798" lon="6.21846">
        <ele>188</ele>
        <time>2010-01-01T08:44:31Z</time>
      </trkpt>
      <trkpt lat="43.2183" lon="6.21889">
        <ele>180</ele>
        <time>2010-01-01T08:44:49Z</time>
      </trkpt>
      <trkpt lat="43.21849" lon="6.219">
        <ele>177</ele>
        <time>2010-01-01T08:44:57Z</time>
      </trkpt>
      <trkpt lat="43.21877" lon="6.21893">
        <ele>178</ele>
        <time>2010-01-01T08:45:08Z</time>
      </trkpt>
      <trkpt lat="43.21891" lon="6.2188">
        <ele>181</ele>
        <time>2010-01-01T08:45:15Z</time>
      </trkpt>
      <trkpt lat="43.21907" lon="6.21854">
        <ele>186</ele>
        <time>2010-01-01T08:45:25Z</time>
      </trkpt>
      <trkpt lat="43.21921" lon="6.21848">
        <ele>187</ele>
        <time>2010-01-01T08:45:31Z</time>
      </trkpt>
      <trkpt lat="43.21931" lon="6.21863">
        <ele>184</ele>
        <time>2010-01-01T08:45:37Z</time>
      </trkpt>
      <trkpt lat="43.21943" lon="6.2191">
        <ele>174</ele>
        <time>2010-01-01T08:45:51Z</time>
      </trkpt>
      <trkpt lat="43.21957" lon="6.21934">
        <ele>170</ele>
        <time>2010-01-01T08:46:00Z</time>
      </trkpt>
      <trkpt lat="43.21993" lon="6.21962">
        <ele>164</ele>
        <time>2010-01-01T08:46:17Z</time>
      </trkpt>
      <trkpt lat="43.22024" lon="6.21976">
        <ele>157</ele>
        <time>2010-01-01T08:46:30Z</time>
      </trkpt>
      <trkpt lat="43.22052" lon="6.21982">
        <ele>152</ele>
        <time>2010-01-01T08:46:41Z</time>
      </trkpt>
      <trkpt lat="43.22069" lon="6.21979">
        <ele>150</ele>
        <time>2010-01-01T08:46:48Z</time>
      </trkpt>
      <trkpt lat="43.22086" lon="6.21964">
        <ele>150</ele>
        <time>2010-01-01T08:46:56Z</time>
      </trkpt>
      <trkpt lat="43.22096" lon="6.2194">
        <ele>153</ele>
        <time>2010-01-01T08:47:04Z</time>
      </trkpt>
      <trkpt lat="43.22101" lon="6.219">
        <ele>158</ele>
        <time>2010-01-01T08:47:16Z</time>
      </trkpt>
      <trkpt lat="43.22113" lon="6.21893">
        <ele>158</ele>
        <time>2010-01-01T08:47:21Z</time>
      </trkpt>
      <trkpt lat="43.22119" lon="6.21906">
        <ele>157</ele>
        <time>2010-01-01T08:47:26Z</time>
      </trkpt>
      <trkpt lat="43.22122" lon="6.2194">
        <ele>152</ele>
        <time>2010-01-01T08:47:36Z</time>
      </trkpt>
      <trkpt lat="43.22107" lon="6.21989">
        <ele>146</ele>
        <time>2010-01-01T08:47:51Z</time>
      </trkpt>
      <trkpt lat="43.221" lon="6.22003">
        <ele>145</ele>
        <time>2010-01-01T08:47:56Z</time>
      </trkpt>
      <trkpt lat="43.22086" lon="6.22016">
        <ele>144</ele>
        <time>2010-01-01T08:48:03Z</time>
      </trkpt>
      <trkpt lat="43.22058" lon="6.22024">
        <ele>146</ele>
        <time>2010-01-01T08:48:15Z</time>
      </trkpt>
      <trkpt lat="43.22052" lon="6.22032">
        <ele>146</ele>
        <time>2010-01-01T08:48:18Z</time>
      </trkpt>
      <trkpt lat="43.22052" lon="6.2204">
        <ele>145</ele>
        <time>2010-01-01T08:48:20Z</time>
      </trkpt>
      <trkpt lat="43.22056" lon="6.22046">
        <ele>145</ele>
        <time>2010-01-01T08:48:23Z</time>
      </trkpt>
      <trkpt lat="43.22067" lon="6.22048">
        <ele>143</ele>
        <time>2010-01-01T08:48:27Z</time>
      </trkpt>
      <trkpt lat="43.22141" lon="6.22024">
        <ele>143</ele>
        <time>2010-01-01T08:48:58Z</time>
      </trkpt>
      <trkpt lat="43.22209" lon="6.22018">
        <ele>144</ele>
        <time>2010-01-01T08:49:25Z</time>
      </trkpt>
      <trkpt lat="43.22275" lon="6.22043">
        <ele>144</ele>
        <time>2010-01-01T08:49:52Z</time>
      </trkpt>
      <trkpt lat="43.22362" lon="6.22062">
        <ele>143</ele>
        <time>2010-01-01T08:50:27Z</time>
      </trkpt>
      <trkpt lat="43.22387" lon="6.22072">
        <ele>141</ele>
        <time>2010-01-01T08:50:38Z</time>
      </trkpt>
      <trkpt lat="43.22419" lon="6.22096">
        <ele>139</ele>
        <time>2010-01-01T08:50:53Z</time>
      </trkpt>
      <trkpt lat="43.22462" lon="6.22145">
        <ele>138</ele>
        <time>2010-01-01T08:51:15Z</time>
      </trkpt>
      <trkpt lat="43.22485" lon="6.22163">
        <ele>136</ele>
        <time>2010-01-01T08:51:25Z</time>
      </trkpt>
      <trkpt lat="43.22526" lon="6.22172">
        <ele>131</ele>
        <time>2010-01-01T08:51:42Z</time>
      </trkpt>
      <trkpt lat="43.22551" lon="6.22174">
        <ele>127</ele>
        <time>2010-01-01T08:51:52Z</time>
      </trkpt>
      <trkpt lat="43.22564" lon="6.2217">
        <ele>125</ele>
        <time>2010-01-01T08:51:57Z</time>
      </trkpt>
      <trkpt lat="43.22606" lon="6.22118">
        <ele>126</ele>
        <time>2010-01-01T08:52:20Z</time>
      </trkpt>
      <trkpt lat="43.22632" lon="6.22053">
        <ele>126</ele>
        <time>2010-01-01T08:52:42Z</time>
      </trkpt>
      <trkpt lat="43.22643" lon="6.22035">
        <ele>124</ele>
        <time>2010-01-01T08:52:49Z</time>
      </trkpt>
      <trkpt lat="43.22724" lon="6.2196">
        <ele>121</ele>
        <time>2010-01-01T08:53:28Z</time>
      </trkpt>
      <trkpt lat="43.2275" lon="6.2193">
        <ele>120</ele>
        <time>2010-01-01T08:53:41Z</time>
      </trkpt>
      <trkpt lat="43.22826" lon="6.2179">
        <ele>120</ele>
        <time>2010-01-01T08:54:32Z</time>
      </trkpt>
      <trkpt lat="43.22856" lon="6.21745">
        <ele>119</ele>
        <time>2010-01-01T08:54:50Z</time>
      </trkpt>
      <trkpt lat="43.22932" lon="6.21525">
        <ele>117</ele>
        <time>2010-01-01T08:56:01Z</time>
      </trkpt>
      <trkpt lat="43.22988" lon="6.21443">
        <ele>111</ele>
        <time>2010-01-01T08:56:34Z</time>
      </trkpt>
      <trkpt lat="43.23008" lon="6.21401">
        <ele>108</ele>
        <time>2010-01-01T08:56:48Z</time>
      </trkpt>
      <trkpt lat="43.23023" lon="6.21373">
        <ele>106</ele>
        <time>2010-01-01T08:56:59Z</time>
      </trkpt>
      <trkpt lat="43.23053" lon="6.21335">
        <ele>103</ele>
        <time>2010-01-01T08:57:15Z</time>
      </trkpt>
      <trkpt lat="43.23086" lon="6.21309">
        <ele>101</ele>
        <time>2010-01-01T08:57:30Z</time>
      </trkpt>
      <trkpt lat="43.23372" lon="6.21198">
        <ele>98</ele>
        <time>2010-01-01T08:59:29Z</time>
      </trkpt>
      <trkpt lat="43.23403" lon="6.21196">
        <ele>97</ele>
        <time>2010-01-01T08:59:42Z</time>
      </trkpt>
      <trkpt lat="43.23439" lon="6.21204">
        <ele>95</ele>
        <time>2010-01-01T08:59:56Z</time>
      </trkpt>
      <trkpt lat="43.23432" lon="6.21118">
        <ele>94</ele>
        <time>2010-01-01T09:00:21Z</time>
      </trkpt>
      <trkpt lat="43.23407" lon="6.20993">
        <ele>93</ele>
        <time>2010-01-01T09:00:59Z</time>
      </trkpt>
      <trkpt lat="43.23365" lon="6.20746">
        <ele>93</ele>
        <time>2010-01-01T09:02:13Z</time>
      </trkpt>
      <trkpt lat="43.23356" lon="6.20618">
        <ele>92</ele>
        <time>2010-01-01T09:02:51Z</time>
      </trkpt>
      <trkpt lat="43.23324" lon="6.20406">
        <ele>90</ele>
        <time>2010-01-01T09:03:54Z</time>
      </trkpt>
      <trkpt lat="43.23258" lon="6.20093">
        <ele>89</ele>
        <time>2010-01-01T09:05:29Z</time>
      </trkpt>
      <trkpt lat="43.23263" lon="6.19872">
        <ele>89</ele>
        <time>2010-01-01T09:06:33Z</time>
      </trkpt>
      <trkpt lat="43.23307" lon="6.19683">
        <ele>85</ele>
        <time>2010-01-01T09:07:31Z</time>
      </trkpt>
      <trkpt lat="43.23322" lon="6.19569">
        <ele>80</ele>
        <time>2010-01-01T09:08:05Z</time>
      </trkpt>
      <trkpt lat="43.23322" lon="6.19506">
        <ele>80</ele>
        <time>2010-01-01T09:08:23Z</time>
      </trkpt>
      <trkpt lat="43.23313" lon="6.19425">
        <ele>80</ele>
        <time>2010-01-01T09:08:47Z</time>
      </trkpt>
      <trkpt lat="43.23312" lon="6.19301">
        <ele>79</ele>
        <time>2010-01-01T09:09:23Z</time>
      </trkpt>
      <trkpt lat="43.23319" lon="6.19241">
        <ele>79</ele>
        <time>2010-01-01T09:09:41Z</time>
      </trkpt>
      <trkpt lat="43.23342" lon="6.19153">
        <ele>79</ele>
        <time>2010-01-01T09:10:08Z</time>
      </trkpt>
      <trkpt lat="43.23347" lon="6.1912">
        <ele>78</ele>
        <time>2010-01-01T09:10:18Z</time>
      </trkpt>
      <trkpt lat="43.23355" lon="6.19027">
        <ele>77</ele>
        <time>2010-01-01T09:10:46Z</time>
      </trkpt>
      <trkpt lat="43.23355" lon="6.18958">
        <ele>78</ele>
        <time>2010-01-01T09:11:06Z</time>
      </trkpt>
      <trkpt lat="43.23328" lon="6.18814">
        <ele>77</ele>
        <time>2010-01-01T09:11:49Z</time>
      </trkpt>
      <trkpt lat="43.23236" lon="6.18579">
        <ele>77</ele>
        <time>2010-01-01T09:13:07Z</time>
      </trkpt>
      <trkpt lat="43.23226" lon="6.18526">
        <ele>77</ele>
        <time>2010-01-01T09:13:23Z</time>
      </trkpt>
      <trkpt lat="43.23217" lon="6.1843">
        <ele>77</ele>
        <time>2010-01-01T09:13:51Z</time>
      </trkpt>
      <trkpt lat="43.23201" lon="6.18354">
        <ele>76</ele>
        <time>2010-01-01T09:14:14Z</time>
      </trkpt>
      <trkpt lat="43.23156" lon="6.18234">
        <ele>77</ele>
        <time>2010-01-01T09:14:53Z</time>
      </trkpt>
      <trkpt lat="43.23151" lon="6.18202">
        <ele>77</ele>
        <time>2010-01-01T09:15:03Z</time>
      </trkpt>
      <trkpt lat="43.23154" lon="6.18149">
        <ele>77</ele>
        <time>2010-01-01T09:15:19Z</time>
      </trkpt>
      <trkpt lat="43.2317" lon="6.18081">
        <ele>77</ele>
        <time>2010-01-01T09:15:39Z</time>
      </trkpt>
      <trkpt lat="43.2319" lon="6.18013">
        <ele>76</ele>
        <time>2010-01-01T09:16:01Z</time>
      </trkpt>
      <trkpt lat="43.23229" lon="6.17906">
        <ele>76</ele>
        <time>2010-01-01T09:16:36Z</time>
      </trkpt>
      <trkpt lat="43.2324" lon="6.17849">
        <ele>76</ele>
        <time>2010-01-01T09:16:53Z</time>
      </trkpt>
      <trkpt lat="43.23241" lon="6.17639">
        <ele>76</ele>
        <time>2010-01-01T09:17:54Z</time>
      </trkpt>
      <trkpt lat="43.2325" lon="6.17551">
        <ele>76</ele>
        <time>2010-01-01T09:18:20Z</time>
      </trkpt>
      <trkpt lat="43.23251" lon="6.17476">
        <ele>77</ele>
        <time>2010-01-01T09:18:42Z</time>
      </trkpt>
      <trkpt lat="43.23246" lon="6.17414">
        <ele>78</ele>
        <time>2010-01-01T09:19:00Z</time>
      </trkpt>
      <trkpt lat="43.23223" lon="6.17247">
        <ele>80</ele>
        <time>2010-01-01T09:19:50Z</time>
      </trkpt>
      <trkpt lat="43.2322" lon="6.17198">
        <ele>81</ele>
        <time>2010-01-01T09:20:04Z</time>
      </trkpt>
      <trkpt lat="43.23224" lon="6.17176">
        <ele>82</ele>
        <time>2010-01-01T09:20:11Z</time>
      </trkpt>
      <trkpt lat="43.23246" lon="6.1712">
        <ele>86</ele>
        <time>2010-01-01T09:20:29Z</time>
      </trkpt>
      <trkpt lat="43.23275" lon="6.1706">
        <ele>88</ele>
        <time>2010-01-01T09:20:50Z</time>
      </trkpt>
      <trkpt lat="43.23337" lon="6.16975">
        <ele>84</ele>
        <time>2010-01-01T09:21:25Z</time>
      </trkpt>
      <trkpt lat="43.23367" lon="6.16914">
        <ele>84</ele>
        <time>2010-01-01T09:21:47Z</time>
      </trkpt>
      <trkpt lat="43.23387" lon="6.16857">
        <ele>82</ele>
        <time>2010-01-01T09:22:05Z</time>
      </trkpt>
      <trkpt lat="43.23412" lon="6.16759">
        <ele>80</ele>
        <time>2010-01-01T09:22:35Z</time>
      </trkpt>
      <trkpt lat="43.23418" lon="6.16714">
        <ele>80</ele>
        <time>2010-01-01T09:22:49Z</time>
      </trkpt>
      <trkpt lat="43.23419" lon="6.16576">
        <ele>81</ele>
        <time>2010-01-01T09:23:29Z</time>
      </trkpt>
      <trkpt lat="43.23374" lon="6.16244">
        <ele>84</ele>
        <time>2010-01-01T09:25:08Z</time>
      </trkpt>
      <trkpt lat="43.23338" lon="6.16053">
        <ele>78</ele>
        <time>2010-01-01T09:26:05Z</time>
      </trkpt>
      <trkpt lat="43.2331" lon="6.1594">
        <ele>77</ele>
        <time>2010-01-01T09:26:40Z</time>
      </trkpt>
      <trkpt lat="43.2327" lon="6.15821">
        <ele>76</ele>
        <time>2010-01-01T09:27:18Z</time>
      </trkpt>
      <trkpt lat="43.23241" lon="6.1572">
        <ele>75</ele>
        <time>2010-01-01T09:27:50Z</time>
      </trkpt>
      <trkpt lat="43.2323" lon="6.1565">
        <ele>73</ele>
        <time>2010-01-01T09:28:11Z</time>
      </trkpt>
      <trkpt lat="43.23213" lon="6.15445">
        <ele>71</ele>
        <time>2010-01-01T09:29:11Z</time>
      </trkpt>
      <trkpt lat="43.23149" lon="6.15069">
        <ele>67</ele>
        <time>2010-01-01T09:31:03Z</time>
      </trkpt>
      <trkpt lat="43.23105" lon="6.1496">
        <ele>69</ele>
        <time>2010-01-01T09:31:40Z</time>
      </trkpt>
      <trkpt lat="43.2298" lon="6.14644">
        <ele>66</ele>
        <time>2010-01-01T09:33:25Z</time>
      </trkpt>
      <trkpt lat="43.22903" lon="6.14526">
        <ele>68</ele>
        <time>2010-01-01T09:34:11Z</time>
      </trkpt>
      <trkpt lat="43.22875" lon="6.14467">
        <ele>71</ele>
        <time>2010-01-01T09:34:31Z</time>
      </trkpt>
      <trkpt lat="43.22862" lon="6.14416">
        <ele>69</ele>
        <time>2010-01-01T09:34:47Z</time>
      </trkpt>
      <trkpt lat="43.22845" lon="6.14378">
        <ele>69</ele>
        <time>2010-01-01T09:35:00Z</time>
      </trkpt>
      <trkpt lat="43.22815" lon="6.14344">
        <ele>77</ele>
        <time>2010-01-01T09:35:16Z</time>
      </trkpt>
      <trkpt lat="43.22719" lon="6.14304">
        <ele>113</ele>
        <time>2010-01-01T09:35:56Z</time>
      </trkpt>
      <trkpt lat="43.22668" lon="6.14289">
        <ele>126</ele>
        <time>2010-01-01T09:36:17Z</time>
      </trkpt>
      <trkpt lat="43.22632" lon="6.14304">
        <ele>118</ele>
        <time>2010-01-01T09:36:32Z</time>
      </trkpt>
      <trkpt lat="43.22549" lon="6.14254">
        <ele>108</ele>
        <time>2010-01-01T09:37:08Z</time>
      </trkpt>
      <trkpt lat="43.22491" lon="6.14191">
        <ele>89</ele>
        <time>2010-01-01T09:37:38Z</time>
      </trkpt>
      <trkpt lat="43.22454" lon="6.1414">
        <ele>81</ele>
        <time>2010-01-01T09:37:59Z</time>
      </trkpt>
      <trkpt lat="43.2244" lon="6.14104">
        <ele>78</ele>
        <time>2010-01-01T09:38:11Z</time>
      </trkpt>
      <trkpt lat="43.22435" lon="6.1407">
        <ele>76</ele>
        <time>2010-01-01T09:38:21Z</time>
      </trkpt>
      <trkpt lat="43.2244" lon="6.14074">
        <ele>78</ele>
        <time>2010-01-01T09:38:23Z</time>
      </trkpt>
      <trkpt lat="43.2245" lon="6.14099">
        <ele>80</ele>
        <time>2010-01-01T09:38:31Z</time>
      </trkpt>
      <trkpt lat="43.22479" lon="6.14109">
        <ele>86</ele>
        <time>2010-01-01T09:38:43Z</time>
      </trkpt>
    </trkseg>
  </trk>
</gpx>